[[{"header":{"parameterUnit":"m.s-1","parameterCategory":1,"la1":30.6,"la2":29.2853,"lo1":-89.7004,"lo2":-87.6739,"dy":0.0162,"dx":0.0183,"nx":112,"ny":82,"refTime":"2023-06-11T12:00:00:Z","depth":0,"parameterNumber":2,"parameterNumberName":"U-component_of_WINDS"},"data":[0.0,0.0,0.0,0.0,0.0,0.0,0.0,0.0,0.0,0.0,0.0,0.0,0.0,0.0,0.0,0.0,0.0,0.0,0.0,0.0,0.0,0.0,0.0,0.0,0.0,0.0,0.0,0.0,0.0,0.0,0.0,0.0,0.0,0.0,0.0,0.0,0.0,0.0,0.0,0.0,0.0,0.0,0.0,0.0,0.0,0.0,0.0,0.0,0.0,0.0,0.0,0.0,0.0,0.0,0.0,0.0,0.0,0.0,0.0,0.0,0.0,0.0,0.0,0.0,0.0,0.0,0.0,0.0,0.0,0.0,0.0,0.0,0.0,0.0,0.0,0.0,0.0,0.0,0.0,0.0,0.0,0.0,0.0,0.0,0.0,0.0,0.0,0.0,0.0,0.0,-3.2742,-3.6983,-4.3237,-4.7168,-4.7481,-4.7456,-4.5296,-4.0375,0.0,0.0,0.0,0.0,0.0,0.0,0.0,0.0,0.0,0.0,0.0,0.0,0.0,0.0,0.0,0.0,0.0,0.0,0.0,0.0,0.0,0.0,0.0,0.0,0.0,0.0,0.0,0.0,0.0,0.0,0.0,0.0,0.0,0.0,0.0,0.0,0.0,0.0,0.0,0.0,0.0,0.0,0.0,0.0,0.0,0.0,0.0,0.0,0.0,0.0,0.0,0.0,0.0,0.0,0.0,0.0,0.0,0.0,0.0,0.0,0.0,0.0,0.0,0.0,0.0,0.0,0.0,0.0,0.0,0.0,0.0,0.0,0.0,0.0,0.0,0.0,0.0,0.0,0.0,0.0,0.0,0.0,0.0,0.0,0.0,0.0,0.0,0.0,0.0,0.0,0.0,0.0,0.0,0.0,0.0,0.0,0.0,0.0,0.0,0.0,0.0,0.0,0.0,0.0,-3.5604,-4.1354,-4.507,-4.7707,-4.9113,-4.6702,-4.4166,-4.1986,0.0,0.0,0.0,0.0,0.0,0.0,0.0,0.0,0.0,0.0,0.0,0.0,0.0,0.0,0.0,0.0,0.0,0.0,0.0,0.0,0.0,0.0,0.0,0.0,0.0,0.0,0.0,0.0,0.0,0.0,0.0,0.0,0.0,0.0,0.0,0.0,0.0,0.0,0.0,0.0,0.0,0.0,0.0,0.0,0.0,0.0,0.0,0.0,0.0,0.0,0.0,0.0,0.0,0.0,0.0,0.0,0.0,0.0,0.0,0.0,0.0,0.0,0.0,0.0,0.0,0.0,0.0,0.0,0.0,0.0,0.0,0.0,0.0,0.0,0.0,0.0,0.0,0.0,0.0,0.0,0.0,0.0,0.0,0.0,0.0,0.0,0.0,0.0,0.0,0.0,0.0,0.0,0.0,0.0,0.0,0.0,0.0,0.0,0.0,0.0,0.0,0.0,0.0,-3.5328,-3.8115,-4.3313,-4.6075,-4.7983,-4.9063,-4.6652,-4.4242,-4.2338,-3.9747,0.0,0.0,0.0,0.0,0.0,0.0,0.0,0.0,0.0,0.0,0.0,0.0,0.0,0.0,0.0,0.0,0.0,0.0,0.0,0.0,0.0,0.0,0.0,0.0,0.0,0.0,0.0,0.0,0.0,0.0,0.0,0.0,0.0,0.0,0.0,0.0,0.0,0.0,0.0,0.0,0.0,0.0,0.0,0.0,0.0,0.0,0.0,0.0,0.0,0.0,0.0,0.0,0.0,0.0,0.0,0.0,0.0,0.0,0.0,0.0,0.0,0.0,0.0,0.0,0.0,0.0,0.0,0.0,0.0,0.0,0.0,0.0,0.0,0.0,0.0,0.0,0.0,0.0,0.0,0.0,0.0,0.0,0.0,0.0,0.0,0.0,0.0,0.0,0.0,0.0,0.0,0.0,0.0,0.0,0.0,0.0,0.0,0.0,0.0,0.0,0.0,0.0,-3.7789,-3.9898,-4.4342,-4.6677,-4.8134,-4.8711,-4.6276,-4.3966,-4.2313,-3.8793,0.0,0.0,0.0,0.0,0.0,0.0,0.0,0.0,0.0,0.0,0.0,0.0,0.0,0.0,0.0,0.0,0.0,0.0,0.0,0.0,0.0,0.0,0.0,0.0,0.0,0.0,0.0,0.0,0.0,0.0,0.0,0.0,0.0,0.0,0.0,0.0,0.0,0.0,0.0,0.0,0.0,0.0,0.0,0.0,0.0,0.0,0.0,0.0,0.0,0.0,0.0,0.0,0.0,0.0,0.0,0.0,0.0,0.0,0.0,0.0,0.0,0.0,0.0,0.0,0.0,0.0,0.0,0.0,0.0,0.0,0.0,0.0,0.0,0.0,0.0,0.0,0.0,0.0,0.0,0.0,0.0,0.0,0.0,0.0,0.0,0.0,0.0,0.0,0.0,0.0,0.0,0.0,0.0,0.0,0.0,0.0,0.0,0.0,0.0,0.0,0.0,0.0,-3.814,-4.0501,-4.4945,-4.6903,-4.8134,-4.8711,-4.4903,-4.2389,-4.2213,-3.8065,0.0,0.0,0.0,0.0,0.0,0.0,0.0,0.0,0.0,0.0,0.0,0.0,0.0,0.0,0.0,0.0,0.0,0.0,0.0,0.0,0.0,0.0,0.0,0.0,0.0,0.0,0.0,0.0,0.0,0.0,0.0,0.0,0.0,0.0,0.0,0.0,0.0,0.0,0.0,0.0,0.0,0.0,0.0,0.0,0.0,0.0,0.0,0.0,0.0,0.0,0.0,0.0,0.0,0.0,0.0,0.0,0.0,0.0,0.0,0.0,0.0,0.0,0.0,0.0,0.0,0.0,0.0,0.0,0.0,0.0,0.0,0.0,0.0,0.0,0.0,0.0,0.0,0.0,0.0,0.0,0.0,0.0,0.0,0.0,0.0,0.0,0.0,0.0,0.0,0.0,0.0,0.0,0.0,0.0,0.0,0.0,0.0,0.0,0.0,0.0,0.0,0.0,-3.8467,-4.0676,-4.4066,-4.6527,-4.7983,-4.8209,-4.5773,-4.3696,-4.2313,0.0,0.0,0.0,0.0,0.0,0.0,0.0,0.0,0.0,0.0,0.0,0.0,0.0,0.0,0.0,0.0,0.0,0.0,0.0,0.0,0.0,0.0,0.0,0.0,0.0,0.0,0.0,0.0,0.0,0.0,0.0,0.0,0.0,0.0,0.0,0.0,0.0,0.0,0.0,0.0,0.0,0.0,0.0,0.0,0.0,0.0,0.0,0.0,0.0,0.0,0.0,0.0,0.0,0.0,0.0,0.0,0.0,0.0,0.0,0.0,0.0,0.0,0.0,0.0,0.0,0.0,0.0,0.0,0.0,0.0,0.0,0.0,0.0,0.0,0.0,0.0,0.0,0.0,0.0,0.0,0.0,0.0,0.0,0.0,0.0,0.0,0.0,0.0,0.0,0.0,0.0,0.0,0.0,0.0,0.0,0.0,0.0,0.0,0.0,0.0,0.0,0.0,-3.6835,-3.8642,-4.0827,0.0,-4.6225,-4.7657,-4.7657,-4.5347,-4.3338,-4.1982,0.0,0.0,0.0,0.0,0.0,0.0,0.0,0.0,0.0,0.0,0.0,0.0,0.0,0.0,0.0,0.0,0.0,0.0,0.0,0.0,0.0,0.0,0.0,0.0,0.0,0.0,0.0,0.0,0.0,0.0,0.0,0.0,0.0,0.0,0.0,0.0,0.0,0.0,0.0,0.0,0.0,0.0,0.0,0.0,0.0,0.0,0.0,0.0,0.0,0.0,0.0,0.0,0.0,0.0,0.0,0.0,0.0,0.0,0.0,0.0,0.0,0.0,0.0,0.0,0.0,0.0,0.0,0.0,0.0,0.0,0.0,0.0,0.0,0.0,0.0,0.0,0.0,0.0,0.0,0.0,0.0,0.0,0.0,0.0,0.0,0.0,0.0,0.0,0.0,0.0,0.0,0.0,0.0,0.0,0.0,0.0,0.0,0.0,0.0,0.0,0.0,0.0,-3.6835,-3.8642,-4.0953,-4.4267,-4.6125,-4.7068,-4.7068,-4.3087,-4.0777,0.0,0.0,0.0,0.0,0.0,0.0,0.0,0.0,0.0,0.0,0.0,0.0,0.0,0.0,0.0,0.0,0.0,0.0,0.0,0.0,0.0,0.0,0.0,0.0,0.0,0.0,0.0,0.0,0.0,0.0,0.0,0.0,0.0,0.0,0.0,0.0,0.0,0.0,0.0,0.0,0.0,0.0,0.0,0.0,0.0,0.0,0.0,0.0,0.0,0.0,0.0,0.0,0.0,0.0,0.0,0.0,0.0,0.0,0.0,0.0,0.0,0.0,0.0,0.0,0.0,0.0,0.0,0.0,0.0,0.0,0.0,0.0,0.0,0.0,0.0,0.0,0.0,0.0,0.0,0.0,0.0,0.0,0.0,0.0,0.0,0.0,0.0,0.0,0.0,0.0,0.0,0.0,0.0,0.0,0.0,0.0,0.0,0.0,0.0,0.0,0.0,0.0,0.0,-3.6835,-3.8642,-4.0802,-4.374,-4.5899,-4.6979,-4.6602,-4.3915,-4.1831,-4.0827,0.0,0.0,0.0,0.0,0.0,0.0,0.0,0.0,0.0,0.0,0.0,0.0,0.0,0.0,0.0,0.0,0.0,0.0,0.0,0.0,0.0,0.0,0.0,0.0,0.0,0.0,0.0,0.0,0.0,0.0,0.0,0.0,0.0,0.0,0.0,0.0,0.0,0.0,0.0,0.0,0.0,0.0,0.0,0.0,0.0,0.0,0.0,0.0,0.0,0.0,0.0,0.0,0.0,0.0,0.0,0.0,0.0,0.0,0.0,0.0,0.0,0.0,0.0,0.0,0.0,0.0,0.0,0.0,0.0,0.0,0.0,0.0,0.0,0.0,0.0,0.0,0.0,0.0,0.0,0.0,0.0,0.0,0.0,0.0,0.0,0.0,0.0,0.0,0.0,0.0,0.0,0.0,0.0,0.0,0.0,0.0,0.0,0.0,0.0,0.0,0.0,0.0,-3.6835,-3.8642,-4.0752,-4.3514,-4.5598,-4.6677,-4.6326,-4.4267,-4.2183,-4.03,0.0,0.0,0.0,0.0,0.0,0.0,0.0,0.0,0.0,0.0,0.0,0.0,0.0,0.0,0.0,0.0,0.0,0.0,0.0,0.0,0.0,0.0,0.0,0.0,0.0,0.0,0.0,0.0,0.0,0.0,0.0,0.0,0.0,0.0,0.0,0.0,0.0,0.0,0.0,0.0,0.0,0.0,0.0,0.0,0.0,0.0,0.0,0.0,0.0,0.0,0.0,0.0,0.0,0.0,0.0,0.0,0.0,0.0,0.0,0.0,0.0,0.0,0.0,0.0,0.0,0.0,0.0,0.0,0.0,0.0,0.0,0.0,0.0,0.0,0.0,0.0,0.0,0.0,0.0,0.0,0.0,0.0,0.0,0.0,0.0,0.0,0.0,0.0,0.0,0.0,0.0,0.0,0.0,0.0,0.0,0.0,0.0,0.0,0.0,0.0,0.0,0.0,-3.691,-3.8743,-4.0827,-4.3589,-4.5347,-4.6276,-4.6225,-4.4242,-4.2057,-3.9898,0.0,0.0,0.0,0.0,0.0,0.0,0.0,0.0,0.0,0.0,0.0,0.0,0.0,0.0,0.0,0.0,0.0,0.0,0.0,0.0,0.0,0.0,0.0,0.0,0.0,0.0,0.0,0.0,0.0,0.0,0.0,0.0,0.0,0.0,0.0,0.0,0.0,0.0,0.0,0.0,0.0,0.0,0.0,0.0,0.0,0.0,0.0,0.0,0.0,0.0,0.0,0.0,0.0,0.0,0.0,0.0,0.0,0.0,0.0,0.0,-2.4687,0.0,0.0,0.0,0.0,0.0,0.0,0.0,0.0,0.0,0.0,0.0,0.0,0.0,0.0,0.0,0.0,0.0,0.0,0.0,0.0,0.0,0.0,0.0,0.0,0.0,0.0,0.0,0.0,0.0,0.0,0.0,0.0,0.0,0.0,0.0,0.0,0.0,0.0,0.0,0.0,0.0,-3.7487,-3.9295,-4.1404,-4.4166,-4.5573,-4.6125,-4.5698,-4.4016,-4.2233,-4.045,-3.7389,0.0,0.0,0.0,0.0,0.0,0.0,0.0,0.0,0.0,0.0,0.0,0.0,0.0,0.0,0.0,0.0,0.0,0.0,0.0,0.0,0.0,0.0,0.0,0.0,0.0,0.0,0.0,0.0,0.0,0.0,0.0,0.0,0.0,0.0,0.0,0.0,0.0,0.0,0.0,0.0,0.0,0.0,0.0,0.0,0.0,0.0,0.0,0.0,0.0,0.0,0.0,0.0,0.0,0.0,0.0,0.0,0.0,0.0,0.0,0.0,-2.6133,0.0,0.0,0.0,0.0,0.0,0.0,0.0,0.0,0.0,0.0,0.0,0.0,0.0,0.0,0.0,0.0,0.0,0.0,0.0,0.0,0.0,0.0,0.0,0.0,0.0,0.0,0.0,0.0,0.0,0.0,0.0,0.0,0.0,0.0,0.0,0.0,0.0,0.0,0.0,0.0,-3.8467,-4.0049,-4.1982,-4.4744,-4.5799,-4.6075,-4.5547,-4.4192,-4.2434,-4.0249,-3.799,0.0,0.0,0.0,0.0,0.0,0.0,0.0,0.0,0.0,0.0,0.0,0.0,0.0,0.0,0.0,0.0,0.0,0.0,0.0,0.0,0.0,0.0,0.0,0.0,0.0,0.0,0.0,0.0,0.0,0.0,0.0,0.0,0.0,0.0,0.0,0.0,0.0,0.0,0.0,0.0,0.0,0.0,0.0,0.0,0.0,0.0,0.0,0.0,0.0,0.0,0.0,0.0,0.0,-3.0937,-3.1738,-3.2734,-3.2812,-3.2891,-3.2894,-3.0762,-2.9043,-2.7676,-2.7598,0.0,0.0,0.0,0.0,0.0,0.0,0.0,0.0,0.0,0.0,0.0,0.0,0.0,0.0,0.0,0.0,0.0,0.0,0.0,0.0,0.0,0.0,0.0,0.0,-3.5869,-3.3912,-3.2336,0.0,0.0,0.0,0.0,0.0,0.0,0.0,0.0,0.0,0.0,0.0,-3.9069,-4.0626,-4.2509,-4.5196,-4.5974,-4.6075,-4.5547,-4.4543,-4.2861,-4.0275,-3.8894,-3.7136,0.0,0.0,0.0,0.0,0.0,0.0,0.0,0.0,0.0,0.0,0.0,0.0,0.0,0.0,0.0,0.0,0.0,0.0,0.0,0.0,0.0,0.0,0.0,0.0,0.0,0.0,0.0,0.0,0.0,0.0,0.0,0.0,-2.31,-2.3782,0.0,0.0,0.0,0.0,0.0,0.0,0.0,0.0,0.0,0.0,0.0,0.0,0.0,-3.0664,-3.1758,-3.3047,-3.3613,-3.3496,-3.4687,-3.5156,-3.498,-3.5351,-3.5723,-3.6074,-3.6094,0.0,-3.0351,-2.9941,0.0,0.0,0.0,0.0,0.0,0.0,0.0,0.0,0.0,0.0,0.0,0.0,0.0,0.0,0.0,0.0,0.0,0.0,0.0,0.0,0.0,0.0,-3.4703,-3.7541,-3.8182,-3.7995,0.0,-3.637,-3.5591,-3.5238,-3.3287,0.0,0.0,0.0,0.0,0.0,0.0,0.0,-3.8065,-4.0475,-4.2992,-4.5246,-4.5974,-4.6075,-4.5547,-4.4895,-4.374,-4.2011,-3.995,-3.8642,-3.829,-3.5378,0.0,0.0,0.0,0.0,0.0,0.0,0.0,0.0,0.0,0.0,0.0,0.0,0.0,0.0,0.0,0.0,0.0,0.0,0.0,0.0,0.0,0.0,0.0,0.0,0.0,0.0,0.0,0.0,0.0,-2.3727,-2.4277,-2.416,-2.4961,-2.5527,0.0,0.0,0.0,0.0,0.0,0.0,0.0,0.0,0.0,-3.0703,-3.2012,-3.2949,-3.3516,-3.4805,-3.5703,-3.625,-3.7305,-3.7851,-3.793,-3.8359,-3.8652,-3.8848,-3.9023,-3.7754,-3.541,-3.3516,-3.2109,-3.1016,0.0,0.0,0.0,0.0,-3.0586,-3.1289,-3.2715,-3.291,0.0,-3.2871,0.0,0.0,0.0,0.0,0.0,0.0,0.0,0.0,0.0,0.0,-3.791,-4.2589,-4.3102,-4.2635,-4.3072,-4.1317,-3.8977,0.0,-3.6333,-3.6308,-3.6238,0.0,0.0,0.0,0.0,-3.7914,-3.9647,-4.148,-4.3363,-4.5271,-4.5422,-4.5146,-4.4593,-4.4317,-4.3589,-4.2288,-4.0953,-3.9848,-3.8969,-3.6678,-3.518,0.0,0.0,0.0,0.0,0.0,0.0,0.0,0.0,0.0,0.0,0.0,0.0,0.0,0.0,0.0,0.0,0.0,0.0,0.0,0.0,0.0,0.0,0.0,0.0,0.0,0.0,0.0,0.0,-2.4512,-2.544,-2.4824,-2.6211,-2.707,0.0,0.0,0.0,0.0,0.0,0.0,-3.0683,-3.1855,-3.2812,-3.3457,-3.4726,-3.5488,-3.5723,-3.6797,-3.7812,-3.8769,-3.9394,-3.9883,-4.0234,-4.0547,-4.0684,-4.0684,-4.0684,-4.0312,-3.9492,-3.668,-3.4961,-3.3945,-3.2441,-3.1934,-3.2129,-3.2754,-3.334,-3.4023,-3.5742,-3.6074,-3.5684,-3.5449,-3.4453,-3.2949,-3.0996,0.0,0.0,0.0,0.0,-3.4697,-3.949,-4.0482,-4.1733,-4.7425,-4.772,-4.6874,-4.7608,-4.5896,-4.2968,0.0,-3.8862,-3.9208,-3.8191,0.0,0.0,0.0,0.0,-3.8868,-4.0676,-4.2007,-4.3413,-4.5095,-4.4895,-4.4392,-4.384,-4.3447,-4.2722,-4.1712,-4.0654,-3.9692,-3.8782,-3.6857,-3.5294,-3.4297,0.0,0.0,0.0,0.0,0.0,0.0,0.0,0.0,0.0,0.0,0.0,0.0,0.0,0.0,0.0,0.0,0.0,0.0,0.0,0.0,0.0,0.0,0.0,0.0,0.0,0.0,0.0,0.0,0.0,-2.5635,-2.7891,0.0,0.0,0.0,0.0,-3.0586,-3.1426,-3.2461,-3.3769,-3.4707,-3.5762,-3.6992,-3.8281,-3.9355,-4.0195,-4.0684,-4.0957,-4.1016,-4.1055,-4.1094,-4.1113,-4.1133,-4.1133,-4.1133,-4.1133,-4.1113,-4.0898,-3.8672,-3.7031,-3.5801,-3.4863,-3.4766,-3.5176,-3.5215,-3.5762,-3.6543,-3.7051,-3.6953,-3.6875,-3.8437,-3.7812,-3.6191,-3.4824,-3.3848,0.0,0.0,-3.5611,-3.8252,-4.19,-4.4514,-4.7003,-5.0364,-5.0629,-5.0012,-4.959,-4.8924,-4.7043,0.0,-3.8851,-3.7218,-3.7892,0.0,-3.696,-3.6508,-3.7814,-3.9069,-3.9697,-4.1204,-4.2891,-4.4493,-4.4644,-4.4392,-4.384,-4.2394,-4.1123,-4.0185,-3.8124,-3.7346,-3.8299,-3.5044,-3.3861,-3.5278,-3.1457,0.0,0.0,0.0,0.0,0.0,0.0,0.0,0.0,0.0,0.0,0.0,0.0,0.0,0.0,0.0,0.0,0.0,0.0,0.0,0.0,0.0,0.0,0.0,0.0,0.0,0.0,0.0,0.0,-2.9316,-3.123,0.0,-3.1836,-3.1699,-3.2109,-3.3262,-3.3906,-3.5039,-3.6875,-3.8066,-3.916,-4.0156,-4.0898,-4.1426,-4.1738,-4.1894,-4.1836,-4.1582,-4.1582,-4.1426,-4.1172,-4.1172,-4.1172,-4.1172,-4.1172,-4.1172,-4.1113,-4.0332,-3.9414,-3.8418,-3.7539,-3.7305,-3.748,-3.7734,-3.8223,-3.8809,-3.9219,-3.9277,-3.9062,-3.8535,-3.7598,-3.6523,-3.5781,-3.5527,-3.5913,-3.7942,-3.925,-4.1062,-4.5234,-4.7061,-4.8594,-5.1594,-5.1348,-5.0469,-5.0645,-4.9389,-4.7581,-4.5472,-4.2992,-4.1161,-4.0774,-3.9019,-3.7889,-3.8442,-3.8718,-3.9195,-4.0099,-4.1408,-4.2564,-4.3463,-4.3237,-4.2961,-4.2816,-4.0998,-4.0018,-4.0296,-3.7901,-3.7136,-3.8595,-3.5364,-3.3977,-3.4928,-3.1576,-3.0835,0.0,0.0,0.0,0.0,0.0,0.0,0.0,0.0,0.0,0.0,0.0,0.0,0.0,0.0,0.0,0.0,0.0,0.0,0.0,0.0,0.0,0.0,0.0,0.0,0.0,0.0,-3.0703,-3.2012,-3.3945,-3.5,-3.457,-3.4531,-3.5,-3.6133,-3.6914,-3.8086,-3.9785,-4.084,-4.1582,-4.1992,-4.2422,-4.2578,-4.2422,-4.2422,-4.2207,-4.1797,-4.1797,-4.1582,-4.1172,-4.1172,-4.1172,-4.1172,-4.1172,-4.1172,-4.1172,-4.1172,-4.084,-4.0293,-3.9844,-3.9668,-3.9707,-4.0137,-4.0391,-4.0566,-4.0703,-4.0742,-4.0527,-3.9219,-3.8418,-3.7891,-3.7461,-3.7995,-3.9182,-4.1176,-4.2926,-4.4846,-4.7959,-4.9336,-5.0445,-5.2229,-5.1649,-5.077,-5.0946,-4.9515,-4.8033,-4.7506,-4.5748,-4.3966,-4.2715,-4.0902,-3.9948,-4.0676,-4.0174,-4.0174,-4.1455,-4.1932,-4.2363,-4.266,-4.2439,-4.2137,-4.1882,-4.0147,-3.9104,-3.9241,-3.6773,-3.5825,-3.6948,-3.4379,-3.3327,-3.4089,-3.1667,-3.1199,-3.2797,0.0,0.0,0.0,0.0,0.0,0.0,0.0,0.0,0.0,0.0,0.0,0.0,0.0,0.0,0.0,0.0,0.0,0.0,0.0,0.0,0.0,0.0,0.0,-2.7754,-3.0742,-3.3066,-3.3535,-3.5859,-3.6953,-3.5723,-3.7109,-3.8418,-3.9238,-4.0508,-4.1582,-4.2402,-4.2871,-4.293,-4.25,-4.2891,-4.291,-4.248,-4.2461,-4.2246,-4.1797,-4.1816,-4.1601,-4.1172,-4.1172,-4.1172,-4.1172,-4.1172,-4.1172,-4.1172,-4.1172,-4.1172,-4.1211,-4.1621,-4.1777,-4.1836,-4.2246,-4.2129,-4.1719,-4.1308,-4.1172,-4.1113,-4.0684,-4.0547,-4.0469,-4.0059,-4.1286,-4.2858,-4.3447,-4.6312,-4.9389,-4.9913,-5.1513,-5.2779,-5.2226,-5.1674,-5.1096,-5.0544,-4.9565,-4.8611,-4.8033,-4.6627,-4.502,-4.3338,-4.3037,-4.2986,-4.2986,-4.2057,0.0,-4.3514,-4.2811,-4.2213,-4.2263,-4.2263,-4.1982,-4.1376,-3.9819,-3.8255,-3.6768,-3.4546,-3.3305,-3.3314,-3.2013,-3.1786,-3.2861,-3.186,-3.1097,-3.0683,0.0,0.0,0.0,0.0,0.0,0.0,0.0,0.0,0.0,0.0,0.0,0.0,0.0,0.0,0.0,0.0,0.0,0.0,0.0,0.0,0.0,0.0,-3.043,-3.0937,-3.3086,-3.541,-3.7383,-3.9082,-4.0215,-4.0469,-4.0918,-4.1289,-4.1523,-4.2168,-4.2656,-4.2891,-4.3613,-4.3984,-4.3867,-4.3965,-4.3808,-4.3359,-4.3359,-4.2832,-4.1797,-4.2109,-4.1875,-4.1172,-4.1172,-4.1172,-4.1172,-4.1172,-4.1172,-4.1172,-4.1172,-4.1172,-4.1191,-4.1308,-4.1348,-4.1367,-4.1484,-4.1445,-4.1328,-4.1211,-4.1172,-4.1152,-4.1035,-4.0996,-4.0976,-4.0859,-4.1186,-4.2216,-4.5187,-4.6827,-4.8321,-5.1324,-5.2192,-5.2277,-5.1915,-5.1256,-5.0619,-5.0444,-4.9565,-4.8611,-4.8033,-4.7255,-4.6276,-4.502,-4.4116,-4.3438,-4.3037,-4.2384,0.0,-4.2007,-4.2108,-4.2514,-4.3263,-4.3338,-4.3137,-4.2585,-4.0026,-3.7902,-3.6578,-3.3221,-3.205,-3.3675,-3.2009,-3.1703,-3.3014,-3.3113,-3.3088,0.0,0.0,0.0,0.0,0.0,0.0,0.0,0.0,0.0,0.0,0.0,0.0,0.0,0.0,0.0,0.0,0.0,0.0,0.0,0.0,0.0,0.0,-3.1992,-3.4141,-3.5488,-3.6426,-3.7812,-4.0019,-4.1133,-4.1953,-4.2637,-4.2695,-4.2851,-4.3223,-4.3301,-4.3496,-4.3867,-4.4023,-4.4199,-4.4394,-4.4199,-4.3984,-4.3711,-4.3535,-4.2969,-4.207,-4.2129,-4.1816,-4.1172,-4.1172,-4.1172,-4.1172,-4.1172,-4.1172,-4.1172,-4.1172,-4.1172,0.0,0.0,0.0,0.0,0.0,-4.1426,-4.1406,-4.123,-4.1172,-4.1172,-4.1172,-4.1172,-4.1172,-4.1172,-4.235,-4.4117,-4.6367,-4.8217,-4.9985,-5.2327,-5.2646,-5.2287,-5.1707,-5.1071,-5.0459,-5.0117,-4.9389,-4.8661,-4.8335,-4.7832,0.0,-4.6326,-4.5246,-4.4468,-4.4392,-4.3514,-4.2911,-4.3062,-4.2735,-4.2715,-4.3062,-4.2911,-4.2534,-4.1982,-3.9833,0.0,0.0,0.0,-3.2644,-3.3552,-3.2498,0.0,0.0,0.0,-3.4123,-3.3897,-3.4449,0.0,0.0,-3.3577,-3.3452,0.0,0.0,0.0,0.0,0.0,0.0,0.0,0.0,0.0,0.0,0.0,0.0,0.0,0.0,0.0,0.0,-3.5469,-3.8008,-4.0586,-4.0273,-4.0371,-4.1914,-4.2422,-4.2793,-4.3183,-4.3262,-4.3574,-4.4258,-4.3984,-4.4101,-4.4844,0.0,0.0,0.0,0.0,-4.3691,-4.3633,-4.3223,-4.2754,-4.2285,-4.1953,-4.1582,-4.1172,-4.1172,-4.1172,-4.1172,-4.1172,-4.1172,-4.1172,-4.1172,-4.1172,-4.1211,-4.1582,-4.1738,-4.1738,-4.1738,-4.1738,-4.168,-4.1308,0.0,0.0,-4.1172,-4.1172,-4.125,-4.1463,-4.3966,-4.6735,-4.7175,-4.9914,-5.2629,-5.2861,-5.2833,-5.2464,-5.1515,-5.0911,-5.0398,-4.9715,-4.9213,-4.8837,-4.8786,-4.836,-4.7832,-4.7168,-4.6326,-4.5799,-4.6175,-4.4945,-4.4342,-4.5271,-4.4041,-4.2992,-4.2615,0.0,0.0,-4.0852,-3.9722,-3.8366,-3.6606,-3.5353,-3.4274,-3.3294,-3.3269,-3.352,-3.4073,-3.4575,-3.46,-3.4173,-3.4675,-3.5203,-3.5683,-3.5558,-3.5282,0.0,0.0,0.0,0.0,0.0,0.0,0.0,0.0,0.0,0.0,0.0,0.0,0.0,0.0,0.0,-3.6426,-3.8535,-4.0684,-4.3281,-4.3496,-4.3516,-4.3848,-4.3965,-4.4043,-4.4141,-4.4453,-4.4414,-4.3887,-4.4101,-4.418,-4.3965,-4.416,-4.4316,-4.4394,-4.3945,-4.3535,-4.3203,-4.2773,-4.2168,-4.1426,0.0,0.0,-4.1172,-4.1172,-4.1172,-4.1172,-4.1172,-4.1172,-4.1172,-4.1172,-4.1172,-4.1172,-4.1269,-4.1289,-4.1289,-4.1289,-4.1289,-4.1289,-4.1211,-4.1172,-4.1172,-4.1172,-4.1172,-4.1463,-4.3075,-4.4096,0.0,-4.8506,-4.9961,-5.0928,-5.2491,-5.2294,-5.154,-5.1322,-5.0519,-4.9741,-4.9615,-4.9515,-4.9314,-4.8862,-4.8686,-4.8284,-4.7305,-4.6954,-4.6552,-4.5773,-4.5372,-4.507,-4.4819,-4.4116,-4.394,-4.4744,-4.394,-4.3112,-4.2559,-4.1078,-3.9295,-3.7161,-3.5579,-3.4625,-3.4399,-3.4399,-3.463,-3.5182,-3.5282,-3.5554,-3.5927,-3.6028,-3.6332,-3.6835,-3.5909,-3.573,0.0,0.0,0.0,0.0,0.0,0.0,0.0,0.0,0.0,0.0,0.0,-3.0762,0.0,0.0,-3.666,-3.9687,-4.1465,-4.3066,-4.4805,-4.5215,-4.5195,-4.4766,-4.4531,-4.4473,-4.4687,-4.4512,-4.4355,-4.4355,-4.416,-4.4141,-4.4355,-4.416,-4.416,-4.4394,-4.375,-4.3281,-4.3086,-4.2441,-4.2012,-4.1797,-4.1797,-4.1699,-4.1484,-4.1484,-4.1367,-4.1172,-4.1172,-4.1172,-4.1172,-4.1172,-4.1172,-4.1172,-4.1172,-4.1172,-4.1172,-4.1172,-4.1172,-4.1172,-4.1172,-4.1172,-4.1385,-4.235,-4.2637,-4.2999,-4.4977,-4.6219,-4.7467,-4.9463,-5.0717,-5.1603,-5.2304,-5.2018,-5.1431,-5.0946,-5.0218,-4.959,-4.959,-4.959,-4.9515,-4.9238,-4.9188,-4.8837,-4.7707,-4.7531,-4.7154,-4.6075,-4.5673,-4.5271,-4.4694,-4.4141,-4.3915,-4.4192,-4.3237,-4.2459,-4.2183,-4.0375,-3.8668,-3.7287,-3.6157,-3.5554,-3.5554,-3.5554,-3.5705,-3.5981,-3.6232,-3.6508,-3.6832,-3.7061,-3.7487,-3.8015,-3.7462,-3.7186,0.0,0.0,0.0,0.0,0.0,0.0,0.0,0.0,-3.0117,-3.125,-3.2519,-3.4121,-3.6465,-3.8008,-3.9805,-4.25,-4.3906,-4.4922,-4.5683,-4.6094,-4.6016,-4.5234,-4.4844,-4.4746,-4.5,-4.4375,-4.418,-4.4726,-4.4199,-4.4082,-4.4609,-4.3965,-4.3711,-4.4004,-4.3242,-4.2871,-4.2949,-4.2109,-4.1933,-4.2422,-4.1992,-4.1797,-4.1797,-4.1797,-4.1562,-4.1172,-4.1172,-4.1172,-4.1172,-4.1172,-4.1172,-4.1172,-4.1172,-4.1172,-4.1172,-4.1172,-4.1172,-4.1172,-4.1172,-4.1172,-4.154,-4.3435,-4.4096,-4.4527,-4.6882,-4.8722,-5.0056,-5.0481,-5.1677,-5.2804,-5.2251,-5.1934,-5.1589,-5.0685,-5.0017,-4.959,-4.959,-4.959,-4.959,-4.959,-4.9515,-4.9113,-4.8083,-4.7832,-4.7431,-4.6451,-4.5924,-4.5472,-4.502,-4.4367,-4.379,-4.3338,-4.2208,-4.1404,-4.115,-3.9446,-3.814,-3.7688,-3.7186,-3.6885,-3.6908,-3.6759,-3.6784,-3.6885,-3.7287,-3.7563,-3.7663,-3.8115,-3.8567,-3.907,-3.907,-3.8768,-2.8047,-2.791,0.0,-2.8476,-2.875,-2.9629,0.0,0.0,-3.3496,-3.5527,-3.6973,-3.8301,-3.9746,-4.1387,-4.2988,-4.4492,-4.5176,-4.5703,-4.6172,-4.6269,-4.6133,-4.5664,-4.5566,-4.5391,-4.5058,-4.4941,-4.459,-4.3906,-4.4141,-4.4023,-4.334,-4.3203,-4.2988,-4.2656,-4.2187,-4.2129,-4.25,-4.166,-4.1641,-4.2422,-4.1992,-4.1797,-4.1797,-4.1797,-4.1562,-4.1172,-4.1172,-4.1172,-4.1172,-4.1172,-4.1172,-4.1172,-4.1172,-4.1172,-4.1172,-4.1172,-4.1172,-4.1172,-4.1172,-4.1172,-4.154,-4.3435,-4.4096,-4.4827,-4.8506,-4.9819,-5.0339,-5.2119,-5.2698,-5.2804,-5.2251,-5.1934,-5.1589,-5.0892,-5.0107,-4.959,-4.959,-4.959,-4.959,-4.959,-4.9213,-4.8661,-4.8008,-4.7531,-4.7004,-4.6401,-4.625,-4.62,-4.6125,-4.5196,-4.4518,-4.4443,-4.3011,-4.1681,-4.0701,-3.9923,-3.9471,-3.9421,-3.8894,-3.8642,-3.8642,-3.809,-3.8065,-3.8642,-3.8693,-3.8919,-3.9421,-3.9471,-3.9546,-3.9597,-3.9597,-3.9572,-2.9375,-2.9492,0.0,0.0,-3.1387,-3.3066,-3.4512,-3.5664,-3.6894,-3.8574,-3.9922,-4.1289,-4.2851,-4.373,-4.4551,0.0,-4.5918,-4.6113,-4.6289,-4.5879,-4.541,-4.498,-4.4473,-4.4297,-4.4629,-4.4199,-4.373,-4.3359,-4.3516,-4.3359,-4.2734,-4.2695,-4.2734,-4.2812,-4.2148,-4.2129,-4.2793,-4.1719,-4.1601,-4.2422,-4.2246,-4.2031,-4.1816,-4.2324,-4.2168,-4.1523,-4.1289,-4.1172,-4.1172,-4.1172,-4.1172,-4.1172,-4.1172,-4.1172,-4.1172,-4.1172,-4.1172,-4.1172,-4.1172,-4.1907,-4.3228,-4.5127,-4.6588,-4.8049,-5.0857,-5.1456,-5.1492,-5.2623,-5.2703,-5.2327,-5.1774,-5.1682,-5.1513,-5.0373,-4.9856,-4.959,-4.959,-4.959,-4.959,-4.959,-4.9163,-4.8586,-4.8008,-4.7481,-4.6954,-4.6401,-4.6301,-4.62,-4.5874,-4.5121,-4.4242,-4.3288,-4.2615,-4.176,-4.0601,-4.03,-4.0049,-3.9722,-3.9471,-3.9346,-3.9346,-3.912,-3.9094,-3.9346,-3.9346,-3.9471,-3.9697,-3.9697,-3.9697,-3.9697,-3.9697,-3.9697,-2.9807,-3.0449,0.0,-3.1797,-3.4043,-3.6211,-3.6699,-3.8281,-4.0,-4.1328,-4.2324,-4.3398,-4.4766,-4.5019,-4.5234,-4.5859,-4.6055,-4.6055,-4.582,-4.5234,-4.457,-4.3769,-4.291,-4.2676,-4.3437,-4.3144,-4.2891,-4.2891,-4.2891,-4.2754,-4.2441,-4.2422,-4.2578,-4.2891,-4.2305,-4.2324,-4.3066,-4.2051,-4.1953,-4.2773,-4.2656,-4.2441,-4.2168,-4.2539,-4.2324,-4.1621,-4.1308,-4.1172,-4.1172,-4.1172,-4.1172,-4.1172,-4.1172,-4.1172,-4.125,-4.183,-4.1985,-4.1985,-4.1985,-4.3304,-4.5201,-4.7175,-4.8794,-5.0339,-5.2327,-5.2653,-5.2427,-5.2804,-5.2528,-5.1975,-5.1423,-5.138,-5.1144,-4.9906,-4.959,-4.959,-4.959,-4.959,-4.959,-4.959,-4.9012,-4.841,-4.7983,-4.7355,-4.6778,-4.6376,-4.6301,-4.6175,-4.5773,-4.507,-4.4041,-4.259,-4.2313,-4.1835,-4.0827,-4.0601,-4.0275,-3.9722,-3.9697,-3.9697,-3.9697,-3.9697,-3.9697,-3.9697,-3.9697,-3.9697,-3.9697,-3.9697,-3.9697,-3.9697,-3.9697,-3.9697,-2.8965,-3.0195,-3.1992,-3.4062,-3.623,-3.8281,-3.998,-4.1367,-4.2676,-4.4004,-4.4316,-4.4473,-4.4941,-4.5019,-4.5039,-4.5058,-4.543,-4.541,-4.457,-4.4433,-4.3789,-4.209,-4.1113,-4.0781,0.0,-4.1992,-4.2441,-4.2441,-4.2441,-4.2441,-4.2422,-4.2422,-4.2441,-4.2441,-4.2422,-4.2617,-4.3066,-4.2617,-4.2812,-4.3652,-4.3262,-4.3047,-4.3008,-4.2207,-4.1601,-4.1191,-4.1172,-4.1172,-4.1172,-4.1172,-4.1172,-4.1172,-4.1172,-4.1172,-4.1463,-4.3283,-4.4021,-4.4021,-4.4021,-4.5276,-4.7248,-4.9248,-4.9961,-5.0339,-5.2327,-5.2929,-5.2904,-5.2929,-5.2528,-5.1975,-5.1423,-5.0987,-5.055,-4.9741,-4.959,-4.959,-4.959,-4.959,-4.959,-4.959,-4.8686,-4.7933,-4.7908,-4.7029,-4.6326,-4.6301,-4.6301,-4.6301,-4.6276,-4.5321,-4.4192,-4.3062,-4.2539,-4.1932,-4.13,-4.0827,-4.0275,-3.9722,-3.9697,-3.9697,-3.9697,-3.9697,-3.9697,-3.9697,-3.9697,-3.9697,-3.9697,-3.9697,-3.9697,-3.9697,-3.9697,-3.9697,-3.0684,-3.2969,-3.5371,-3.7226,-3.9531,-4.166,-4.2832,-4.3867,-4.4551,-4.4414,-4.416,-4.373,-4.3008,-4.2891,-4.2891,-4.2891,-4.3711,-4.4258,-4.3984,-4.3691,-4.2891,-4.1152,-4.0703,0.0,0.0,0.0,0.0,-4.1973,-4.2266,-4.2305,-4.2031,-4.2266,-4.2558,-4.2851,-4.2578,-4.2773,-4.3496,-4.2773,-4.2715,-4.3281,-4.2578,-4.2383,-4.2617,-4.1777,-4.1465,-4.1562,-4.1289,-4.1172,-4.1172,-4.1172,-4.1172,-4.1172,-4.1172,-4.1985,-4.3228,-4.3869,-4.5775,-4.7831,-4.6514,-4.7321,-4.9081,-4.9748,-5.0857,-5.205,-5.2698,-5.2678,-5.2452,-5.2829,-5.2528,-5.2076,-5.1875,-5.1515,-5.0845,-4.9831,-4.9611,-4.959,-4.959,-4.959,-4.959,-4.959,-4.8686,-4.7908,-4.7908,-4.7029,-4.6301,-4.6301,-4.6301,-4.605,-4.5296,-4.4869,-4.4192,-4.3087,-4.2811,-4.2333,-4.1351,-4.1125,-4.0676,-3.9747,-3.9697,-3.9697,-3.9697,-3.9697,-3.9697,-3.9697,-3.9697,-3.9697,-3.9697,-3.9697,-3.9697,-3.9697,-3.9697,-3.9697,-3.2832,-3.541,-3.7871,-4.0039,-4.2187,-4.3926,-4.4492,-4.5058,-4.5117,-4.3926,-4.2969,-4.1992,-4.0859,-4.0019,-3.9805,-4.0723,-4.1562,-4.2305,-4.293,-4.2793,-4.209,-4.0684,-4.0234,-3.9883,0.0,0.0,0.0,-4.1504,-4.1973,-4.2226,-4.2246,-4.2656,-4.3086,-4.3535,-4.3281,-4.332,-4.3691,-4.3164,-4.3027,-4.3301,-4.2598,-4.2324,-4.2402,-4.1719,-4.1465,-4.1562,-4.1289,-4.1172,-4.1172,-4.1172,-4.1172,-4.1172,-4.1172,-4.2427,-4.4151,-4.4902,-4.7175,-4.9819,-4.8506,-4.9391,-5.0998,-5.0998,-5.1886,-5.2929,-5.2929,-5.2678,-5.2477,-5.2829,-5.2528,-5.2101,-5.2101,-5.1641,-5.087,-5.0081,-4.9761,-4.959,-4.959,-4.9439,-4.9289,-4.9289,-4.8385,-4.7631,-4.7631,-4.6903,-4.6301,-4.6301,-4.6301,-4.5974,-4.5045,-4.4945,-4.4493,-4.3388,-4.3263,-4.2836,-4.1731,-4.163,-4.1254,-4.035,-4.0099,-3.9998,-3.9998,-3.9798,-3.9697,-3.9697,-3.9697,-3.9697,-3.9697,-3.9697,-3.9697,-3.9697,-3.9697,-3.9697,-3.5234,-3.7441,-3.9512,-4.2422,-4.4082,-4.5019,-4.5019,-4.4941,-4.4355,-4.2598,-4.084,-3.9336,0.0,0.0,-3.6133,-3.8574,-3.9121,-3.9844,-4.1562,-4.1797,-4.1484,0.0,0.0,0.0,0.0,0.0,0.0,-4.1172,0.0,-4.2226,-4.3047,-4.3516,-4.3945,-4.4355,-4.4394,-4.418,-4.3711,-4.3711,-4.3691,-4.3672,-4.3242,-4.2812,-4.2383,-4.1953,-4.1543,-4.1172,-4.1172,-4.1172,-4.1172,-4.1172,-4.1172,-4.1172,-4.1172,-4.2427,-4.4452,-4.6293,-4.8361,-5.0127,-5.0127,-5.1373,-5.2929,-5.2929,-5.2929,-5.2929,-5.2929,-5.2929,-5.2929,-5.2929,-5.2553,-5.2126,-5.2126,-5.1439,-5.0701,-5.0444,-4.9992,-4.959,-4.959,-4.9188,-4.8812,-4.8786,-4.7883,-4.7068,-4.7043,-4.6652,-4.6301,-4.6301,-4.6301,-4.6125,-4.5573,-4.5497,-4.5045,-4.3915,-4.379,-4.3363,-4.2313,-4.2213,-4.1907,-4.1326,-4.0852,-4.0551,-4.0526,-4.0023,-3.9722,-3.9697,-3.9697,-3.9697,-3.9697,-3.9697,-3.9697,-3.9697,-3.9697,-3.9697,-3.7168,-3.9883,-4.2266,-4.3711,-4.4551,-4.5019,-4.5019,-4.3789,-4.2051,-3.998,-3.7676,-3.5371,0.0,0.0,0.0,-3.5684,-3.8027,0.0,-4.1601,-4.1797,0.0,-4.1074,0.0,-4.0723,-4.084,-4.1133,0.0,0.0,-4.25,-4.2851,-4.3066,-4.4101,-4.4433,-4.3906,-4.4219,-4.418,-4.3711,-4.3711,-4.3555,-4.3223,-4.2793,-4.2363,-4.1953,-4.1523,-4.1269,-4.1172,-4.1172,-4.1172,-4.1172,-4.1172,-4.1172,-4.1172,-4.1172,-4.3304,-4.6293,-4.6809,-4.9176,-5.2189,-5.2189,-5.2491,-5.2929,-5.2929,-5.2929,-5.2929,-5.2929,-5.2929,-5.2929,-5.2929,-5.2829,-5.2628,-5.2201,-5.2253,-5.1997,-5.0726,-4.9992,-4.959,-4.959,-4.949,-4.9264,-4.8862,-4.7883,-4.6943,-4.6602,-4.6401,-4.6301,-4.6301,-4.6301,-4.6125,-4.5573,-4.5497,-4.5045,-4.3915,-4.379,-4.3363,-4.2313,-4.2213,-4.1907,-4.1326,-4.115,-4.0953,-4.0526,-4.0375,-4.0124,-3.9697,-3.9697,-3.9697,-3.9697,-3.9697,-3.9697,-3.9697,-3.9697,-3.9697,-3.9101,-4.1484,-4.3516,-4.4219,-4.457,-4.4414,-4.3086,-4.1543,-3.9453,-3.6152,-3.3867,0.0,-2.9844,0.0,0.0,0.0,0.0,0.0,-4.0918,-4.1562,-4.1777,0.0,-4.1719,0.0,-4.1719,-4.1933,-4.2246,0.0,-4.3105,-4.3359,-4.3359,-4.4414,-4.4707,-4.4023,-4.4258,-4.418,-4.3711,-4.3711,-4.3594,-4.334,-4.2734,-4.2305,-4.2051,-4.1445,-4.1172,-4.1172,0.0,-4.1172,-4.1172,-4.1172,-4.1695,-4.2483,-4.2483,-4.4849,-4.8289,-4.8289,-5.0269,-5.2929,-5.2929,-5.2779,-5.2603,-5.2854,-5.2929,-5.2929,-5.2929,-5.2929,-5.2929,-5.2929,-5.2754,-5.2503,-5.2176,-5.206,-5.1702,-5.0635,-4.9992,-4.959,-4.959,-4.9414,-4.8987,-4.8209,-4.7556,-4.6954,-4.6401,-4.6301,-4.6301,-4.6301,-4.6301,-4.62,-4.5899,-4.5849,-4.5422,-4.4292,-4.4166,-4.3714,-4.2665,-4.2564,-4.2384,-4.2082,-4.1831,-4.1555,-4.1254,-4.1003,-4.0626,-4.0074,-4.0049,-3.9948,-3.9697,-3.9697,-3.9697,-3.9697,-3.9697,-3.9697,-4.0879,-4.25,-4.3808,-4.4199,-4.4141,-4.3223,-4.0371,-3.873,-3.6543,-3.209,0.0,-2.8672,-2.7434,-2.7493,-2.875,-3.209,0.0,-3.6543,-4.0117,-4.1191,-4.1855,-4.2441,-4.2519,-4.2539,-4.2598,-4.2598,-4.2773,-4.3223,-4.3652,-4.3848,-4.3789,-4.4629,-4.4883,-4.4414,-4.4394,-4.418,-4.3711,-4.3711,-4.3711,-4.3691,-4.2832,-4.2422,-4.2402,-4.1562,-4.1172,-4.1172,-4.1172,-4.1172,-4.125,-4.1463,-4.256,-4.4172,-4.4377,-4.6735,-4.9961,-4.9961,-5.1233,-5.2929,-5.2929,-5.2628,-5.2302,-5.2779,-5.2879,-5.2829,-5.2904,-5.2929,-5.2904,-5.2829,-5.2477,-5.2076,-5.1925,-5.1289,-5.0625,-5.0343,-4.9941,-4.959,-4.959,-4.9163,-4.8485,-4.7531,-4.7168,-4.6918,-4.6502,-4.6351,-4.6301,-4.6301,-4.6301,-4.6301,-4.6301,-4.6301,-4.5899,-4.4844,-4.4669,-4.4192,-4.3162,-4.3011,-4.2986,-4.2986,-4.259,-4.2288,-4.2213,-4.1706,-4.1125,-4.0651,-4.0626,-4.035,-3.9798,-3.9798,-3.9772,-3.9697,-3.9697,-3.9697,-4.1836,-4.2949,-4.373,-4.3808,-4.2773,-4.1211,-3.9258,-3.6211,0.0,0.0,-2.7793,-2.5996,-2.4707,-2.6211,-2.8555,-3.1289,0.0,0.0,0.0,0.0,-4.1289,0.0,0.0,0.0,0.0,0.0,0.0,0.0,0.0,-4.4648,-4.4297,-4.5098,-4.5215,-4.4414,-4.4394,-4.418,-4.3711,-4.3711,-4.3711,-4.3691,-4.2832,-4.2422,-4.2402,-4.1562,-4.1172,-4.1172,-4.1172,0.0,-4.1327,-4.2922,-4.3794,-4.4247,-4.5849,-4.7904,-4.9961,-4.9961,-5.1233,-5.2929,-5.2929,-5.2854,-5.2804,-5.2904,-5.2628,-5.2327,-5.2779,-5.2929,-5.2829,-5.2377,-5.2176,-5.1875,-5.0946,-5.0685,-5.055,-4.9866,-4.9665,-4.959,-4.959,-4.9163,-4.8711,-4.851,-4.7757,-4.7043,-4.7004,-4.6602,-4.6301,-4.6301,-4.6301,-4.6301,-4.6301,-4.6301,-4.605,-4.5397,-4.492,-4.4367,-4.3714,-4.3237,-4.2986,-4.2986,-4.2886,-4.269,-4.2238,-4.2112,-4.1756,-4.115,-4.115,-4.0874,-4.0375,-4.0375,-4.0149,-3.9697,-3.9697,-3.9697,-4.207,-4.2891,-4.3379,-4.3379,-4.1933,-3.9746,-3.6875,0.0,0.0,0.0,-2.5586,-2.4473,-2.3613,0.0,0.0,0.0,0.0,0.0,0.0,0.0,0.0,0.0,0.0,0.0,0.0,0.0,0.0,0.0,0.0,-4.4941,-4.4726,-4.4902,-4.4824,-4.4414,-4.416,-4.3926,-4.3711,-4.3711,-4.3594,-4.3359,-4.2734,-4.2305,-4.207,-4.1465,-4.1172,-4.1172,-4.1172,0.0,-4.2769,-4.3739,-4.5351,-4.7248,-4.8217,-4.9748,-5.1513,-5.1513,-5.2119,-5.2929,-5.2929,-5.2729,-5.2503,-5.2503,-5.2528,-5.2578,-5.2854,-5.2929,-5.2804,-5.2251,-5.19,-5.1473,-5.0645,-5.0243,-5.0032,-4.9665,-4.959,-4.959,-4.959,-4.9389,-4.9113,-4.8837,-4.8109,-4.7456,-4.7179,-4.6677,-4.6301,-4.6301,-4.6301,-4.6301,-4.6301,-4.6301,-4.61,-4.5547,-4.497,-4.4392,-4.384,-4.3288,-4.2986,-4.2986,-4.2986,-4.2861,-4.264,-4.264,-4.2333,-4.1781,-4.1756,-4.1505,-4.0953,-4.0651,-4.0375,-4.0124,-3.9823,-3.9697,-4.2348,-4.2919,-4.3047,-4.2969,-4.1191,-3.8476,-3.4668,-3.166,0.0,0.0,-2.3945,-2.3555,-2.3159,0.0,0.0,0.0,0.0,0.0,0.0,0.0,0.0,0.0,0.0,0.0,0.0,0.0,0.0,0.0,0.0,0.0,-4.5156,-4.4941,-4.4726,-4.4531,-4.418,-4.3945,-4.3848,-4.375,-4.3496,-4.3066,-4.2637,-4.2207,-4.1777,-4.1367,-4.1172,-4.125,-4.1618,0.0,0.0,-4.5052,-4.7175,-5.0032,-5.0481,-5.1513,-5.2929,-5.2929,-5.2929,-5.2929,-5.2929,-5.2653,-5.2251,-5.2151,-5.2327,-5.2578,-5.2578,-5.2578,-5.2452,-5.19,-5.1423,-5.0971,-5.0393,-4.9916,-4.959,-4.959,-4.959,-4.959,-4.959,-4.959,-4.9439,-4.8887,-4.8309,-4.7732,-4.723,-4.6677,-4.6301,-4.6301,-4.6301,-4.6301,-4.6301,-4.6301,-4.615,-4.5723,-4.5146,-4.4593,-4.4016,-4.3463,-4.3112,-4.2986,-4.2986,-4.2986,-4.2986,-4.2986,-4.2816,-4.2389,-4.2263,-4.1882,-4.1275,-4.0724,-4.045,-4.0325,-3.9898,-3.9697,-4.3311,-4.3356,-4.2988,-4.2578,-4.0273,-3.7187,-3.3711,0.0,0.0,-2.4414,-2.3496,-2.314,-2.3101,-2.3594,-2.4648,0.0,0.0,-2.998,0.0,0.0,0.0,0.0,0.0,0.0,0.0,0.0,0.0,0.0,0.0,0.0,-4.5586,-4.5937,-4.5762,-4.5,-4.4922,-4.4726,-4.4336,-4.3926,-4.3496,-4.3066,-4.2637,-4.2207,-4.1777,-4.1367,-4.1172,-4.1327,-4.3075,0.0,0.0,-4.7976,-4.9677,-5.0198,-5.1956,-5.2698,-5.2929,-5.2929,-5.2929,-5.2929,-5.2929,-5.2904,-5.2779,-5.2277,-5.18,-5.1423,-5.1423,-5.1423,-5.1297,-5.072,-5.0544,-5.0368,-4.9816,-4.964,-4.959,-4.959,-4.959,-4.959,-4.959,-4.959,-4.9439,-4.8887,-4.8309,-4.7732,-4.723,-4.6677,-4.6301,-4.6301,-4.6301,-4.6301,-4.6301,-4.6301,-4.6301,-4.6225,-4.5748,-4.5171,-4.4593,-4.4041,-4.3514,-4.3011,-4.2986,-4.2986,-4.2986,-4.2986,-4.2961,-4.2911,-4.2464,-4.1882,-4.1275,-4.0724,-4.0249,-3.9772,-3.9722,-3.9697,-4.1016,-4.1854,-4.2207,-4.1777,-3.9199,-3.6016,-3.3086,0.0,0.0,-2.4219,-2.3437,-2.3101,-2.3101,-2.3237,-2.3769,0.0,0.0,0.0,0.0,0.0,0.0,0.0,0.0,0.0,0.0,0.0,0.0,0.0,0.0,0.0,-4.5273,-4.5195,-4.5117,-4.5019,-4.4512,-4.4141,-4.3984,-4.3555,-4.3105,-4.2676,-4.2246,-4.1836,-4.1426,-4.125,-4.183,-4.2999,-4.3718,0.0,0.0,-4.9368,-5.0717,-5.1816,-5.2629,-5.2929,-5.2929,-5.2929,-5.2929,-5.2879,-5.2553,-5.2427,-5.2277,-5.1373,-5.0946,-5.082,-5.1172,-5.1272,-5.1147,-5.0569,-5.0419,-5.0293,-4.9741,-4.959,-4.959,-4.959,-4.959,-4.959,-4.959,-4.959,-4.954,-4.9314,-4.8535,-4.7832,-4.7631,-4.6878,-4.6301,-4.6301,-4.6301,-4.6301,-4.6301,-4.6301,-4.6301,-4.6301,-4.5824,-4.5397,-4.5171,-4.4317,-4.3714,-4.3489,-4.3162,-4.2986,-4.2986,-4.2986,-4.2986,-4.2986,-4.2489,-4.2112,-4.1831,-4.0953,-4.04,-4.0174,-3.9848,-3.9697,-3.9495,-4.0499,-4.0996,-4.084,-3.8184,-3.4961,0.0,0.0,0.0,-2.3965,-2.3315,-2.3101,-2.3101,-2.3101,-2.3198,0.0,0.0,-2.4699,0.0,0.0,0.0,0.0,0.0,0.0,0.0,0.0,0.0,0.0,0.0,0.0,-4.5019,-4.4629,-4.459,-4.5019,-4.4297,-4.3848,-4.3711,-4.3281,-4.2793,-4.2246,-4.1953,-4.1582,-4.1172,-4.1172,-4.2273,-4.4172,-4.4677,0.0,0.0,-5.0622,-5.1677,-5.2929,-5.2929,-5.2929,-5.2904,-5.2754,-5.2678,-5.2603,-5.2051,-5.185,-5.1699,-5.072,-5.0419,-5.0469,-5.072,-5.0795,-5.0695,-5.0293,-5.0167,-5.0092,-4.969,-4.959,-4.959,-4.959,-4.959,-4.959,-4.959,-4.959,-4.954,-4.9389,-4.8711,-4.8058,-4.7732,-4.7054,-4.6502,-4.6326,-4.6301,-4.6301,-4.6301,-4.6301,-4.6301,-4.6301,-4.5974,-4.5673,-4.5497,-4.4593,-4.3966,-4.3815,-4.3438,-4.3162,-4.2986,-4.2986,-4.2986,-4.2986,-4.2489,-4.2213,-4.2213,-4.1229,-4.0676,-4.0501,-4.0124,-3.9848,-3.977,-3.9834,-3.9336,-3.9805,-3.7285,-3.4043,0.0,0.0,0.0,-2.3452,-2.3101,-2.3101,-2.3101,-2.3101,-2.3101,-2.3101,-2.3803,0.0,0.0,0.0,0.0,0.0,0.0,0.0,0.0,0.0,0.0,0.0,0.0,0.0,-4.5,-4.4629,-4.459,-4.5019,-4.4609,-4.418,-4.3711,-4.3281,-4.2656,-4.1816,-4.1797,-4.1582,-4.1172,-4.1172,-4.2273,0.0,0.0,0.0,0.0,-5.2119,-5.2861,-5.2929,-5.2929,-5.2929,-5.2854,-5.2327,-5.2126,-5.2026,-5.1473,-5.1297,-5.1197,-5.0619,-5.0419,-5.0318,-4.9766,-4.9615,-4.9615,-4.9615,-4.9615,-4.9615,-4.959,-4.959,-4.959,-4.959,-4.959,-4.959,-4.959,-4.959,-4.9439,-4.8887,-4.8761,-4.841,-4.733,-4.7068,-4.6928,-4.6401,-4.6301,-4.6301,-4.6301,-4.6301,-4.6301,-4.6301,-4.6301,-4.6075,-4.5547,-4.4945,-4.4392,-4.384,-4.379,-4.3539,-4.3011,-4.2986,-4.2986,-4.2986,-4.2489,-4.2213,-4.2213,-4.1605,-4.1,-4.0526,-4.0501,-4.0224,-3.4274,-3.5025,-3.55,-3.5359,-3.3619,-3.1466,-2.9754,0.0,0.0,-2.3335,-2.3101,-2.3101,-2.3101,-2.3101,-2.3393,-2.4316,-2.4687,0.0,0.0,0.0,0.0,0.0,0.0,0.0,0.0,0.0,0.0,0.0,0.0,0.0,-4.4141,-4.457,-4.4766,-4.4609,-4.3887,-4.3418,-4.3281,-4.2558,-4.207,-4.1797,-4.1504,-4.2047,-4.3207,-4.3207,-4.4977,0.0,0.0,0.0,0.0,-5.2629,-5.2929,-5.2879,-5.2528,-5.2377,-5.2302,-5.1749,-5.1548,-5.1448,-5.0896,-5.0695,-5.0594,-5.0042,-4.9866,-4.9816,-4.964,-4.959,-4.959,-4.959,-4.959,-4.959,-4.959,-4.959,-4.959,-4.959,-4.959,-4.959,-4.959,-4.959,-4.954,-4.9364,-4.9038,-4.8661,-4.8309,-4.7933,-4.7481,-4.6954,-4.6878,-4.6728,-4.6351,-4.6301,-4.6301,-4.6301,-4.5974,-4.5824,-4.6024,-4.5547,-4.5146,-4.497,-4.4242,-4.3714,-4.3539,-4.3162,-4.2986,-4.2986,-4.2489,-4.2213,-4.2213,-4.1605,-4.1,-4.0501,-4.0124,-3.9848,0.0,-3.2712,-3.3161,-3.3281,-3.1696,0.0,0.0,0.0,0.0,0.0,0.0,0.0,0.0,-2.3101,-2.3354,0.0,0.0,0.0,0.0,0.0,0.0,0.0,0.0,0.0,0.0,0.0,0.0,0.0,0.0,0.0,-4.3984,-4.4316,-4.4336,-4.3906,-4.3359,-4.293,-4.2598,-4.207,-4.1719,-4.1562,-4.2027,-4.2922,-4.4096,-4.4827,-4.6955,0.0,0.0,0.0,0.0,-5.2402,-5.2302,-5.2277,-5.1925,-5.18,-5.1724,-5.1172,-5.0946,-5.087,-5.0318,-5.0117,-5.0042,-4.9715,-4.959,-4.959,-4.959,-4.959,-4.959,-4.959,-4.959,-4.959,-4.959,-4.9439,-4.9264,-4.9174,-4.9264,-4.9289,-4.9289,-4.9439,-4.959,-4.959,-4.9314,-4.9012,-4.8812,-4.846,-4.8058,-4.7506,-4.7193,-4.7004,-4.6652,-4.6451,-4.6301,-4.6301,-4.5999,-4.5949,-4.6276,-4.5799,-4.5397,-4.5171,-4.4493,-4.3915,-4.3514,-4.3162,-4.2986,-4.2986,-4.269,-4.2514,-4.2514,-4.1706,-4.1,-4.0501,-3.9948,-3.9697,0.0,0.0,0.0,0.0,0.0,0.0,0.0,0.0,0.0,0.0,0.0,0.0,0.0,0.0,0.0,0.0,0.0,0.0,0.0,0.0,0.0,0.0,0.0,0.0,0.0,0.0,0.0,0.0,0.0,0.0,-4.4258,-4.3887,-4.3457,-4.3008,-4.2988,-4.2598,-4.1816,-4.1777,-4.1641,-4.1463,-4.3207,-4.4247,-4.4602,-4.6345,-4.822,0.0,0.0,0.0,0.0,-5.1548,-5.1322,-5.1272,-5.1247,-5.1222,-5.1147,-5.0569,-5.0368,-5.0293,-4.9766,-4.959,-4.959,-4.959,-4.954,-4.949,-4.9515,-4.9565,-4.959,-4.954,-4.954,-4.954,-4.949,-4.9113,-4.8686,-4.8484,-4.8623,-4.8761,-4.8711,-4.9138,-4.954,-4.954,-4.954,-4.9389,-4.8912,-4.8837,-4.8611,-4.8008,-4.7506,-4.7093,-4.7018,-4.6627,-4.6301,-4.6301,-4.6301,-4.6301,-4.6301,-4.5849,-4.5321,-4.4769,-4.4719,-4.4217,-4.3137,-4.3062,-4.3011,-4.2986,-4.2986,-4.2961,-4.2911,-4.1856,-4.1,-4.0501,-3.9948,-3.9697,-2.6454,0.0,-2.5594,-2.5806,-2.5358,-2.4808,0.0,0.0,0.0,0.0,0.0,0.0,0.0,0.0,0.0,0.0,0.0,0.0,0.0,0.0,0.0,0.0,0.0,0.0,0.0,0.0,0.0,0.0,0.0,-4.3574,-4.293,-4.3105,-4.2871,-4.2129,-4.2109,-4.2012,-4.1797,-4.1484,-4.2007,-4.3435,-4.3869,-4.5701,-4.8627,-4.8589,-4.9717,0.0,0.0,0.0,-5.1498,-5.18,-5.1649,-5.1247,-5.0795,-5.0619,-5.0544,-4.9992,-4.9791,-4.9766,-4.964,-4.959,-4.959,-4.959,-4.9012,-4.8385,-4.8837,-4.9264,-4.9515,-4.9088,-4.8962,-4.895,-4.8838,-4.8435,-4.8021,-4.7708,-4.8234,-4.8661,-4.8209,-4.856,-4.8962,-4.8962,-4.8962,-4.9063,-4.9339,-4.9389,-4.9063,-4.8058,-4.7807,-4.7431,-4.6602,-4.6401,-4.6301,-4.6301,-4.6301,-4.6301,-4.6301,-4.62,-4.605,-4.5924,-4.5522,-4.497,-4.4267,-4.384,-4.3413,-4.2986,-4.2986,-4.2816,-4.2414,-4.1681,-4.1,-4.0501,-3.9948,-3.9697,-2.3239,-2.377,-2.4263,-2.448,-2.4333,-2.4031,0.0,0.0,0.0,0.0,0.0,0.0,0.0,0.0,0.0,0.0,0.0,0.0,0.0,0.0,0.0,0.0,0.0,0.0,0.0,0.0,0.0,0.0,0.0,-4.291,-4.2461,-4.2461,-4.2724,-4.315,-4.2948,-4.2847,-4.2847,-4.2604,-4.3511,-4.5403,-4.6367,-4.7904,-5.0032,-5.0371,-5.1073,0.0,0.0,0.0,-5.0896,-5.0921,-5.077,-5.0469,-5.0167,-4.9891,-4.9615,-4.9314,-4.9063,-4.8812,-4.8812,-4.8812,-4.8812,-4.8812,-4.841,-4.7958,-4.8284,-4.8586,-4.8761,-4.846,-4.8385,-4.8397,-4.8233,-4.7869,-4.7544,-4.7633,-4.8021,-4.8284,-4.7983,-4.836,-4.8761,-4.8761,-4.8761,-4.8937,-4.949,-4.959,-4.9389,-4.8786,-4.8234,-4.7782,-4.7481,-4.6778,-4.6401,-4.6652,-4.6451,-4.6301,-4.6301,-4.6301,-4.61,-4.5573,-4.5246,-4.4844,-4.4267,-4.3714,-4.3288,-4.2986,-4.2791,-4.2333,-4.1781,-4.1229,-4.0676,-4.0124,-3.9848,-3.9697,-2.1054,-2.2872,-2.4689,-2.4944,-2.463,-2.4179,0.0,0.0,0.0,0.0,0.0,0.0,0.0,0.0,0.0,0.0,0.0,0.0,0.0,0.0,0.0,0.0,0.0,0.0,0.0,0.0,0.0,0.0,0.0,-4.2604,-4.2246,-4.2191,-4.2893,-4.4586,-4.4588,-4.4635,-4.4849,-4.4635,-4.55,-4.749,-4.9153,-5.0198,-5.0457,-5.1544,-5.1975,-5.1925,0.0,0.0,-5.0268,-4.9866,-4.9665,-4.959,-4.9515,-4.9188,-4.8761,-4.8686,-4.8335,-4.7908,-4.7908,-4.7857,-4.7807,-4.7883,-4.7807,-4.7682,-4.7757,-4.7732,-4.7657,-4.7657,-4.7732,-4.7782,-4.7682,-4.7405,-4.7255,-4.7707,-4.7857,-4.7908,-4.7908,-4.8284,-4.8661,-4.8761,-4.8761,-4.8937,-4.949,-4.959,-4.9565,-4.949,-4.8586,-4.8058,-4.846,-4.723,-4.6502,-4.6954,-4.6602,-4.6301,-4.6301,-4.6301,-4.5874,-4.4819,-4.4844,-4.4593,-4.394,-4.3388,-4.3062,-4.2986,-4.2489,-4.1882,-4.1275,-4.0724,-4.0224,-3.9697,-3.9697,-3.9697,-2.0976,-2.2002,-2.2629,-2.1649,-2.1571,-2.1747,-2.1668,0.0,0.0,0.0,0.0,0.0,0.0,0.0,0.0,0.0,0.0,0.0,0.0,0.0,0.0,0.0,0.0,0.0,0.0,0.0,0.0,0.0,0.0,-4.3437,-4.1465,-4.2912,-4.3898,-4.4201,-4.5744,-4.7118,-4.8333,-4.7191,-4.754,-4.9534,-4.9819,-5.0857,-5.2441,-5.174,-5.1398,-5.1373,0.0,-5.0142,-4.9741,-5.0117,-5.0017,-4.954,-4.9088,-4.8837,-4.8711,-4.8209,-4.7983,-4.7908,-4.7908,-4.7631,-4.733,-4.7757,-4.7305,-4.6652,-4.7104,-4.6928,-4.6552,-4.6552,-4.6903,-4.7154,-4.6677,-4.6853,-4.7179,-4.7453,-4.7693,-4.7908,-4.7908,-4.7983,-4.8184,-4.8686,-4.8761,-4.8937,-4.949,-4.959,-4.9439,-4.8962,-4.8335,-4.7782,-4.7431,-4.6753,-4.6351,-4.6426,-4.6351,-4.6301,-4.6301,-4.6301,-4.6024,-4.5397,-4.5799,-4.5598,-4.4543,-4.3966,-4.3463,-4.2986,-4.2489,-4.1882,-4.1275,-4.0724,-4.0224,-3.9697,-3.9697,-3.9697,-2.0703,-2.1328,-2.1738,-2.1367,-2.1953,-2.2559,-2.2282,0.0,0.0,0.0,0.0,0.0,0.0,0.0,0.0,0.0,0.0,0.0,0.0,0.0,0.0,0.0,0.0,0.0,0.0,0.0,0.0,0.0,0.0,0.0,-4.4419,-4.5201,-4.6146,-4.7248,-4.7869,-4.8992,-5.0705,-4.9803,-4.9779,-5.0725,-5.0725,-5.116,-5.2026,-5.1197,-5.082,-5.077,0.0,-4.9389,-4.9138,-4.9088,-4.8912,-4.8661,-4.841,-4.8134,-4.7807,-4.7255,-4.7054,-4.7054,-4.7054,-4.6878,-4.6728,-4.6979,-4.6702,-4.6351,-4.6602,-4.6502,-4.6301,-4.6301,-4.6502,-4.6627,-4.6376,-4.6502,-4.6853,-4.7767,-4.7957,-4.7983,-4.8309,-4.8385,-4.846,-4.8711,-4.8761,-4.8937,-4.949,-4.959,-4.9515,-4.9264,-4.8736,-4.8284,-4.8058,-4.728,-4.6753,-4.6753,-4.6502,-4.6301,-4.6301,-4.6301,-4.5949,-4.507,-4.5271,-4.4895,-4.379,-4.379,-4.3539,-4.2986,-4.2489,-4.1882,-4.1275,-4.0724,-4.0224,-3.9697,-3.9697,-3.9697,-2.0547,-2.1055,-2.1465,-2.1797,0.0,-2.3398,-2.3555,0.0,0.0,0.0,0.0,0.0,0.0,0.0,0.0,0.0,0.0,0.0,0.0,0.0,0.0,0.0,0.0,0.0,0.0,0.0,0.0,0.0,0.0,0.0,-4.6872,-4.7214,-4.8108,-4.9534,-4.9643,-5.0299,-5.1699,-5.1172,-5.1021,-5.1272,-5.1147,-5.1147,-5.1247,-5.0419,-5.0092,-5.0167,-4.9063,-4.856,-4.8535,-4.8083,-4.7908,-4.7908,-4.7782,-4.7405,-4.6878,-4.6476,-4.6301,-4.6301,-4.6301,-4.6301,-4.6301,-4.6301,-4.6301,-4.6301,-4.6301,-4.6301,-4.6301,-4.6301,-4.6301,-4.6301,-4.6301,-4.6316,-4.6592,-4.773,-4.7945,-4.8058,-4.8661,-4.8761,-4.8812,-4.8937,-4.8962,-4.9113,-4.9515,-4.959,-4.9565,-4.9414,-4.8937,-4.851,-4.841,-4.7531,-4.6892,-4.6892,-4.6577,-4.6301,-4.6301,-4.6301,-4.5824,-4.4694,-4.4618,-4.4242,-4.3388,-4.3639,-4.3539,-4.2986,-4.2489,-4.1882,-4.1275,-4.0724,-4.0224,-3.9697,-3.9697,-3.9697,-2.084,-2.1504,-2.1855,-2.1875,-2.1953,0.0,-2.4538,-2.4609,0.0,0.0,0.0,0.0,0.0,0.0,0.0,0.0,0.0,0.0,0.0,0.0,0.0,0.0,0.0,0.0,0.0,0.0,0.0,0.0,0.0,0.0,-4.6379,-4.8003,-4.8777,-4.8442,-5.0198,-5.0938,-5.0544,-4.9992,-5.0243,-5.1272,-5.0745,-5.077,-5.1222,-4.9615,-4.9163,-4.959,-4.846,-4.7958,-4.7958,-4.7933,-4.7908,-4.7857,-4.738,-4.6853,-4.6376,-4.6326,-4.6301,-4.6301,-4.6301,-4.6301,-4.6301,-4.6301,-4.6301,-4.6301,-4.6301,-4.6301,-4.6301,-4.6301,-4.6301,-4.6301,-4.6301,-4.6284,-4.6314,-4.645,-4.7159,-4.8058,-4.8661,-4.8761,-4.8912,-4.9439,-4.954,-4.954,-4.959,-4.959,-4.9414,-4.8912,-4.8335,-4.7782,-4.7305,-4.6728,-4.6376,-4.6376,-4.6326,-4.6301,-4.6301,-4.6301,-4.5824,-4.4694,-4.4618,-4.4593,-4.4518,-4.4041,-4.3539,-4.2986,-4.2489,-4.1882,-4.1275,-4.0724,-4.0224,-3.9697,-3.9697,-3.9697,-2.0605,-2.1348,-2.1953,-2.2207,0.0,0.0,0.0,0.0,0.0,0.0,0.0,0.0,0.0,0.0,0.0,0.0,0.0,0.0,0.0,0.0,0.0,0.0,0.0,0.0,0.0,0.0,0.0,0.0,0.0,0.0,-4.9463,-5.0079,-5.0413,-5.0192,-5.0564,-5.0469,-4.9916,-4.9364,-4.9113,-4.9188,-4.8962,-4.8962,-4.9163,-4.851,-4.836,-4.851,-4.7757,-4.7431,-4.738,-4.6677,-4.6602,-4.6903,-4.6702,-4.6502,-4.6301,-4.6301,-4.6301,-4.6301,-4.6301,-4.6301,-4.6301,-4.6301,-4.6301,-4.6301,-4.6301,-4.6301,-4.6301,-4.6301,-4.6301,-4.6301,-4.6301,-4.628,-4.6395,-4.6745,-4.7107,-4.7581,-4.8109,-4.851,-4.8837,-4.9038,-4.9364,-4.949,-4.9138,-4.9088,-4.8887,-4.8309,-4.8058,-4.7732,-4.7143,-4.6892,-4.6702,-4.6351,-4.6301,-4.6301,-4.6301,-4.5999,-4.5623,-4.5196,-4.4819,-4.4317,-4.3639,-4.3388,-4.3187,-4.2986,-4.2816,-4.2233,-4.1275,-4.1075,-4.0576,-3.9697,-3.9697,-3.9697,-2.0234,-2.0801,-2.1367,0.0,0.0,0.0,0.0,0.0,0.0,0.0,0.0,0.0,0.0,0.0,0.0,0.0,0.0,0.0,0.0,0.0,0.0,0.0,0.0,0.0,0.0,0.0,0.0,0.0,0.0,0.0,0.0,-5.0745,-5.0594,-5.0218,-4.9841,-4.9439,-4.9063,-4.851,-4.7958,-4.7405,-4.723,-4.7405,-4.7908,-4.7556,-4.7506,-4.7631,-4.6928,-4.6602,-4.6552,-4.5598,-4.5547,-4.605,-4.605,-4.615,-4.6276,-4.6125,-4.605,-4.605,-4.605,-4.605,-4.6075,-4.625,-4.6301,-4.6301,-4.6301,-4.6301,-4.6301,-4.6301,-4.6301,-4.6301,-4.6301,-4.6301,-4.6401,-4.6778,-4.7004,-4.728,-4.7782,-4.836,-4.8812,-4.8987,-4.9339,-4.9414,-4.8862,-4.8761,-4.851,-4.7782,-4.7657,-4.7481,-4.6954,-4.6878,-4.6728,-4.6351,-4.6301,-4.6301,-4.6301,-4.5799,-4.5422,-4.5221,-4.4694,-4.4016,-4.3263,-4.3062,-4.2886,-4.2766,-4.2766,-4.2183,-4.1025,-4.1025,-4.0601,-3.9697,-3.9697,-3.9697,-1.9805,-1.9922,0.0,0.0,0.0,0.0,0.0,0.0,0.0,0.0,0.0,0.0,0.0,0.0,0.0,0.0,0.0,0.0,0.0,0.0,0.0,0.0,0.0,0.0,0.0,0.0,0.0,0.0,0.0,0.0,0.0,-4.9565,-4.9063,-4.7933,-4.7908,-4.7908,-4.7883,-4.738,-4.6853,-4.6301,-4.5748,-4.6326,-4.7832,-4.6778,-4.6602,-4.6993,-4.5949,-4.5472,-4.5447,-4.4869,-4.497,-4.5472,-4.5472,-4.5824,-4.6225,-4.5673,-4.5472,-4.5472,-4.5472,-4.5472,-4.5573,-4.6125,-4.6301,-4.6301,-4.6301,-4.6301,-4.6301,-4.6301,-4.6301,-4.6301,-4.6301,-4.6301,-4.6301,-4.6301,-4.6728,-4.7255,-4.7782,-4.836,-4.8912,-4.9464,-4.9565,-4.9414,-4.8862,-4.8761,-4.8385,-4.728,-4.7068,-4.6928,-4.6376,-4.6301,-4.6301,-4.6301,-4.6301,-4.6301,-4.6301,-4.5799,-4.5221,-4.4644,-4.4091,-4.379,-4.379,-4.3263,-4.2766,-4.2238,-4.2213,-4.163,-4.0526,-4.0526,-4.0224,-3.9697,-3.9697,-3.9697,-2.0254,0.0,0.0,0.0,0.0,0.0,0.0,0.0,0.0,0.0,0.0,0.0,0.0,0.0,0.0,0.0,0.0,0.0,0.0,0.0,0.0,0.0,0.0,0.0,0.0,0.0,0.0,0.0,0.0,0.0,0.0,-4.7857,-4.7531,-4.6803,-4.7154,-4.7179,-4.6778,-4.6627,-4.6276,-4.5723,-4.5146,-4.5146,-4.5598,-4.5271,-4.5221,-4.5347,-4.502,-4.4895,-4.4869,-4.4694,-4.4493,-4.4342,-4.4719,-4.497,-4.5095,-4.4945,-4.4895,-4.4895,-4.4895,-4.4895,-4.497,-4.5354,-4.5858,-4.6298,-4.6311,-4.6301,-4.6301,-4.6301,-4.6301,-4.6301,-4.6301,-4.6301,-4.6301,-4.6301,-4.6426,-4.6602,-4.6753,-4.723,-4.7657,-4.7832,-4.8159,-4.8234,-4.7707,-4.7606,-4.738,-4.6652,-4.6552,-4.6502,-4.6326,-4.6301,-4.6301,-4.6301,-4.6301,-4.615,-4.5773,-4.5196,-4.4644,-4.4091,-4.3539,-4.3212,-4.3212,-4.3062,-4.2911,-4.2791,-4.2414,-4.1806,-4.105,-4.0701,-4.0224,-3.9697,-3.9697,-3.9697,-2.0137,0.0,0.0,0.0,0.0,0.0,0.0,0.0,0.0,0.0,0.0,0.0,0.0,0.0,0.0,0.0,0.0,0.0,0.0,0.0,0.0,0.0,0.0,0.0,0.0,0.0,0.0,0.0,0.0,0.0,0.0,-4.6602,-4.6225,-4.5648,-4.5974,-4.5974,-4.5648,-4.5648,-4.5372,-4.4819,-4.4242,-4.3865,-4.3664,-4.4317,-4.4618,-4.4618,-4.4392,-4.4041,-4.3664,-4.389,-4.3765,-4.3539,-4.4091,-4.4443,-4.4593,-4.4367,-4.4292,-4.4292,-4.4292,-4.4317,-4.4475,-4.4861,-4.5574,-4.6265,-4.6289,-4.632,-4.6301,-4.6301,-4.6301,-4.6301,-4.6301,-4.6301,-4.6301,-4.6301,-4.6301,-4.6376,-4.6602,-4.6903,-4.7143,-4.7405,-4.7682,-4.7732,-4.723,-4.7068,-4.6954,-4.6401,-4.6301,-4.6301,-4.6301,-4.6125,-4.5974,-4.5974,-4.5773,-4.5497,-4.5171,-4.4618,-4.4141,-4.3815,-4.3288,-4.2886,-4.2715,-4.2861,-4.276,-4.2333,-4.2007,-4.1455,-4.0676,-4.035,-4.0023,-3.9697,-3.9697,-3.9697,0.0,0.0,0.0,0.0,0.0,0.0,0.0,0.0,0.0,0.0,0.0,0.0,0.0,0.0,0.0,0.0,0.0,0.0,0.0,0.0,0.0,0.0,0.0,0.0,0.0,0.0,0.0,0.0,0.0,0.0,0.0,-4.5472,-4.492,-4.4342,-4.4367,-4.4392,-4.4392,-4.4392,-4.4141,-4.3639,-4.3087,-4.2559,-4.2187,-4.3639,-4.4317,-4.4292,-4.379,-4.3011,-4.2187,-4.261,-4.2836,-4.2886,-4.3438,-4.3966,-4.4342,-4.389,-4.374,-4.374,-4.374,-4.3822,-4.4029,-4.4367,-4.5195,-4.6037,-4.6113,-4.6137,-4.609,-4.6225,-4.6225,-4.625,-4.6301,-4.6301,-4.6301,-4.6301,-4.6301,-4.6451,-4.6892,-4.7054,-4.7205,-4.7682,-4.7757,-4.7606,-4.7129,-4.7054,-4.6878,-4.6376,-4.6301,-4.6301,-4.625,-4.5799,-4.5472,-4.5422,-4.4945,-4.4593,-4.4543,-4.4091,-4.379,-4.374,-4.3263,-4.2791,-4.2238,-4.269,-4.2409,-4.13,-4.1225,-4.0777,-3.9772,-3.9722,-3.9697,-3.9697,-3.9697,-3.9697,0.0,0.0,0.0,0.0,0.0,0.0,0.0,0.0,0.0,0.0,0.0,0.0,0.0,0.0,0.0,0.0,0.0,0.0,0.0,0.0,0.0,0.0,0.0,0.0,0.0,0.0,0.0,0.0,0.0,0.0,-4.3714,-4.3218,-4.261,-4.2003,-4.2459,-4.274,-4.274,-4.274,-4.269,0.0,-4.1957,-4.163,-4.153,-4.1827,-4.2003,-4.1978,-4.1877,-4.1731,-4.153,-4.1656,-4.1706,-4.1756,-4.2283,-4.264,-4.2766,-4.3037,-4.3162,-4.3162,-4.3162,-4.3218,-4.3237,-4.333,-4.3497,-4.3861,-4.4694,-4.4786,-4.4711,-4.5438,-4.5673,-4.5773,-4.62,-4.6301,-4.6301,-4.6301,-4.6301,-4.6351,-4.6451,-4.6502,-4.6527,-4.6627,-4.6652,-4.6627,-4.6502,-4.6502,-4.6451,-4.6326,-4.6301,-4.615,-4.5723,-4.5573,-4.5321,-4.4844,-4.4694,-4.4443,-4.4016,-4.3865,-4.3614,-4.3187,-4.3037,-4.2791,-4.2238,-4.2313,-4.2007,-4.13,-4.0902,-4.0576,-4.035,-3.9898,-3.9697,-3.9697,-3.9697,-3.9697,0.0,0.0,0.0,0.0,0.0,0.0,0.0,0.0,0.0,0.0,0.0,0.0,0.0,0.0,0.0,0.0,0.0,0.0,0.0,0.0,0.0,0.0,0.0,0.0,0.0,0.0,0.0,0.0,0.0,-4.2886,-4.2665,-4.2057,-4.163,-4.13,-4.163,-4.1756,-4.1756,-4.1756,-4.1756,-4.1756,-4.1204,-4.0802,-4.0576,-4.105,-4.1275,-4.1275,-4.1275,-4.1125,-4.0924,-4.1175,-4.1125,-4.1003,-4.1555,-4.1932,-4.2238,-4.2539,-4.2816,-4.2986,-4.2986,-4.2986,-4.3011,-4.3019,-4.2999,-4.3166,-4.4059,-4.4335,-4.4419,-4.4911,-4.507,-4.5146,-4.5422,-4.5698,-4.5849,-4.5573,-4.5924,-4.6225,-4.5974,-4.6125,-4.6225,-4.5974,-4.6125,-4.6301,-4.6301,-4.61,-4.5924,-4.5924,-4.5673,-4.5397,-4.5121,-4.4844,-4.4568,-4.4267,-4.3991,-4.3714,-4.3438,-4.3413,-4.3288,-4.2986,-4.2986,-4.261,-4.1806,-4.1756,-4.1505,-4.0953,-4.0651,-4.0375,-4.0124,-3.9848,-3.9697,-3.9697,-3.9697,-3.9697,0.0,0.0,0.0,0.0,0.0,0.0,0.0,0.0,0.0,0.0,0.0,0.0,0.0,0.0,0.0,0.0,0.0,0.0,0.0,0.0,0.0,0.0,0.0,0.0,0.0,0.0,0.0,0.0,0.0,-4.1936,-4.1936,-4.1354,-4.0949,-4.0874,-4.1003,-4.0949,-4.0902,-4.0949,-4.1,-4.1,-4.0601,-4.0149,-3.9722,-4.0651,-4.1,-4.1,-4.1,-4.0802,-4.04,-4.0824,-4.0724,-4.0425,-4.0924,-4.148,-4.1936,-4.2062,-4.2439,-4.2836,-4.2942,-4.2992,-4.2986,-4.2986,-4.2994,-4.3099,-4.3746,-4.4073,-4.4367,-4.4443,-4.4493,-4.4493,-4.4593,-4.497,-4.5221,-4.4744,-4.5347,-4.5899,-4.5447,-4.5698,-4.5874,-4.5422,-4.5698,-4.6024,-4.6024,-4.5648,-4.5347,-4.5347,-4.4945,-4.4593,-4.4493,-4.4091,-4.3765,-4.3664,-4.3237,-4.2986,-4.2986,-4.2986,-4.2986,-4.2986,-4.2986,-4.2534,-4.153,-4.1351,-4.1025,-4.0526,-4.0425,-4.0149,-3.9697,-3.9697,-3.9697,-3.9697,-3.9697,-3.9697,0.0,0.0,0.0,0.0,0.0,0.0,0.0,0.0,0.0,0.0,0.0,0.0,0.0,0.0,0.0,0.0,0.0,0.0,0.0,0.0,0.0,0.0,0.0,0.0,0.0,0.0,0.0,0.0,-4.1003,-4.0727,-4.0727,-4.0224,-3.9697,-3.922,-3.9672,-3.9697,-3.922,-3.9672,-3.9923,-3.9923,-3.9848,-3.9772,-3.9697,-3.9848,-3.9923,-3.9923,-3.9923,-3.9873,-3.9798,-3.9873,-3.9873,-3.9848,-4.04,-4.0676,-4.0802,-4.1645,-4.199,-4.2128,-4.2789,-4.3012,-4.2986,-4.2986,-4.3011,-4.3006,-4.3143,-4.3218,-4.3288,-4.379,-4.3915,-4.4016,-4.4493,-4.4694,-4.4719,-4.4644,-4.4744,-4.4819,-4.4744,-4.4794,-4.4819,-4.4744,-4.4794,-4.4844,-4.4844,-4.4794,-4.4744,-4.4744,-4.4669,-4.4443,-4.3966,-4.384,-4.3614,-4.3137,-4.3011,-4.2986,-4.2986,-4.2986,-4.2986,-4.2986,-4.2986,-4.2685,-4.2137,-4.1605,-4.1025,-4.0526,-4.0049,-3.9772,-3.9697,-3.9697,-3.9697,-3.9697,-3.9697,-3.9697,0.0,0.0,0.0,0.0,0.0,0.0,0.0,0.0,0.0,0.0,0.0,0.0,0.0,0.0,0.0,0.0,0.0,0.0,0.0,0.0,0.0,0.0,0.0,0.0,0.0,0.0,0.0,0.0,-3.9747,-3.9446,-3.912,-3.8894,-3.8642,-3.8391,-3.8617,-3.8642,-3.8391,-3.8617,-3.8743,-3.8743,-3.8743,-3.8743,-3.8768,-3.9094,-3.9396,-3.9697,-3.9697,-3.9697,-3.9697,-3.9697,-3.9697,-3.9722,-3.9948,-4.0327,-4.0732,-4.0983,-4.1333,-4.1626,-4.2178,-4.2225,-4.2108,-4.2304,-4.2379,-4.2454,-4.2861,-4.2986,-4.3037,-4.3263,-4.3338,-4.3388,-4.3639,-4.394,-4.4091,-4.3765,-4.394,-4.4091,-4.3765,-4.4192,-4.4618,-4.4618,-4.4618,-4.4618,-4.4618,-4.4367,-4.4166,-4.4166,-4.389,-4.3614,-4.3363,-4.3338,-4.3237,-4.3011,-4.2986,-4.2986,-4.2986,-4.2986,-4.2986,-4.2986,-4.2986,-4.2791,-4.2238,-4.1932,-4.1379,-4.0526,-3.9973,-3.9697,-3.9697,-3.9697,-3.9697,-3.9697,-3.9697,-3.9697,0.0,0.0,0.0,0.0,0.0,0.0,0.0,0.0,0.0,0.0,0.0,0.0,0.0,0.0,0.0,0.0,0.0,0.0,0.0,0.0,0.0,0.0,0.0,0.0,0.0,0.0,0.0,0.0,-3.8642,-3.8467,-3.804,-3.8015,-3.7939,-3.7789,-3.7939,-3.7939,-3.7789,-3.7939,-3.8015,-3.8015,-3.8015,-3.8015,-3.8015,-3.8467,-3.8868,-3.927,-3.9572,-3.9697,-3.9697,-3.9697,-3.9697,-3.9697,-3.9697,-4.005,-4.0505,-4.0325,-4.0573,-4.0971,-4.144,-4.1436,-4.1247,-4.1622,-4.1747,-4.1823,-4.2409,-4.266,-4.2816,-4.2816,-4.2861,-4.2986,-4.2986,-4.3288,-4.3489,-4.3087,-4.3288,-4.3489,-4.3062,-4.3639,-4.4192,-4.4192,-4.4192,-4.4192,-4.4192,-4.3865,-4.3589,-4.3589,-4.3237,-4.2986,-4.2986,-4.2986,-4.2986,-4.2986,-4.2986,-4.2986,-4.2986,-4.2986,-4.2986,-4.2986,-4.2986,-4.2785,-4.2439,-4.2288,-4.1706,-4.0752,-4.0199,-3.9848,-3.9697,-3.9697,-3.9697,-3.9697,-3.9697,-3.9697,0.0,0.0,0.0,0.0,0.0,0.0,0.0,0.0,0.0,0.0,0.0,0.0,0.0,0.0,0.0,0.0,0.0,0.0,0.0,0.0,0.0,0.0,0.0,0.0,0.0,0.0,0.0,0.0,-3.804,-3.804,-3.8015,-3.8015,-3.7764,-3.7236,-3.7739,-3.7764,-3.7236,-3.7739,-3.8015,-3.8015,-3.8015,-3.8015,-3.8015,-3.804,-3.8065,-3.814,-3.922,-3.9697,-3.9697,-3.9697,-3.9697,-3.9697,-3.9697,-3.9722,-3.9747,-3.9747,-3.974,-3.9879,-4.0576,-4.0824,-4.091,-4.1222,-4.1326,-4.1326,-4.1351,-4.1781,-4.2263,-4.2263,-4.264,-4.2986,-4.2986,-4.3011,-4.3011,-4.2986,-4.3011,-4.3011,-4.2986,-4.3011,-4.3062,-4.3062,-4.3062,-4.3062,-4.3062,-4.3037,-4.3011,-4.3011,-4.2986,-4.2986,-4.2986,-4.2986,-4.2986,-4.2986,-4.2986,-4.2986,-4.2986,-4.2986,-4.2986,-4.2986,-4.2986,-4.2961,-4.2936,-4.2489,-4.1882,-4.125,-4.0752,-4.0224,-3.9697,-3.9697,-3.9697,-3.9697,-3.9697,-3.9697,0.0,0.0,0.0,0.0,0.0,0.0,0.0,0.0,0.0,0.0,0.0,0.0,0.0,0.0,0.0,0.0,0.0,0.0,0.0,0.0,0.0,0.0,0.0,0.0,0.0,0.0,0.0,0.0,0.0,-3.6386,-3.6386,-3.6081,-3.5956,-3.6085,-3.5981,-3.5805,-3.5604,-3.5805,-3.5906,-3.5906,-3.5906,-3.6009,-3.6288,-3.6784,-3.6964,-3.702,-3.8116,-3.8818,-3.9195,-3.9546,-3.9697,-3.9697,-3.9697,-3.9697,-3.9697,-3.9697,-3.9721,-3.9742,-3.9998,-4.0099,-4.017,-4.0623,-4.0802,-4.0824,-4.1175,-4.148,-4.1706,-4.2112,-4.2363,-4.259,-4.2886,-4.2986,-4.2986,-4.2986,-4.2986,-4.2986,-4.2986,-4.2986,-4.2986,-4.2986,-4.2986,-4.2986,-4.2986,-4.2986,-4.2986,-4.2986,-4.2986,-4.2986,-4.2986,-4.2986,-4.2986,-4.2986,-4.2986,-4.2986,-4.2986,-4.2986,-4.2986,-4.2986,-4.2986,-4.2986,-4.2986,-4.2841,-4.2258,-4.13,-4.11,-4.0601,-3.9697,-3.9697,-3.9697,-3.9697,-3.9697,-3.9697,0.0,0.0,0.0,0.0,0.0,0.0,0.0,0.0,0.0,0.0,0.0,0.0,0.0,0.0,0.0,0.0,0.0,0.0,0.0,0.0,0.0,0.0,0.0,0.0,0.0,0.0,0.0,0.0,0.0,0.0,-3.5232,-3.4881,-3.4831,-3.5207,-3.4881,-3.468,-3.468,-3.468,-3.468,-3.468,-3.4821,-3.5022,-3.5328,-3.6071,-3.638,-3.6441,-3.7166,-3.7891,-3.8617,-3.9195,-3.9396,-3.9345,-3.9597,-3.9697,-3.9697,-3.9697,-3.9697,-3.9697,-3.9697,-3.9697,-3.9747,-4.0124,-4.0249,-4.03,-4.0676,-4.0874,-4.1153,-4.1505,-4.1911,-4.2263,-4.2384,-4.2559,-4.2816,-4.2936,-4.2986,-4.2986,-4.2986,-4.2986,-4.2986,-4.2986,-4.2986,-4.2986,-4.2986,-4.2986,-4.2986,-4.2986,-4.2986,-4.2986,-4.2986,-4.2986,-4.2986,-4.2986,-4.2986,-4.2986,-4.2986,-4.2986,-4.2986,-4.2986,-4.2811,-4.2766,-4.2766,-4.2534,-4.2007,-4.1025,-4.1,-4.0601,-3.9697,-3.9697,-3.9697,-3.9697,-3.9697,-3.9697,0.0,0.0,0.0,0.0,0.0,0.0,0.0,0.0,0.0,0.0,0.0,0.0,0.0,0.0,0.0,0.0,0.0,0.0,0.0,0.0,0.0,0.0,0.0,0.0,0.0,0.0,0.0,0.0,-3.4675,-3.4605,-3.4675,-3.4675,-3.465,-3.4625,-3.465,-3.463,-3.465,-3.463,-3.4675,-3.4675,-3.5052,-3.5243,-3.5269,-3.5994,-3.6345,-3.6349,-3.6368,-3.697,-3.799,-3.8592,-3.8743,-3.8692,-3.937,-3.9672,-3.9672,-3.9697,-3.9697,-3.9697,-3.9697,-3.9697,-3.9697,-3.9697,-3.9697,-3.9697,-3.9697,-4.0074,-4.0501,-4.0501,-4.1279,-4.2037,-4.148,-4.1731,-4.2313,-4.2866,-4.2961,-4.2961,-4.2986,-4.2986,-4.2986,-4.2986,-4.2986,-4.2986,-4.2986,-4.2986,-4.2986,-4.2986,-4.2986,-4.2961,-4.2961,-4.2961,-4.2961,-4.2961,-4.2961,-4.2961,-4.2986,-4.2986,-4.2986,-4.2986,-4.2514,-4.2213,-4.2213,-4.163,-4.1025,-4.0526,-4.0526,-4.0249,-3.9697,-3.9697,-3.9697,-3.9697,-3.9697,-3.9697,-2.4155,0.0,0.0,0.0,0.0,0.0,0.0,0.0,0.0,0.0,0.0,0.0,0.0,0.0,0.0,0.0,0.0,0.0,0.0,0.0,0.0,0.0,0.0,0.0,0.0,0.0,0.0,0.0,-3.337,-3.3093,-3.352,-3.352,-3.3144,-3.234,-3.3093,-3.3319,-3.2918,-3.3319,-3.352,-3.352,-3.3658,-3.3721,-3.3707,-3.449,-3.494,-3.5223,-3.6041,-3.6561,-3.6885,-3.7591,-3.8166,-3.8641,-3.8969,-3.9094,-3.9145,-3.9546,-3.9697,-3.9697,-3.9697,-3.9697,-3.9697,-3.9697,-3.9697,-3.9697,-3.9697,-3.9798,-3.9998,-4.04,-4.0727,-4.1028,-4.1225,-4.1401,-4.1706,-4.2313,-4.2439,-4.2539,-4.2886,-4.2986,-4.2986,-4.2986,-4.2986,-4.2986,-4.2986,-4.2986,-4.2986,-4.2986,-4.2986,-4.2891,-4.2489,-4.2439,-4.2439,-4.2439,-4.2439,-4.259,-4.2936,-4.2986,-4.2986,-4.2986,-4.2514,-4.2213,-4.2213,-4.163,-4.1025,-4.0526,-4.0526,-4.0249,-3.9697,-3.9697,-3.9697,-3.9697,-3.9697,-3.9697,-2.4205,-2.3753,0.0,0.0,0.0,0.0,-2.423,-2.4657,0.0,0.0,0.0,0.0,0.0,0.0,0.0,0.0,0.0,0.0,0.0,0.0,0.0,0.0,0.0,0.0,0.0,-3.2742,-3.2516,-3.2817,-3.224,-3.2014,-3.234,-3.2365,-3.2064,-3.1411,-3.2039,-3.2215,-3.1863,-3.2441,-3.2717,-3.2649,-3.2943,-3.3082,-3.3134,-3.4,-3.476,-3.5445,-3.6103,-3.6405,-3.6455,-3.6864,-3.729,-3.7739,-3.8567,-3.8843,-3.8843,-3.9471,-3.9697,-3.9697,-3.9697,-3.9697,-3.9697,-3.9697,-3.9697,-3.9697,-3.9697,-3.9697,-3.9772,-4.0074,-4.0174,-4.035,-4.1075,-4.1125,-4.1128,-4.1681,-4.1806,-4.1957,-4.2564,-4.269,-4.271,-4.2936,-4.2986,-4.2986,-4.2986,-4.2986,-4.2986,-4.2986,-4.2986,-4.2841,-4.2288,-4.2414,-4.2363,-4.1856,-4.2233,-4.259,-4.269,-4.2836,-4.2986,-4.2986,-4.2514,-4.2112,-4.1831,-4.1279,-4.0727,-4.0199,-4.0174,-4.0023,-3.9697,-3.9697,-3.9697,-3.9697,-3.9697,-3.9697,-2.4431,-2.418,-2.4255,-2.46,0.0,0.0,-2.4424,-2.4356,-2.4205,0.0,0.0,0.0,0.0,0.0,0.0,0.0,0.0,0.0,0.0,0.0,0.0,0.0,0.0,0.0,-3.1386,-3.1386,-3.1361,-3.1311,-3.1311,-3.1286,-3.121,-3.126,-3.1286,-3.121,-3.126,-3.1311,-3.1311,-3.1913,-3.2148,-3.2014,-3.2724,-3.3111,-3.3162,-3.4173,-3.5218,-3.6296,-3.6358,-3.638,-3.6405,-3.6405,-3.6391,-3.6525,-3.8091,-3.8592,-3.8567,-3.9346,-3.9597,-3.9622,-3.9672,-3.9697,-3.9697,-3.9697,-3.9697,-3.9697,-3.9697,-3.9697,-3.9697,-3.9697,-3.9697,-3.9923,-4.0849,-4.0802,-4.0576,-4.1075,-4.12,-4.1404,-4.2087,-4.2162,-4.2288,-4.2841,-4.2886,-4.2861,-4.2811,-4.2785,-4.2811,-4.2886,-4.2886,-4.2685,-4.2187,-4.2484,-4.2409,-4.13,-4.2133,-4.2534,-4.2162,-4.2509,-4.2811,-4.2942,-4.2414,-4.1856,-4.13,-4.0749,-4.0249,-3.9697,-3.9697,-3.9697,-3.9697,-3.9697,-3.9697,-3.9697,-3.9697,-3.9697,-2.5234,-2.5285,0.0,0.0,0.0,0.0,-2.3797,-2.4048,-2.4525,0.0,0.0,0.0,0.0,0.0,0.0,0.0,0.0,0.0,0.0,0.0,0.0,0.0,0.0,0.0,-3.1386,-3.1386,-3.121,-3.0809,-3.0758,-3.0583,-3.0131,-3.0532,-3.0557,-3.0131,-3.0532,-3.0758,-3.0758,-3.1738,-3.2215,-3.2173,-3.2792,-3.3111,-3.3136,-3.3909,-3.4768,-3.5556,-3.6146,-3.6413,-3.6405,-3.6405,-3.6408,-3.6486,-3.7236,-3.7513,-3.7613,-3.8642,-3.9044,-3.9094,-3.9546,-3.9697,-3.9697,-3.9697,-3.9697,-3.9697,-3.9697,-3.9697,-3.9697,-3.9697,-3.9697,-3.9747,-3.9948,-3.9923,-3.9998,-4.0551,-4.0676,-4.0953,-4.1986,-4.1806,-4.1656,-4.2263,-4.2363,-4.2183,-4.1731,-4.1601,-4.1806,-4.2313,-4.2363,-4.2108,-4.1555,-4.1605,-4.1351,-4.0752,-4.0877,-4.1128,-4.148,-4.1551,-4.1856,-4.2338,-4.1806,-4.1401,-4.1275,-4.0749,-4.0249,-3.9697,-3.9697,-3.9697,-3.9697,-3.9697,-3.9697,-3.9697,-3.9697,-3.9697,0.0,0.0,0.0,-2.4933,0.0,0.0,0.0,-2.4173,-2.433,0.0,0.0,0.0,0.0,0.0,0.0,0.0,0.0,0.0,0.0,0.0,0.0,0.0,0.0,0.0,-2.9352,-2.9829,-3.0181,-3.0206,-3.0206,-3.008,-2.9804,-3.0055,-3.008,-2.9804,-3.0055,-3.0206,-3.0206,-3.1009,-3.1543,-3.1792,-3.2399,-3.2802,-3.3123,-3.3752,-3.4256,-3.4653,-3.5537,-3.5945,-3.5981,-3.6304,-3.6405,-3.6455,-3.696,-3.7186,-3.7287,-3.814,-3.8617,-3.8919,-3.8843,-3.922,-3.9647,-3.9371,-3.9471,-3.9697,-3.9697,-3.9697,-3.9697,-3.9697,-3.9697,-3.9697,-3.9697,-3.9697,-3.9772,-4.0049,-4.0099,-4.0325,-4.1153,-4.1128,-4.1003,-4.1279,-4.1329,-4.1329,-4.1275,-4.1275,-4.1376,-4.1706,-4.1756,-4.1555,-4.1003,-4.1125,-4.0974,-4.0199,-4.0601,-4.0874,-4.0874,-4.1125,-4.1401,-4.1731,-4.1505,-4.1175,-4.0899,-4.0651,-4.0249,-3.9697,-3.9697,-3.9697,-3.9697,-3.9697,-3.9697,-3.9697,-3.9697,-3.9697,0.0,0.0,0.0,0.0,0.0,-2.5452,0.0,0.0,0.0,0.0,0.0,0.0,0.0,0.0,0.0,0.0,0.0,0.0,0.0,0.0,0.0,0.0,0.0,0.0,0.0,-2.8147,-2.88,-2.9277,-2.9302,-2.9352,-2.9453,-2.9578,-2.9628,-2.9628,-2.9729,-2.9804,-2.9804,-3.0331,-3.0813,-3.1331,-3.1896,-3.2517,-3.3115,-3.355,-3.3796,-3.3947,-3.4906,-3.5408,-3.5533,-3.6132,-3.6405,-3.6455,-3.6908,-3.7036,-3.7086,-3.7638,-3.814,-3.8517,-3.8266,-3.8768,-3.9471,-3.9145,-3.932,-3.9697,-3.9697,-3.9697,-3.9697,-3.9697,-3.9697,-3.9697,-3.9697,-3.9697,-3.9697,-3.9697,-3.9697,-3.9848,-4.04,-4.0425,-4.04,-4.0501,-4.0425,-4.0501,-4.0953,-4.0974,-4.1,-4.1125,-4.1125,-4.0974,-4.0576,-4.0902,-4.0802,-3.9798,-4.0501,-4.0852,-4.04,-4.0752,-4.1025,-4.1125,-4.1125,-4.0924,-4.0526,-4.0425,-4.0149,-3.9697,-3.9697,-3.9697,-3.9697,-3.9697,-3.9697,-3.9697,-3.9697,-3.9697,0.0,0.0,0.0,0.0,-2.7419,0.0,0.0,0.0,-2.5795,-2.4305,0.0,0.0,0.0,0.0,0.0,0.0,0.0,0.0,0.0,0.0,0.0,0.0,0.0,0.0,0.0,-2.7695,-2.7494,-2.757,-2.757,-2.777,-2.8273,-2.8712,-2.8988,-2.8988,-2.9528,-2.9804,-2.9804,-3.0331,-3.0728,-3.0957,-3.178,-3.2533,-3.3104,-3.3162,-3.3445,-3.3922,-3.455,-3.5056,-3.5533,-3.6132,-3.6405,-3.6405,-3.648,-3.6505,-3.6556,-3.7086,-3.7312,-3.7513,-3.8442,-3.8868,-3.9044,-3.9471,-3.9647,-3.9697,-3.9697,-3.9697,-3.9697,-3.9697,-3.9697,-3.9697,-3.9697,-3.9697,-3.9697,-3.9697,-3.9697,-3.9848,-4.04,-4.0124,-3.9923,-4.0425,-4.0124,-3.9798,-3.9873,-3.9873,-4.0049,-4.0526,-4.0601,-4.0601,-4.0526,-4.0576,-4.0375,-3.9747,-3.9798,-3.9848,-3.9798,-3.9848,-4.0099,-4.0576,-4.0601,-4.0576,-4.0526,-4.0049,-3.9747,-3.9697,-3.9697,-3.9697,-3.9697,-3.9697,-3.9697,-3.9697,-3.9697,-3.9697,0.0,0.0,0.0,0.0,0.0,0.0,-2.6113,0.0,-2.5686,0.0,0.0,0.0,0.0,0.0,0.0,0.0,-2.3722,0.0,0.0,0.0,0.0,0.0,0.0,0.0,0.0,0.0,0.0,0.0,-2.6851,-2.7077,-2.7595,-2.8147,-2.8562,-2.8888,-2.9503,-2.9804,-2.9804,-3.003,-3.0192,-3.0263,-3.1075,-3.201,-3.3104,-3.3073,-3.3232,-3.3445,-3.3997,-3.455,-3.5056,-3.5655,-3.6081,-3.6405,-3.6405,-3.6405,-3.643,-3.6681,-3.691,-3.7211,-3.741,-3.8114,-3.902,-3.9521,-3.9697,-3.9697,-3.9697,-3.9697,-3.9697,-3.9697,-3.9697,-3.9697,-3.9697,-3.9697,-3.9697,-3.9697,-3.9697,-3.9747,-3.9998,-3.9848,-3.9772,-3.9998,-3.9848,-3.9697,-3.9697,-3.9697,-3.9772,-3.9998,-4.0049,-4.0049,-4.0049,-4.0049,-3.9948,-3.9722,-3.9697,-3.9697,-3.9697,-3.9697,-3.9798,-4.0023,-4.0049,-4.0049,-4.0049,-3.9823,-3.9697,-3.9697,-3.9697,-3.9697,-3.9697,-3.9697,-3.9697,-3.9697,-3.9697,-3.9697,-2.8448,0.0,0.0,0.0,0.0,0.0,0.0,0.0,0.0,0.0,0.0,0.0,0.0,0.0,0.0,0.0,0.0,-2.3045,0.0,0.0,0.0,0.0,0.0,0.0,0.0,0.0,0.0,-2.5795,-2.582,-2.6072,-2.659,-2.7268,-2.7921,-2.8448,-2.9176,-2.9628,-2.9804,-2.9804,-2.979,-2.9813,-3.0561,-3.1337,-3.2193,-3.2826,-3.3107,-3.3093,-3.3508,-3.4059,-3.4731,-3.5282,-3.5881,-3.6405,-3.6405,-3.6405,-3.6405,-3.6405,-3.6656,-3.6983,-3.6732,-3.7536,-3.8718,-3.9295,-3.9371,-3.927,-3.9421,-3.9471,-3.9496,-3.9647,-3.9697,-3.9697,-3.9697,-3.9697,-3.9697,-3.9697,-3.9697,-3.9697,-3.9697,-3.9697,-3.9697,-3.9697,-3.9697,-3.9697,-3.9697,-3.9697,-3.9697,-3.9697,-3.9697,-3.9697,-3.9697,-3.9697,-3.9697,-3.9697,-3.9697,-3.9697,-3.9697,-3.9697,-3.9697,-3.9697,-3.9697,-3.9697,-3.9697,-3.9697,-3.9697,-3.9697,-3.9697,-3.9697,-3.9697,-3.9697,-3.9697,-3.9697,-3.9697,-3.9697,0.0,0.0,0.0,-2.8373,0.0,0.0,0.0,0.0,-2.6917,0.0,0.0,0.0,0.0,-2.433,-2.3979,-2.4004,-2.3471,0.0,0.0,0.0,0.0,0.0,0.0,0.0,0.0,0.0,-2.4054,-2.4079,-2.4079,-2.433,-2.485,-2.5912,-2.6801,-2.7318,-2.8398,-2.9227,-2.9779,-2.9804,-2.9799,-2.9806,-3.0543,-3.0571,-2.9989,-3.2123,-3.3107,-3.3093,-3.314,-3.3712,-3.4731,-3.5282,-3.5881,-3.6405,-3.6405,-3.6405,-3.6405,-3.6405,-3.6405,-3.6505,-3.6985,-3.7538,-3.814,-3.8718,-3.8517,-3.8165,-3.8718,-3.8944,-3.9019,-3.9546,-3.9697,-3.9697,-3.9697,-3.9697,-3.9697,-3.9697,-3.9697,-3.9697,-3.9697,-3.9697,-3.9697,-3.9697,-3.9697,-3.9697,-3.9697,-3.9697,-3.9697,-3.9697,-3.9697,-3.9697,-3.9697,-3.9697,-3.9697,-3.9697,-3.9697,-3.9697,-3.9697,-3.9697,-3.9697,-3.9697,-3.9697,-3.9697,-3.9697,-3.9697,-3.9697,-3.9697,-3.9697,-3.9697,-3.9697,-3.9697,-3.9697,-3.9697,-3.9697,-3.9697,0.0,0.0,-2.9603,-2.885,0.0,0.0,0.0,0.0,0.0,0.0,0.0,0.0,0.0,-2.413,-2.3879,-2.3471,-2.3221,-2.292,0.0,0.0,0.0,0.0,0.0,0.0,0.0,0.0,0.0,-2.3396,-2.3396,-2.3647,-2.4255,-2.531,-2.6314,-2.7278,-2.8348,-2.9202,-2.9779,-2.9804,-2.9816,-2.9799,-3.0055,-3.0303,-3.0571,-3.1512,-3.2122,-3.2406,-3.2889,-3.3302,-3.3712,-3.4871,-3.5567,-3.5855,-3.6254,-3.6405,-3.6405,-3.6405,-3.6405,-3.648,-3.6985,-3.7312,-3.7563,-3.8115,-3.8165,-3.8115,-3.8693,-3.8919,-3.8994,-3.9546,-3.9697,-3.9697,-3.9697,-3.9697,-3.9697,-3.9697,-3.9697,-3.9697,-3.9697,-3.9697,-3.9697,-3.9697,-3.9697,-3.9697,-3.9697,-3.9697,-3.9697,-3.9697,-3.9697,-3.9697,-3.9697,-3.9697,-3.9697,-3.9697,-3.9697,-3.9697,-3.9697,-3.9697,-3.9697,-3.9697,-3.9697,-3.9697,-3.9697,-3.9697,-3.9697,-3.9697,-3.9697,-3.9697,-3.9697,-3.9697,-3.9697,-3.9697,-3.9697,-3.9697,-2.8348,-2.875,0.0,-2.8725,-2.8373,0.0,-2.7394,0.0,-2.7268,0.0,0.0,0.0,0.0,-2.4556,-2.418,-2.3772,-2.3371,-2.292,0.0,-2.2322,0.0,0.0,0.0,0.0,0.0,0.0,-2.3095,-2.3095,-2.3095,-2.3271,0.0,-2.4732,-2.5737,-2.6666,-2.7946,-2.8863,-2.9478,-2.9679,-2.9804,-2.9804,-2.9804,-3.008,-3.0503,-3.0742,-3.1397,-3.2399,-3.2885,-3.3096,-3.3182,-3.4134,-3.4901,-3.5533,-3.5931,-3.6182,-3.6405,-3.6405,-3.6405,-3.648,-3.6985,-3.7109,-3.6985,-3.7538,-3.7588,-3.7538,-3.809,-3.8417,-3.8668,-3.9245,-3.9546,-3.9697,-3.9697,-3.9697,-3.9697,-3.9697,-3.9697,-3.9697,-3.9697,-3.9697,-3.9697,-3.9697,-3.9697,-3.9697,-3.9697,-3.9697,-3.9697,-3.9697,-3.9697,-3.9697,-3.9697,-3.9697,-3.9697,-3.9697,-3.9697,-3.9697,-3.9697,-3.9697,-3.9697,-3.9697,-3.9697,-3.9697,-3.9697,-3.9697,-3.9873,-4.0275,-3.9898,-3.9898,-4.0275,-3.9898,-3.9697,-3.9697,-3.9697,-3.9697]},{"header":{"parameterUnit":"m.s-1","parameterCategory":1,"la1":30.6,"la2":29.2853,"lo1":-89.7004,"lo2":-87.6739,"dy":0.0162,"dx":0.0183,"nx":112,"ny":82,"refTime":"2023-06-11T12:00:00:Z","depth":0,"parameterNumber":3,"parameterNumberName":"V-component_of_WINDS"},"data":[0.0,0.0,0.0,0.0,0.0,0.0,0.0,0.0,0.0,0.0,0.0,0.0,0.0,0.0,0.0,0.0,0.0,0.0,0.0,0.0,0.0,0.0,0.0,0.0,0.0,0.0,0.0,0.0,0.0,0.0,0.0,0.0,0.0,0.0,0.0,0.0,0.0,0.0,0.0,0.0,0.0,0.0,0.0,0.0,0.0,0.0,0.0,0.0,0.0,0.0,0.0,0.0,0.0,0.0,0.0,0.0,0.0,0.0,0.0,0.0,0.0,0.0,0.0,0.0,0.0,0.0,0.0,0.0,0.0,0.0,0.0,0.0,0.0,0.0,0.0,0.0,0.0,0.0,0.0,0.0,0.0,0.0,0.0,0.0,0.0,0.0,0.0,0.0,0.0,0.0,-3.902,-4.3977,-5.1528,-5.6338,-5.6585,-5.6555,-5.3982,-4.8117,0.0,0.0,0.0,0.0,0.0,0.0,0.0,0.0,0.0,0.0,0.0,0.0,0.0,0.0,0.0,0.0,0.0,0.0,0.0,0.0,0.0,0.0,0.0,0.0,0.0,0.0,0.0,0.0,0.0,0.0,0.0,0.0,0.0,0.0,0.0,0.0,0.0,0.0,0.0,0.0,0.0,0.0,0.0,0.0,0.0,0.0,0.0,0.0,0.0,0.0,0.0,0.0,0.0,0.0,0.0,0.0,0.0,0.0,0.0,0.0,0.0,0.0,0.0,0.0,0.0,0.0,0.0,0.0,0.0,0.0,0.0,0.0,0.0,0.0,0.0,0.0,0.0,0.0,0.0,0.0,0.0,0.0,0.0,0.0,0.0,0.0,0.0,0.0,0.0,0.0,0.0,0.0,0.0,0.0,0.0,0.0,0.0,0.0,0.0,0.0,0.0,0.0,0.0,0.0,-4.2432,-4.9284,-5.3713,-5.6855,-5.853,-5.5658,-5.2636,-4.9927,0.0,0.0,0.0,0.0,0.0,0.0,0.0,0.0,0.0,0.0,0.0,0.0,0.0,0.0,0.0,0.0,0.0,0.0,0.0,0.0,0.0,0.0,0.0,0.0,0.0,0.0,0.0,0.0,0.0,0.0,0.0,0.0,0.0,0.0,0.0,0.0,0.0,0.0,0.0,0.0,0.0,0.0,0.0,0.0,0.0,0.0,0.0,0.0,0.0,0.0,0.0,0.0,0.0,0.0,0.0,0.0,0.0,0.0,0.0,0.0,0.0,0.0,0.0,0.0,0.0,0.0,0.0,0.0,0.0,0.0,0.0,0.0,0.0,0.0,0.0,0.0,0.0,0.0,0.0,0.0,0.0,0.0,0.0,0.0,0.0,0.0,0.0,0.0,0.0,0.0,0.0,0.0,0.0,0.0,0.0,0.0,0.0,0.0,0.0,0.0,0.0,0.0,0.0,-4.2102,-4.5424,-5.1618,-5.491,-5.7184,-5.8471,-5.5598,-5.2725,-5.0345,-4.7369,0.0,0.0,0.0,0.0,0.0,0.0,0.0,0.0,0.0,0.0,0.0,0.0,0.0,0.0,0.0,0.0,0.0,0.0,0.0,0.0,0.0,0.0,0.0,0.0,0.0,0.0,0.0,0.0,0.0,0.0,0.0,0.0,0.0,0.0,0.0,0.0,0.0,0.0,0.0,0.0,0.0,0.0,0.0,0.0,0.0,0.0,0.0,0.0,0.0,0.0,0.0,0.0,0.0,0.0,0.0,0.0,0.0,0.0,0.0,0.0,0.0,0.0,0.0,0.0,0.0,0.0,0.0,0.0,0.0,0.0,0.0,0.0,0.0,0.0,0.0,0.0,0.0,0.0,0.0,0.0,0.0,0.0,0.0,0.0,0.0,0.0,0.0,0.0,0.0,0.0,0.0,0.0,0.0,0.0,0.0,0.0,0.0,0.0,0.0,0.0,0.0,0.0,-4.5035,-4.7549,-5.2845,-5.5628,-5.7363,-5.8052,-5.5149,-5.2396,-5.0315,-4.6232,0.0,0.0,0.0,0.0,0.0,0.0,0.0,0.0,0.0,0.0,0.0,0.0,0.0,0.0,0.0,0.0,0.0,0.0,0.0,0.0,0.0,0.0,0.0,0.0,0.0,0.0,0.0,0.0,0.0,0.0,0.0,0.0,0.0,0.0,0.0,0.0,0.0,0.0,0.0,0.0,0.0,0.0,0.0,0.0,0.0,0.0,0.0,0.0,0.0,0.0,0.0,0.0,0.0,0.0,0.0,0.0,0.0,0.0,0.0,0.0,0.0,0.0,0.0,0.0,0.0,0.0,0.0,0.0,0.0,0.0,0.0,0.0,0.0,0.0,0.0,0.0,0.0,0.0,0.0,0.0,0.0,0.0,0.0,0.0,0.0,0.0,0.0,0.0,0.0,0.0,0.0,0.0,0.0,0.0,0.0,0.0,0.0,0.0,0.0,0.0,0.0,0.0,-4.5454,-4.8267,-5.3563,-5.5897,-5.7363,-5.8052,-5.3394,-5.0405,-5.0196,-4.5364,0.0,0.0,0.0,0.0,0.0,0.0,0.0,0.0,0.0,0.0,0.0,0.0,0.0,0.0,0.0,0.0,0.0,0.0,0.0,0.0,0.0,0.0,0.0,0.0,0.0,0.0,0.0,0.0,0.0,0.0,0.0,0.0,0.0,0.0,0.0,0.0,0.0,0.0,0.0,0.0,0.0,0.0,0.0,0.0,0.0,0.0,0.0,0.0,0.0,0.0,0.0,0.0,0.0,0.0,0.0,0.0,0.0,0.0,0.0,0.0,0.0,0.0,0.0,0.0,0.0,0.0,0.0,0.0,0.0,0.0,0.0,0.0,0.0,0.0,0.0,0.0,0.0,0.0,0.0,0.0,0.0,0.0,0.0,0.0,0.0,0.0,0.0,0.0,0.0,0.0,0.0,0.0,0.0,0.0,0.0,0.0,0.0,0.0,0.0,0.0,0.0,0.0,-4.5843,-4.8476,-5.2516,-5.5448,-5.7184,-5.7453,-5.4551,-5.1959,-5.0315,0.0,0.0,0.0,0.0,0.0,0.0,0.0,0.0,0.0,0.0,0.0,0.0,0.0,0.0,0.0,0.0,0.0,0.0,0.0,0.0,0.0,0.0,0.0,0.0,0.0,0.0,0.0,0.0,0.0,0.0,0.0,0.0,0.0,0.0,0.0,0.0,0.0,0.0,0.0,0.0,0.0,0.0,0.0,0.0,0.0,0.0,0.0,0.0,0.0,0.0,0.0,0.0,0.0,0.0,0.0,0.0,0.0,0.0,0.0,0.0,0.0,0.0,0.0,0.0,0.0,0.0,0.0,0.0,0.0,0.0,0.0,0.0,0.0,0.0,0.0,0.0,0.0,0.0,0.0,0.0,0.0,0.0,0.0,0.0,0.0,0.0,0.0,0.0,0.0,0.0,0.0,0.0,0.0,0.0,0.0,0.0,0.0,0.0,0.0,0.0,0.0,0.0,-4.3898,-4.6052,-4.8656,0.0,-5.5089,-5.6795,-5.6795,-5.4042,-5.1648,-5.0032,0.0,0.0,0.0,0.0,0.0,0.0,0.0,0.0,0.0,0.0,0.0,0.0,0.0,0.0,0.0,0.0,0.0,0.0,0.0,0.0,0.0,0.0,0.0,0.0,0.0,0.0,0.0,0.0,0.0,0.0,0.0,0.0,0.0,0.0,0.0,0.0,0.0,0.0,0.0,0.0,0.0,0.0,0.0,0.0,0.0,0.0,0.0,0.0,0.0,0.0,0.0,0.0,0.0,0.0,0.0,0.0,0.0,0.0,0.0,0.0,0.0,0.0,0.0,0.0,0.0,0.0,0.0,0.0,0.0,0.0,0.0,0.0,0.0,0.0,0.0,0.0,0.0,0.0,0.0,0.0,0.0,0.0,0.0,0.0,0.0,0.0,0.0,0.0,0.0,0.0,0.0,0.0,0.0,0.0,0.0,0.0,0.0,0.0,0.0,0.0,0.0,0.0,-4.3898,-4.6052,-4.8805,-5.2755,-5.497,-5.6218,-5.6218,-5.1349,-4.8596,0.0,0.0,0.0,0.0,0.0,0.0,0.0,0.0,0.0,0.0,0.0,0.0,0.0,0.0,0.0,0.0,0.0,0.0,0.0,0.0,0.0,0.0,0.0,0.0,0.0,0.0,0.0,0.0,0.0,0.0,0.0,0.0,0.0,0.0,0.0,0.0,0.0,0.0,0.0,0.0,0.0,0.0,0.0,0.0,0.0,0.0,0.0,0.0,0.0,0.0,0.0,0.0,0.0,0.0,0.0,0.0,0.0,0.0,0.0,0.0,0.0,0.0,0.0,0.0,0.0,0.0,0.0,0.0,0.0,0.0,0.0,0.0,0.0,0.0,0.0,0.0,0.0,0.0,0.0,0.0,0.0,0.0,0.0,0.0,0.0,0.0,0.0,0.0,0.0,0.0,0.0,0.0,0.0,0.0,0.0,0.0,0.0,0.0,0.0,0.0,0.0,0.0,0.0,-4.3898,-4.6052,-4.8626,-5.2127,-5.47,-5.5987,-5.5538,-5.2336,-4.9853,-4.8656,0.0,0.0,0.0,0.0,0.0,0.0,0.0,0.0,0.0,0.0,0.0,0.0,0.0,0.0,0.0,0.0,0.0,0.0,0.0,0.0,0.0,0.0,0.0,0.0,0.0,0.0,0.0,0.0,0.0,0.0,0.0,0.0,0.0,0.0,0.0,0.0,0.0,0.0,0.0,0.0,0.0,0.0,0.0,0.0,0.0,0.0,0.0,0.0,0.0,0.0,0.0,0.0,0.0,0.0,0.0,0.0,0.0,0.0,0.0,0.0,0.0,0.0,0.0,0.0,0.0,0.0,0.0,0.0,0.0,0.0,0.0,0.0,0.0,0.0,0.0,0.0,0.0,0.0,0.0,0.0,0.0,0.0,0.0,0.0,0.0,0.0,0.0,0.0,0.0,0.0,0.0,0.0,0.0,0.0,0.0,0.0,0.0,0.0,0.0,0.0,0.0,0.0,-4.3898,-4.6052,-4.8566,-5.1858,-5.4341,-5.5628,-5.5209,-5.2755,-5.0272,-4.8027,0.0,0.0,0.0,0.0,0.0,0.0,0.0,0.0,0.0,0.0,0.0,0.0,0.0,0.0,0.0,0.0,0.0,0.0,0.0,0.0,0.0,0.0,0.0,0.0,0.0,0.0,0.0,0.0,0.0,0.0,0.0,0.0,0.0,0.0,0.0,0.0,0.0,0.0,0.0,0.0,0.0,0.0,0.0,0.0,0.0,0.0,0.0,0.0,0.0,0.0,0.0,0.0,0.0,0.0,0.0,0.0,0.0,0.0,0.0,0.0,0.0,0.0,0.0,0.0,0.0,0.0,0.0,0.0,0.0,0.0,0.0,0.0,0.0,0.0,0.0,0.0,0.0,0.0,0.0,0.0,0.0,0.0,0.0,0.0,0.0,0.0,0.0,0.0,0.0,0.0,0.0,0.0,0.0,0.0,0.0,0.0,0.0,0.0,0.0,0.0,0.0,0.0,-4.3988,-4.6172,-4.8656,-5.1947,-5.4042,-5.5149,-5.5089,-5.2725,-5.0122,-4.7549,0.0,0.0,0.0,0.0,0.0,0.0,0.0,0.0,0.0,0.0,0.0,0.0,0.0,0.0,0.0,0.0,0.0,0.0,0.0,0.0,0.0,0.0,0.0,0.0,0.0,0.0,0.0,0.0,0.0,0.0,0.0,0.0,0.0,0.0,0.0,0.0,0.0,0.0,0.0,0.0,0.0,0.0,0.0,0.0,0.0,0.0,0.0,0.0,0.0,0.0,0.0,0.0,0.0,0.0,0.0,0.0,0.0,0.0,0.0,0.0,-4.276,0.0,0.0,0.0,0.0,0.0,0.0,0.0,0.0,0.0,0.0,0.0,0.0,0.0,0.0,0.0,0.0,0.0,0.0,0.0,0.0,0.0,0.0,0.0,0.0,0.0,0.0,0.0,0.0,0.0,0.0,0.0,0.0,0.0,0.0,0.0,0.0,0.0,0.0,0.0,0.0,0.0,-4.4676,-4.683,-4.9344,-5.2636,-5.4311,-5.497,-5.4461,-5.2456,-5.0331,-4.8207,-4.4657,0.0,0.0,0.0,0.0,0.0,0.0,0.0,0.0,0.0,0.0,0.0,0.0,0.0,0.0,0.0,0.0,0.0,0.0,0.0,0.0,0.0,0.0,0.0,0.0,0.0,0.0,0.0,0.0,0.0,0.0,0.0,0.0,0.0,0.0,0.0,0.0,0.0,0.0,0.0,0.0,0.0,0.0,0.0,0.0,0.0,0.0,0.0,0.0,0.0,0.0,0.0,0.0,0.0,0.0,0.0,0.0,0.0,0.0,0.0,0.0,-4.5263,0.0,0.0,0.0,0.0,0.0,0.0,0.0,0.0,0.0,0.0,0.0,0.0,0.0,0.0,0.0,0.0,0.0,0.0,0.0,0.0,0.0,0.0,0.0,0.0,0.0,0.0,0.0,0.0,0.0,0.0,0.0,0.0,0.0,0.0,0.0,0.0,0.0,0.0,0.0,0.0,-4.5843,-4.7728,-5.0032,-5.3324,-5.4581,-5.491,-5.4281,-5.2665,-5.0571,-4.7967,-4.5274,0.0,0.0,0.0,0.0,0.0,0.0,0.0,0.0,0.0,0.0,0.0,0.0,0.0,0.0,0.0,0.0,0.0,0.0,0.0,0.0,0.0,0.0,0.0,0.0,0.0,0.0,0.0,0.0,0.0,0.0,0.0,0.0,0.0,0.0,0.0,0.0,0.0,0.0,0.0,0.0,0.0,0.0,0.0,0.0,0.0,0.0,0.0,0.0,0.0,0.0,0.0,0.0,0.0,-5.3585,-5.4972,-5.6697,-5.6833,-5.6968,-5.6831,-5.3281,-5.0304,-4.7936,-4.78,0.0,0.0,0.0,0.0,0.0,0.0,0.0,0.0,0.0,0.0,0.0,0.0,0.0,0.0,0.0,0.0,0.0,0.0,0.0,0.0,0.0,0.0,0.0,0.0,-5.0753,-4.9923,-4.6503,0.0,0.0,0.0,0.0,0.0,0.0,0.0,0.0,0.0,0.0,0.0,-4.6561,-4.8416,-5.0661,-5.3862,-5.479,-5.491,-5.4281,-5.3084,-5.1079,-4.7997,-4.6352,-4.4257,0.0,0.0,0.0,0.0,0.0,0.0,0.0,0.0,0.0,0.0,0.0,0.0,0.0,0.0,0.0,0.0,0.0,0.0,0.0,0.0,0.0,0.0,0.0,0.0,0.0,0.0,0.0,0.0,0.0,0.0,0.0,0.0,-3.9118,-4.0575,0.0,0.0,0.0,0.0,0.0,0.0,0.0,0.0,0.0,0.0,0.0,0.0,0.0,-5.3112,-5.5006,-5.7239,-5.822,-5.8017,-6.008,-6.0892,-6.0588,-6.1231,-6.1873,-6.2482,-6.2516,0.0,-5.257,-5.186,0.0,0.0,0.0,0.0,0.0,0.0,0.0,0.0,0.0,0.0,0.0,0.0,0.0,0.0,0.0,0.0,0.0,0.0,0.0,0.0,0.0,0.0,-5.3057,-5.2631,-5.3038,-5.3267,0.0,-4.9039,-4.5657,-4.2938,-4.1754,0.0,0.0,0.0,0.0,0.0,0.0,0.0,-4.5364,-4.8237,-5.1122,-5.3922,-5.479,-5.491,-5.4281,-5.3503,-5.2127,-4.9956,-4.7505,-4.595,-4.5532,-4.2162,0.0,0.0,0.0,0.0,0.0,0.0,0.0,0.0,0.0,0.0,0.0,0.0,0.0,0.0,0.0,0.0,0.0,0.0,0.0,0.0,0.0,0.0,0.0,0.0,0.0,0.0,0.0,0.0,0.0,-4.0381,-4.2049,-4.1847,-4.3234,-4.4215,0.0,0.0,0.0,0.0,0.0,0.0,0.0,0.0,0.0,-5.3179,-5.5446,-5.707,-5.8051,-6.0283,-6.1839,-6.2787,-6.4613,-6.5561,-6.5696,-6.644,-6.6948,-6.7286,-6.759,-6.5392,-6.1332,-5.8051,-5.5615,-5.3721,0.0,0.0,0.0,0.0,-5.2976,-5.4194,-5.6664,-5.7002,0.0,-5.6934,0.0,0.0,0.0,0.0,0.0,0.0,0.0,0.0,0.0,0.0,-5.6602,-5.5504,-5.6045,-5.6451,-5.513,-5.2883,-5.0001,0.0,-4.5169,-4.4637,-4.3379,0.0,0.0,0.0,0.0,-4.5185,-4.7249,-4.9434,-5.1678,-5.3952,-5.4132,-5.3803,-5.3144,-5.2815,-5.1947,-5.0285,-4.8805,-4.7489,-4.6339,-4.5192,-4.354,0.0,0.0,0.0,0.0,0.0,0.0,0.0,0.0,0.0,0.0,0.0,0.0,0.0,0.0,0.0,0.0,0.0,0.0,0.0,0.0,0.0,0.0,0.0,0.0,0.0,0.0,0.0,0.0,-4.2455,-4.4175,-4.2997,-4.5399,-4.6887,0.0,0.0,0.0,0.0,0.0,0.0,-5.301,-5.5175,-5.6833,-5.7949,-6.0148,-6.1467,-6.1873,-6.3734,-6.5493,-6.7151,-6.8233,-6.9079,-6.9688,-7.0229,-7.0466,-7.0466,-7.0466,-6.9823,-6.8402,-6.3531,-6.0554,-5.8795,-5.619,-5.531,-5.5649,-5.6731,-5.7746,-5.893,-6.1907,-6.2482,-6.1806,-6.14,-5.9674,-5.707,-5.3687,0.0,0.0,0.0,0.0,-5.6483,-5.7324,-5.849,-5.9188,-5.8304,-5.8668,-5.8797,-5.7243,-5.6174,-5.4018,0.0,-4.8098,-4.7563,-4.5615,0.0,0.0,0.0,0.0,-4.6322,-4.8476,-5.0062,-5.1738,-5.3743,-5.3503,-5.2905,-5.2247,-5.2472,-5.2057,-5.0713,-5.0316,-4.9235,-4.7256,-4.7494,-4.5789,-4.1791,0.0,0.0,0.0,0.0,0.0,0.0,0.0,0.0,0.0,0.0,0.0,0.0,0.0,0.0,0.0,0.0,0.0,0.0,0.0,0.0,0.0,0.0,0.0,0.0,0.0,0.0,0.0,0.0,0.0,-4.4513,-4.8308,0.0,0.0,0.0,0.0,-5.2976,-5.4431,-5.6224,-5.849,-6.0114,-6.1941,-6.4072,-6.6305,-6.8166,-6.962,-7.0466,-7.0939,-7.1041,-7.1109,-7.1176,-7.121,-7.1244,-7.1244,-7.1244,-7.1244,-7.121,-7.0838,-6.6981,-6.414,-6.2009,-6.0385,-6.0216,-6.0926,-6.0994,-6.1941,-6.3294,-6.4174,-6.4005,-6.3869,-6.6576,-6.5493,-6.2685,-6.0317,-5.8626,0.0,0.0,-5.8397,-5.8344,-5.9978,-6.0021,-5.9891,-6.0691,-6.0471,-5.9867,-5.9099,-5.8434,-5.6188,0.0,-4.8408,-4.7211,-4.556,0.0,-4.4047,-4.3509,-4.5065,-4.6561,-4.7309,-4.9105,-5.1003,-5.3025,-5.3204,-5.2905,-5.2247,-5.3177,-5.3231,-5.1783,-5.2114,-5.1521,-4.9687,-4.8123,-4.6713,-4.5357,-4.3197,0.0,0.0,0.0,0.0,0.0,0.0,0.0,0.0,0.0,0.0,0.0,0.0,0.0,0.0,0.0,0.0,0.0,0.0,0.0,0.0,0.0,0.0,0.0,0.0,0.0,0.0,0.0,0.0,-5.0777,-5.4093,0.0,-5.5141,-5.4905,-5.5615,-5.7611,-5.8727,-6.0689,-6.3869,-6.5933,-6.7827,-6.9553,-7.0838,-7.1751,-7.2293,-7.2563,-7.2462,-7.2022,-7.2022,-7.1751,-7.1312,-7.1312,-7.1312,-7.1312,-7.1312,-7.1312,-7.121,-6.9857,-6.8267,-6.6542,-6.5019,-6.4613,-6.4918,-6.5358,-6.6203,-6.7218,-6.7929,-6.803,-6.7658,-6.6745,-6.5121,-6.326,-6.1975,-6.1535,-6.1582,-6.1916,-6.2207,-6.2481,-6.2689,-6.2311,-6.1919,-6.2311,-6.1194,-6.0146,-6.0356,-5.886,-5.6705,-5.4192,-5.2038,-5.0155,-4.87,-4.6501,-4.5155,-4.5813,-4.6142,-4.6711,-4.7788,-4.9239,-5.0614,-5.1798,-5.1528,-5.1199,-5.0913,-5.1542,-5.1221,-4.9651,-5.0871,-5.0416,-4.7661,-4.7792,-4.6339,-4.294,-4.2771,-4.1958,0.0,0.0,0.0,0.0,0.0,0.0,0.0,0.0,0.0,0.0,0.0,0.0,0.0,0.0,0.0,0.0,0.0,0.0,0.0,0.0,0.0,0.0,0.0,0.0,0.0,0.0,-5.3179,-5.5446,-5.8795,-6.0622,-5.9877,-5.981,-6.0622,-6.2584,-6.3937,-6.5967,-6.891,-7.0737,-7.2022,-7.2732,-7.3477,-7.3747,-7.3477,-7.3477,-7.3105,-7.2394,-7.2394,-7.2022,-7.1312,-7.1312,-7.1312,-7.1312,-7.1312,-7.1312,-7.1312,-7.1312,-7.0737,-6.9789,-6.9011,-6.8707,-6.8774,-6.9519,-6.9958,-7.0263,-7.05,-7.0567,-7.0195,-6.7929,-6.6542,-6.5628,-6.4884,-6.4664,-6.4729,-6.5102,-6.4854,-6.4495,-6.4372,-6.3718,-6.2994,-6.2799,-6.1553,-6.0505,-6.0715,-5.9009,-5.7244,-5.6615,-5.4521,-5.2396,-5.0794,-4.8745,-4.7608,-4.8476,-4.7878,-4.7878,-4.9404,-4.9972,-5.0375,-5.084,-5.0465,-5.0106,-4.9912,-5.0472,-5.0051,-4.8243,-4.947,-4.8859,-4.5627,-4.6674,-4.5556,-4.191,-4.2119,-4.1591,-4.0141,0.0,0.0,0.0,0.0,0.0,0.0,0.0,0.0,0.0,0.0,0.0,0.0,0.0,0.0,0.0,0.0,0.0,0.0,0.0,0.0,0.0,0.0,0.0,-4.8071,-5.3247,-5.7273,-5.8084,-6.211,-6.4005,-6.1873,-6.4275,-6.6542,-6.7963,-7.0161,-7.2022,-7.3443,-7.4255,-7.4356,-7.3612,-7.4289,-7.4322,-7.3578,-7.3544,-7.3172,-7.2394,-7.2428,-7.2056,-7.1312,-7.1312,-7.1312,-7.1312,-7.1312,-7.1312,-7.1312,-7.1312,-7.1312,-7.1379,-7.209,-7.236,-7.2462,-7.3172,-7.2969,-7.2259,-7.1548,-7.1312,-7.121,-7.0466,-7.0229,-7.0094,-6.9383,-6.8204,-6.7273,-6.7871,-6.614,-6.422,-6.4901,-6.404,-6.2899,-6.2241,-6.1583,-6.0894,-6.0236,-5.9069,-5.7932,-5.7244,-5.5568,-5.3653,-5.1648,-5.1289,-5.1229,-5.1229,-5.0122,0.0,-5.1858,-5.102,-5.0196,-5.0255,-5.0255,-5.0032,-4.9419,-5.0284,-4.9967,-4.7809,-4.8098,-4.7016,-4.391,-4.4675,-4.4357,-4.2633,-4.1334,-4.0344,-3.9627,0.0,0.0,0.0,0.0,0.0,0.0,0.0,0.0,0.0,0.0,0.0,0.0,0.0,0.0,0.0,0.0,0.0,0.0,0.0,0.0,0.0,0.0,-5.2706,-5.345,-5.7306,-6.1332,-6.4749,-6.7692,-6.9654,-7.0094,-7.0872,-7.1515,-7.1921,-7.3037,-7.3883,-7.4289,-7.554,-7.6183,-7.598,-7.6149,-7.5879,-7.51,-7.51,-7.4187,-7.2394,-7.2935,-7.2529,-7.1312,-7.1312,-7.1312,-7.1312,-7.1312,-7.1312,-7.1312,-7.1312,-7.1312,-7.1345,-7.1548,-7.1616,-7.165,-7.1853,-7.1785,-7.1582,-7.1379,-7.1312,-7.1278,-7.1075,-7.1007,-7.0973,-7.077,-7.0445,-6.9741,-6.7948,-6.6876,-6.5901,-6.4092,-6.3033,-6.2301,-6.2145,-6.122,-6.0326,-6.0116,-5.9069,-5.7932,-5.7244,-5.6316,-5.5149,-5.3653,-5.2576,-5.1768,-5.1289,-5.0511,0.0,-5.0062,-5.0182,-5.0554,-5.1558,-5.1648,-5.1409,-5.075,-5.0319,-4.8512,-4.4769,-4.5101,-4.4215,-4.1492,-4.181,-4.1503,-4.0317,-4.0438,-4.0408,0.0,0.0,0.0,0.0,0.0,0.0,0.0,0.0,0.0,0.0,0.0,0.0,0.0,0.0,0.0,0.0,0.0,0.0,0.0,0.0,0.0,0.0,-5.5412,-5.9133,-6.1467,-6.3091,-6.5493,-6.9316,-7.1244,-7.2665,-7.3849,-7.395,-7.4221,-7.4864,-7.4999,-7.5337,-7.598,-7.6251,-7.6555,-7.6893,-7.6555,-7.6183,-7.5709,-7.5405,-7.4424,-7.2868,-7.2969,-7.2428,-7.1312,-7.1312,-7.1312,-7.1312,-7.1312,-7.1312,-7.1312,-7.1312,-7.1312,0.0,0.0,0.0,0.0,0.0,-7.1751,-7.1718,-7.1413,-7.1312,-7.1312,-7.1312,-7.1312,-7.1312,-7.1312,-7.0482,-6.925,-6.7622,-6.6365,-6.5142,-6.3478,-6.2603,-6.2037,-6.1759,-6.0864,-6.0002,-5.9727,-5.886,-5.7992,-5.7603,-5.7004,0.0,-5.5209,-5.3922,-5.2995,-5.2905,-5.1858,-5.1139,-5.1319,-5.093,-5.0794,-5.1319,-5.1139,-5.069,-5.0032,-4.897,0.0,0.0,0.0,-4.216,-4.0074,-4.0132,0.0,0.0,0.0,-4.0666,-4.0397,-4.1055,0.0,0.0,-4.0104,-3.9955,0.0,0.0,0.0,0.0,0.0,0.0,0.0,0.0,0.0,0.0,0.0,0.0,0.0,0.0,0.0,0.0,-6.1434,-6.5831,-7.0297,-6.9755,-6.9925,-7.2597,-7.3477,-7.4119,-7.4796,-7.4931,-7.5473,-7.6657,-7.6183,-7.6386,-7.7671,0.0,0.0,0.0,0.0,-7.5676,-7.5574,-7.4864,-7.4052,-7.324,-7.2665,-7.2022,-7.1312,-7.1312,-7.1312,-7.1312,-7.1312,-7.1312,-7.1312,-7.1312,-7.1312,-7.1379,-7.2022,-7.2293,-7.2293,-7.2293,-7.2293,-7.2191,-7.1548,0.0,0.0,-7.1312,-7.1312,-7.1267,-7.1098,-6.9346,-6.7368,-6.7061,-6.5196,-6.3279,-6.3137,-6.2547,-6.1836,-6.1257,-6.054,-5.9797,-5.9249,-5.865,-5.8201,-5.8141,-5.7633,-5.7004,-5.6338,-5.5209,-5.4581,-5.5029,-5.3563,-5.2845,-5.3952,-5.2486,-5.1122,-5.0674,0.0,0.0,-4.8686,-4.7339,-4.5622,-4.3529,-4.2132,-4.0846,-3.9679,-3.9649,-3.9948,-4.0606,-4.1205,-4.1235,-4.0726,-4.1324,-4.1953,-4.262,-4.247,-4.2141,0.0,0.0,0.0,0.0,0.0,0.0,0.0,0.0,0.0,0.0,0.0,0.0,0.0,0.0,0.0,-6.3091,-6.6745,-7.0466,-7.4965,-7.5337,-7.5371,-7.5946,-7.6149,-7.6284,-7.6454,-7.6995,-7.6927,-7.6014,-7.6386,-7.6521,-7.6149,-7.6487,-7.6758,-7.6893,-7.6115,-7.5405,-7.483,-7.4086,-7.3037,-7.1751,0.0,0.0,-7.1312,-7.1312,-7.1312,-7.1312,-7.1312,-7.1312,-7.1312,-7.1312,-7.1312,-7.1312,-7.1481,-7.1515,-7.1515,-7.1515,-7.1515,-7.1515,-7.1379,-7.1312,-7.1312,-7.1312,-7.1312,-7.1098,-6.9949,-6.9217,0.0,-6.6154,-6.5111,-6.4457,-6.3394,-6.2184,-6.1287,-6.1164,-6.0206,-5.9279,-5.9129,-5.9009,-5.877,-5.8231,-5.8022,-5.7543,-5.6376,-5.5957,-5.5478,-5.4551,-5.4072,-5.3713,-5.3414,-5.2576,-5.2366,-5.3324,-5.2366,-5.1379,-5.072,-4.8955,-4.683,-4.4287,-4.2402,-4.1265,-4.0995,-4.0995,-4.1362,-4.2021,-4.2141,-4.2372,-4.2722,-4.2841,-4.3299,-4.3898,-4.289,-4.2581,0.0,0.0,0.0,0.0,0.0,0.0,0.0,0.0,0.0,0.0,0.0,-5.3281,0.0,0.0,-6.3497,-6.8741,-7.1819,-7.4593,-7.7604,-7.8314,-7.828,-7.7536,-7.713,-7.7029,-7.7401,-7.7096,-7.6826,-7.6826,-7.6487,-7.6454,-7.6826,-7.6487,-7.6487,-7.6893,-7.5777,-7.4965,-7.4627,-7.351,-7.2766,-7.2394,-7.2394,-7.2225,-7.1853,-7.1853,-7.165,-7.1312,-7.1312,-7.1312,-7.1312,-7.1312,-7.1312,-7.1312,-7.1312,-7.1312,-7.1312,-7.1312,-7.1312,-7.1312,-7.1312,-7.1312,-7.1143,-7.0482,-7.0263,-6.9996,-6.8601,-6.7723,-6.6855,-6.549,-6.4623,-6.3867,-6.2889,-6.1855,-6.1022,-6.0715,-5.9847,-5.9099,-5.9099,-5.9099,-5.9009,-5.868,-5.862,-5.8201,-5.6855,-5.6645,-5.6196,-5.491,-5.4431,-5.3952,-5.3264,-5.2606,-5.2336,-5.2665,-5.1528,-5.0601,-5.0272,-4.8117,-4.6082,-4.4436,-4.309,-4.2372,-4.2372,-4.2372,-4.2551,-4.288,-4.318,-4.3509,-4.3798,-4.4167,-4.4676,-4.5304,-4.4646,-4.4317,0.0,0.0,0.0,0.0,0.0,0.0,0.0,0.0,-5.2164,-5.4126,-5.6325,-5.9099,-6.3159,-6.5831,-6.8944,-7.3612,-7.6048,-7.7807,-7.9126,-7.9837,-7.9701,-7.8348,-7.7671,-7.7502,-7.7942,-7.686,-7.6521,-7.7468,-7.6555,-7.6352,-7.7266,-7.6149,-7.5709,-7.6217,-7.4897,-7.4255,-7.439,-7.2935,-7.2631,-7.3477,-7.2732,-7.2394,-7.2394,-7.2394,-7.1988,-7.1312,-7.1312,-7.1312,-7.1312,-7.1312,-7.1312,-7.1312,-7.1312,-7.1312,-7.1312,-7.1312,-7.1312,-7.1312,-7.1312,-7.1312,-7.1052,-6.968,-6.9217,-6.8894,-6.7266,-6.5994,-6.5087,-6.4758,-6.3958,-6.2929,-6.2271,-6.1619,-6.0939,-6.0271,-5.9608,-5.9099,-5.9099,-5.9099,-5.9099,-5.9099,-5.9009,-5.853,-5.7304,-5.7004,-5.6526,-5.5359,-5.473,-5.4192,-5.3653,-5.2875,-5.2187,-5.1648,-5.0301,-4.9344,-4.9149,-4.701,-4.5454,-4.4915,-4.4317,-4.3958,-4.3888,-4.3808,-4.3838,-4.3958,-4.4436,-4.4766,-4.4885,-4.5424,-4.5963,-4.6459,-4.6459,-4.6202,-4.8578,-4.8342,0.0,-4.9323,-4.9796,-5.1319,0.0,0.0,-5.8017,-6.1535,-6.4038,-6.6339,-6.8842,-7.1684,-7.4458,-7.7063,-7.8247,-7.916,-7.9972,-8.0141,-7.9904,-7.9092,-7.8923,-7.8619,-7.8044,-7.7841,-7.7232,-7.6048,-7.6454,-7.6251,-7.5067,-7.483,-7.4458,-7.3883,-7.3071,-7.2969,-7.3612,-7.2157,-7.2124,-7.3477,-7.2732,-7.2394,-7.2394,-7.2394,-7.1988,-7.1312,-7.1312,-7.1312,-7.1312,-7.1312,-7.1312,-7.1312,-7.1312,-7.1312,-7.1312,-7.1312,-7.1312,-7.1312,-7.1312,-7.1312,-7.1052,-6.968,-6.9217,-6.8699,-6.6154,-6.5219,-6.4868,-6.3649,-6.3222,-6.2929,-6.2271,-6.1619,-6.0939,-6.0249,-5.9583,-5.9099,-5.9099,-5.9099,-5.9099,-5.9099,-5.865,-5.7992,-5.7214,-5.6645,-5.6017,-5.5299,-5.5119,-5.5059,-5.497,-5.3862,-5.3054,-5.2965,-5.1259,-4.9673,-4.8506,-4.7578,-4.704,-4.698,-4.6352,-4.595,-4.595,-4.5394,-4.5364,-4.595,-4.601,-4.6381,-4.698,-4.704,-4.713,-4.7189,-4.7189,-4.716,-5.0879,-5.1082,0.0,0.0,-5.4363,-5.7273,-5.9776,-6.1772,-6.3903,-6.6812,-6.9147,-7.1515,-7.4221,-7.5743,-7.7164,0.0,-7.9532,-7.987,-8.0175,-7.9464,-7.8653,-7.7908,-7.7029,-7.6724,-7.7299,-7.6555,-7.5743,-7.51,-7.5371,-7.51,-7.4018,-7.395,-7.4018,-7.4153,-7.3003,-7.2969,-7.4119,-7.2259,-7.2056,-7.3477,-7.3172,-7.28,-7.2428,-7.3308,-7.3037,-7.1921,-7.1515,-7.1312,-7.1312,-7.1312,-7.1312,-7.1312,-7.1312,-7.1312,-7.1312,-7.1312,-7.1312,-7.1312,-7.1312,-7.0791,-6.9855,-6.8503,-6.747,-6.6438,-6.4512,-6.3685,-6.3304,-6.3132,-6.281,-6.2361,-6.1702,-6.132,-6.085,-5.9767,-5.9284,-5.9099,-5.9099,-5.9099,-5.9099,-5.9099,-5.859,-5.7902,-5.7214,-5.6585,-5.5957,-5.5299,-5.5179,-5.5059,-5.467,-5.3773,-5.2725,-5.1588,-5.0674,-4.9657,-4.8386,-4.8027,-4.7728,-4.7339,-4.704,-4.689,-4.689,-4.6621,-4.6591,-4.689,-4.689,-4.704,-4.7309,-4.7309,-4.7309,-4.7309,-4.7309,-4.7309,-5.1757,-5.2739,0.0,-5.5074,-5.8964,-6.2719,-6.3565,-6.6305,-6.9282,-7.1582,-7.3308,-7.5168,-7.7536,-7.7976,-7.8348,-7.9431,-7.9769,-7.9769,-7.9363,-7.8348,-7.7198,-7.5811,-7.4322,-7.3916,-7.5236,-7.4728,-7.4289,-7.4289,-7.4289,-7.4052,-7.351,-7.3477,-7.3747,-7.4289,-7.3274,-7.3308,-7.4593,-7.2834,-7.2665,-7.4086,-7.3883,-7.351,-7.3037,-7.368,-7.3308,-7.209,-7.1548,-7.1312,-7.1312,-7.1312,-7.1312,-7.1312,-7.1312,-7.1312,-7.1267,-7.0837,-7.0745,-7.0745,-7.0745,-6.9808,-6.8454,-6.7061,-6.5941,-6.4868,-6.3478,-6.275,-6.248,-6.2929,-6.26,-6.1942,-6.1283,-6.0962,-6.0548,-5.9344,-5.9099,-5.9099,-5.9099,-5.9099,-5.9099,-5.9099,-5.8411,-5.7693,-5.7184,-5.6436,-5.5748,-5.5269,-5.5179,-5.5029,-5.4551,-5.3713,-5.2486,-5.0644,-5.0315,-4.9747,-4.8656,-4.8386,-4.7997,-4.7339,-4.7309,-4.7309,-4.7309,-4.7309,-4.7309,-4.7309,-4.7309,-4.7309,-4.7309,-4.7309,-4.7309,-4.7309,-4.7309,-4.7309,-5.0168,-5.23,-5.5412,-5.8998,-6.2753,-6.6305,-6.9248,-7.165,-7.3916,-7.6217,-7.6758,-7.7029,-7.7841,-7.7976,-7.801,-7.8044,-7.8686,-7.8653,-7.7198,-7.6961,-7.5845,-7.2902,-7.121,-7.0635,0.0,-7.2732,-7.351,-7.351,-7.351,-7.351,-7.3477,-7.3477,-7.351,-7.351,-7.3477,-7.3815,-7.4593,-7.3815,-7.4153,-7.5608,-7.4931,-7.4559,-7.4492,-7.3105,-7.2056,-7.1345,-7.1312,-7.1312,-7.1312,-7.1312,-7.1312,-7.1312,-7.1312,-7.1312,-7.1098,-6.9775,-6.9265,-6.9265,-6.9265,-6.8405,-6.701,-6.5652,-6.5111,-6.4868,-6.3478,-6.3079,-6.3049,-6.3079,-6.26,-6.1942,-6.1283,-6.0629,-5.9976,-5.9279,-5.9099,-5.9099,-5.9099,-5.9099,-5.9099,-5.9099,-5.8022,-5.7124,-5.7094,-5.6047,-5.5209,-5.5179,-5.5179,-5.5179,-5.5149,-5.4012,-5.2665,-5.1319,-5.0584,-4.9972,-4.9329,-4.8656,-4.7997,-4.7339,-4.7309,-4.7309,-4.7309,-4.7309,-4.7309,-4.7309,-4.7309,-4.7309,-4.7309,-4.7309,-4.7309,-4.7309,-4.7309,-4.7309,-5.3145,-5.7103,-6.1264,-6.4478,-6.847,-7.2157,-7.4187,-7.598,-7.7164,-7.6927,-7.6487,-7.5743,-7.4492,-7.4289,-7.4289,-7.4289,-7.5709,-7.6657,-7.6183,-7.5676,-7.4289,-7.1278,-7.05,0.0,0.0,0.0,0.0,-7.2699,-7.3206,-7.3274,-7.28,-7.3206,-7.3713,-7.4221,-7.3747,-7.4086,-7.5337,-7.4086,-7.3984,-7.4965,-7.3747,-7.3409,-7.3815,-7.236,-7.1819,-7.1988,-7.1515,-7.1312,-7.1312,-7.1312,-7.1312,-7.1312,-7.1312,-7.0745,-6.9855,-6.9361,-6.8024,-6.6595,-6.7521,-6.6958,-6.5728,-6.5274,-6.4512,-6.3706,-6.3222,-6.278,-6.251,-6.2959,-6.26,-6.2061,-6.1822,-6.1257,-6.0595,-5.9915,-5.9387,-5.9099,-5.9099,-5.9099,-5.9099,-5.9099,-5.8022,-5.7094,-5.7094,-5.6047,-5.5179,-5.5179,-5.5179,-5.488,-5.3982,-5.3473,-5.2665,-5.1349,-5.102,-5.0451,-4.9389,-4.912,-4.8476,-4.7369,-4.7309,-4.7309,-4.7309,-4.7309,-4.7309,-4.7309,-4.7309,-4.7309,-4.7309,-4.7309,-4.7309,-4.7309,-4.7309,-4.7309,-5.6867,-6.1332,-6.5595,-6.935,-7.3071,-7.6082,-7.7063,-7.8044,-7.8145,-7.6082,-7.4424,-7.2732,-7.077,-6.9316,-6.8944,-7.0534,-7.1988,-7.3274,-7.4356,-7.4119,-7.2902,-7.0466,-6.9688,-6.9079,0.0,0.0,0.0,-7.1887,-7.2699,-7.3138,-7.3172,-7.3883,-7.4627,-7.5405,-7.4965,-7.5033,-7.5676,-7.4762,-7.4525,-7.4999,-7.3781,-7.3308,-7.3443,-7.2259,-7.1819,-7.1988,-7.1515,-7.1312,-7.1312,-7.1312,-7.1312,-7.1312,-7.1312,-7.0436,-6.9136,-6.865,-6.7061,-6.5219,-6.6154,-6.5544,-6.4401,-6.4401,-6.3789,-6.3079,-6.3079,-6.278,-6.254,-6.2959,-6.26,-6.2091,-6.2091,-6.1407,-6.0625,-6.0216,-5.9567,-5.9099,-5.9099,-5.8919,-5.874,-5.874,-5.7663,-5.6765,-5.6765,-5.5897,-5.5179,-5.5179,-5.5179,-5.479,-5.3683,-5.3563,-5.3025,-5.1708,-5.1558,-5.105,-4.9733,-4.9613,-4.9164,-4.8087,-4.7788,-4.7668,-4.7668,-4.7429,-4.7309,-4.7309,-4.7309,-4.7309,-4.7309,-4.7309,-4.7309,-4.7309,-4.7309,-4.7309,-6.1028,-6.485,-6.8436,-7.3477,-7.6352,-7.7976,-7.7976,-7.7841,-7.6826,-7.3781,-7.0737,-6.8132,0.0,0.0,-6.2584,-6.6812,-6.776,-6.9011,-7.1988,-7.2394,-7.1853,0.0,0.0,0.0,0.0,0.0,0.0,-7.1312,0.0,-7.3138,-7.4559,-7.5371,-7.6115,-7.6826,-7.6893,-7.6521,-7.5709,-7.5709,-7.5676,-7.5642,-7.4897,-7.4153,-7.3409,-7.2665,-7.1954,-7.1312,-7.1312,-7.1312,-7.1312,-7.1312,-7.1312,-7.1312,-7.1312,-7.0436,-6.8943,-6.7673,-6.6259,-6.5032,-6.5032,-6.4153,-6.3079,-6.3079,-6.3079,-6.3079,-6.3079,-6.3079,-6.3079,-6.3079,-6.263,-6.2121,-6.2121,-6.1167,-6.0156,-6.0116,-5.9578,-5.9099,-5.9099,-5.862,-5.8171,-5.8141,-5.7064,-5.6218,-5.6188,-5.5598,-5.5179,-5.5179,-5.5179,-5.497,-5.4311,-5.4221,-5.3683,-5.2336,-5.2187,-5.1678,-5.0315,-5.0196,-4.9942,-4.9359,-4.8686,-4.8327,-4.8297,-4.7698,-4.7339,-4.7309,-4.7309,-4.7309,-4.7309,-4.7309,-4.7309,-4.7309,-4.7309,-4.7309,-6.4377,-6.9079,-7.3206,-7.5709,-7.7164,-7.7976,-7.7976,-7.5845,-7.2834,-6.9248,-6.5256,-6.1264,0.0,0.0,0.0,-6.1806,-6.5865,0.0,-7.2056,-7.2394,0.0,-7.1142,0.0,-7.0534,-7.0737,-7.1244,0.0,0.0,-7.3612,-7.4221,-7.4593,-7.6386,-7.6961,-7.6048,-7.6589,-7.6521,-7.5709,-7.5709,-7.5439,-7.4864,-7.4119,-7.3375,-7.2665,-7.1921,-7.1481,-7.1312,-7.1312,-7.1312,-7.1312,-7.1312,-7.1312,-7.1312,-7.1312,-6.9808,-6.7673,-6.7317,-6.5705,-6.3592,-6.3592,-6.3394,-6.3079,-6.3079,-6.3079,-6.3079,-6.3079,-6.3079,-6.3079,-6.3079,-6.2959,-6.272,-6.2211,-6.1451,-6.0746,-6.0185,-5.9578,-5.9099,-5.9099,-5.8979,-5.871,-5.8231,-5.7064,-5.6068,-5.5538,-5.5299,-5.5179,-5.5179,-5.5179,-5.497,-5.4311,-5.4221,-5.3683,-5.2336,-5.2187,-5.1678,-5.0315,-5.0196,-4.9942,-4.9359,-4.9149,-4.8805,-4.8297,-4.8117,-4.7818,-4.7309,-4.7309,-4.7309,-4.7309,-4.7309,-4.7309,-4.7309,-4.7309,-4.7309,-6.7726,-7.1853,-7.5371,-7.6589,-7.7198,-7.6927,-7.4627,-7.1954,-6.8335,-6.2618,-5.866,0.0,-5.1691,0.0,0.0,0.0,0.0,0.0,-7.0872,-7.1988,-7.236,0.0,-7.2259,0.0,-7.2259,-7.2631,-7.3172,0.0,-7.4661,-7.51,-7.51,-7.6927,-7.7435,-7.6251,-7.6657,-7.6521,-7.5709,-7.5709,-7.5506,-7.5067,-7.4018,-7.3274,-7.2834,-7.1785,-7.1312,-7.1312,0.0,-7.1312,-7.1312,-7.1312,-7.0961,-7.0356,-7.0356,-6.8732,-6.6312,-6.6312,-6.4923,-6.3079,-6.3079,-6.2899,-6.269,-6.2989,-6.3079,-6.3079,-6.3079,-6.3079,-6.3079,-6.3079,-6.2869,-6.257,-6.2181,-6.1359,-6.0535,-6.0211,-5.9578,-5.9099,-5.9099,-5.889,-5.8381,-5.7453,-5.6675,-5.5957,-5.5299,-5.5179,-5.5179,-5.5179,-5.5179,-5.5059,-5.47,-5.464,-5.4132,-5.2785,-5.2636,-5.2097,-5.0734,-5.0614,-5.0511,-5.0152,-4.9853,-4.9523,-4.9164,-4.8865,-4.8416,-4.7758,-4.7728,-4.7608,-4.7309,-4.7309,-4.7309,-4.7309,-4.7309,-4.7309,-7.0804,-7.3612,-7.5879,-7.6555,-7.6454,-7.4864,-6.9925,-6.7083,-6.3294,-5.5581,0.0,-4.9661,-4.7398,-4.75,-4.9796,-5.5581,0.0,-6.3294,-6.9485,-7.1345,-7.2496,-7.351,-7.3646,-7.368,-7.3781,-7.3781,-7.4086,-7.4864,-7.5608,-7.5946,-7.5845,-7.7299,-7.7739,-7.6927,-7.6893,-7.6521,-7.5709,-7.5709,-7.5709,-7.5676,-7.4187,-7.3477,-7.3443,-7.1988,-7.1312,-7.1312,-7.1312,-7.1312,-7.1267,-7.1098,-7.0309,-6.9169,-6.8991,-6.7368,-6.5111,-6.5111,-6.4265,-6.3079,-6.3079,-6.272,-6.2331,-6.2899,-6.3019,-6.2959,-6.3049,-6.3079,-6.3049,-6.2959,-6.254,-6.2061,-6.1882,-6.0988,-6.0066,-5.9997,-5.9518,-5.9099,-5.9099,-5.859,-5.7782,-5.6645,-5.6338,-5.6038,-5.5418,-5.5239,-5.5179,-5.5179,-5.5179,-5.5179,-5.5179,-5.5179,-5.47,-5.3443,-5.3234,-5.2665,-5.1439,-5.1259,-5.1229,-5.1229,-5.0644,-5.0285,-5.0196,-4.9703,-4.912,-4.8446,-4.8416,-4.8087,-4.7429,-4.7429,-4.7399,-4.7309,-4.7309,-4.7309,-7.2462,-7.439,-7.5743,-7.5879,-7.4086,-7.1379,-6.7996,-6.2719,0.0,0.0,-4.8139,-4.5026,-4.2794,-4.5399,-4.9458,-5.4194,0.0,0.0,0.0,0.0,-7.1515,0.0,0.0,0.0,0.0,0.0,0.0,0.0,0.0,-7.7333,-7.6724,-7.8111,-7.8314,-7.6927,-7.6893,-7.6521,-7.5709,-7.5709,-7.5709,-7.5676,-7.4187,-7.3477,-7.3443,-7.1988,-7.1312,-7.1312,-7.1312,0.0,-7.1222,-7.0043,-6.9409,-6.9121,-6.7974,-6.6543,-6.5111,-6.5111,-6.4265,-6.3079,-6.3079,-6.2989,-6.2929,-6.3049,-6.272,-6.2361,-6.2899,-6.3079,-6.2959,-6.2421,-6.2181,-6.1822,-6.0715,-6.0271,-5.9976,-5.9428,-5.9189,-5.9099,-5.9099,-5.859,-5.8052,-5.7812,-5.6915,-5.6188,-5.6017,-5.5538,-5.5179,-5.5179,-5.5179,-5.5179,-5.5179,-5.5179,-5.488,-5.4102,-5.3533,-5.2875,-5.2097,-5.1528,-5.1229,-5.1229,-5.1109,-5.0764,-5.0226,-5.0076,-4.9763,-4.9149,-4.9149,-4.882,-4.8117,-4.8117,-4.7848,-4.7309,-4.7309,-4.7309,-7.2868,-7.4289,-7.5134,-7.5134,-7.2631,-6.8842,-6.3869,0.0,0.0,0.0,-4.4316,-4.2388,-4.0899,0.0,0.0,0.0,0.0,0.0,0.0,0.0,0.0,0.0,0.0,0.0,0.0,0.0,0.0,0.0,0.0,-7.7841,-7.7468,-7.7773,-7.7638,-7.6927,-7.6487,-7.6082,-7.5709,-7.5709,-7.5506,-7.51,-7.4018,-7.3274,-7.2868,-7.1819,-7.1312,-7.1312,-7.1312,0.0,-7.0136,-6.949,-6.8355,-6.701,-6.6365,-6.5274,-6.404,-6.404,-6.3649,-6.3079,-6.3079,-6.2839,-6.257,-6.257,-6.26,-6.266,-6.2989,-6.3079,-6.2929,-6.2271,-6.1852,-6.1343,-6.0356,-5.9877,-5.9493,-5.9189,-5.9099,-5.9099,-5.9099,-5.886,-5.853,-5.8201,-5.7334,-5.6555,-5.6226,-5.5628,-5.5179,-5.5179,-5.5179,-5.5179,-5.5179,-5.5179,-5.494,-5.4281,-5.3593,-5.2905,-5.2247,-5.1588,-5.1229,-5.1229,-5.1229,-5.1079,-5.0704,-5.0704,-5.0451,-4.9793,-4.9763,-4.9464,-4.8805,-4.8446,-4.8117,-4.7818,-4.7459,-4.7309,-7.2073,-7.3595,-7.4559,-7.4424,-7.1345,-6.6643,-6.0047,-5.4837,0.0,0.0,-4.1474,-4.0798,-4.0214,0.0,0.0,0.0,0.0,0.0,0.0,0.0,0.0,0.0,0.0,0.0,0.0,0.0,0.0,0.0,0.0,0.0,-7.8213,-7.7841,-7.7468,-7.713,-7.6521,-7.6115,-7.5946,-7.5777,-7.5337,-7.4593,-7.3849,-7.3105,-7.236,-7.165,-7.1312,-7.1267,-7.1007,0.0,0.0,-6.8552,-6.7061,-6.5056,-6.4758,-6.404,-6.3079,-6.3079,-6.3079,-6.3079,-6.3079,-6.275,-6.2271,-6.2151,-6.2361,-6.266,-6.266,-6.266,-6.251,-6.1852,-6.1283,-6.0745,-6.0057,-5.9488,-5.9099,-5.9099,-5.9099,-5.9099,-5.9099,-5.9099,-5.8919,-5.8261,-5.7573,-5.6885,-5.6286,-5.5628,-5.5179,-5.5179,-5.5179,-5.5179,-5.5179,-5.5179,-5.4999,-5.4491,-5.3803,-5.3144,-5.2456,-5.1798,-5.1379,-5.1229,-5.1229,-5.1229,-5.1229,-5.1229,-5.0913,-5.0405,-5.0255,-4.9912,-4.9299,-4.864,-4.8207,-4.8057,-4.7549,-4.7309,-6.9481,-7.2156,-7.4458,-7.3747,-6.9755,-6.441,-5.8389,0.0,0.0,-4.2286,-4.0696,-4.018,-4.0113,-4.0865,-4.2692,0.0,0.0,-5.1928,0.0,0.0,0.0,0.0,0.0,0.0,0.0,0.0,0.0,0.0,0.0,0.0,-7.8957,-7.9566,-7.9261,-7.7942,-7.7807,-7.7468,-7.6792,-7.6082,-7.5337,-7.4593,-7.3849,-7.3105,-7.236,-7.165,-7.1312,-7.1222,-6.9949,0.0,0.0,-6.649,-6.5328,-6.4978,-6.3732,-6.3222,-6.3079,-6.3079,-6.3079,-6.3079,-6.3079,-6.3049,-6.2899,-6.2301,-6.1732,-6.1283,-6.1283,-6.1283,-6.1134,-6.0446,-6.0236,-6.0027,-5.9368,-5.9159,-5.9099,-5.9099,-5.9099,-5.9099,-5.9099,-5.9099,-5.8919,-5.8261,-5.7573,-5.6885,-5.6286,-5.5628,-5.5179,-5.5179,-5.5179,-5.5179,-5.5179,-5.5179,-5.5179,-5.5089,-5.4521,-5.3832,-5.3144,-5.2486,-5.1858,-5.1259,-5.1229,-5.1229,-5.1229,-5.1229,-5.1199,-5.1139,-5.0495,-4.9912,-4.9299,-4.864,-4.7967,-4.7399,-4.7339,-4.7309,-6.8093,-7.1231,-7.3105,-7.236,-6.7895,-6.2381,-5.7306,0.0,0.0,-4.1948,-4.0595,-4.0113,-4.0113,-4.035,-4.117,0.0,0.0,0.0,0.0,0.0,0.0,0.0,0.0,0.0,0.0,0.0,0.0,0.0,0.0,0.0,-7.8416,-7.828,-7.8145,-7.7976,-7.7096,-7.6454,-7.6183,-7.5439,-7.4661,-7.3916,-7.3172,-7.2462,-7.1751,-7.1447,-7.0837,-6.9996,-6.9457,0.0,0.0,-6.5513,-6.4623,-6.3845,-6.3279,-6.3079,-6.3079,-6.3079,-6.3079,-6.3019,-6.263,-6.248,-6.2301,-6.1224,-6.0715,-6.0565,-6.0984,-6.1104,-6.0954,-6.0266,-6.0086,-5.9937,-5.9279,-5.9099,-5.9099,-5.9099,-5.9099,-5.9099,-5.9099,-5.9099,-5.9039,-5.877,-5.7842,-5.7004,-5.6765,-5.5867,-5.5179,-5.5179,-5.5179,-5.5179,-5.5179,-5.5179,-5.5179,-5.5179,-5.461,-5.4102,-5.3832,-5.2815,-5.2097,-5.1828,-5.1439,-5.1229,-5.1229,-5.1229,-5.1229,-5.1229,-5.0524,-5.0076,-4.9853,-4.8805,-4.8147,-4.7878,-4.7489,-4.7309,-6.4767,-6.8583,-7.1007,-7.0737,-6.6136,-6.0554,0.0,0.0,0.0,-4.1508,-4.0485,-4.0113,-4.0113,-4.0113,-4.0282,0.0,0.0,-4.2888,0.0,0.0,0.0,0.0,0.0,0.0,0.0,0.0,0.0,0.0,0.0,0.0,-7.7976,-7.7299,-7.7232,-7.7976,-7.6724,-7.5946,-7.5709,-7.4965,-7.4119,-7.3172,-7.2665,-7.2022,-7.1312,-7.1312,-7.0528,-6.9169,-6.8797,0.0,0.0,-6.4648,-6.3958,-6.3079,-6.3079,-6.3079,-6.3049,-6.2869,-6.278,-6.269,-6.2032,-6.1792,-6.1613,-6.0446,-6.0086,-6.0146,-6.0446,-6.0535,-6.0416,-5.9937,-5.9787,-5.9697,-5.9219,-5.9099,-5.9099,-5.9099,-5.9099,-5.9099,-5.9099,-5.9099,-5.9039,-5.886,-5.8052,-5.7274,-5.6885,-5.6077,-5.5418,-5.5209,-5.5179,-5.5179,-5.5179,-5.5179,-5.5179,-5.5179,-5.479,-5.4431,-5.4221,-5.3144,-5.2396,-5.2217,-5.1768,-5.1439,-5.1229,-5.1229,-5.1229,-5.1229,-5.0524,-5.0196,-5.0196,-4.9134,-4.8476,-4.8267,-4.7818,-4.7489,-5.841,-6.3593,-6.8132,-6.8944,-6.458,-5.8964,0.0,0.0,0.0,-4.0722,-4.0113,-4.0113,-4.0113,-4.0113,-4.0113,-4.0113,-4.1331,0.0,0.0,0.0,0.0,0.0,0.0,0.0,0.0,0.0,0.0,0.0,0.0,0.0,-7.7942,-7.7299,-7.7232,-7.7976,-7.7266,-7.6521,-7.5709,-7.4965,-7.3883,-7.2428,-7.2394,-7.2022,-7.1312,-7.1312,-7.0528,0.0,0.0,0.0,0.0,-6.3649,-6.3137,-6.3079,-6.3079,-6.3079,-6.2989,-6.2361,-6.2121,-6.2002,-6.1343,-6.1134,-6.1014,-6.0326,-6.0086,-5.9967,-5.9308,-5.9129,-5.9129,-5.9129,-5.9129,-5.9129,-5.9099,-5.9099,-5.9099,-5.9099,-5.9099,-5.9099,-5.9099,-5.9099,-5.8919,-5.8261,-5.8112,-5.7693,-5.6406,-5.6218,-5.5927,-5.5299,-5.5179,-5.5179,-5.5179,-5.5179,-5.5179,-5.5179,-5.5179,-5.491,-5.4281,-5.3563,-5.2905,-5.2247,-5.2187,-5.1887,-5.1259,-5.1229,-5.1229,-5.1229,-5.0524,-5.0196,-5.0196,-4.9583,-4.897,-4.8297,-4.8267,-4.7938,-5.2777,-5.6188,-5.8647,-5.8413,-5.5402,-5.1728,-4.8792,0.0,0.0,-4.0519,-4.0113,-4.0113,-4.0113,-4.0113,-4.062,-4.2117,-4.276,0.0,0.0,0.0,0.0,0.0,0.0,0.0,0.0,0.0,0.0,0.0,0.0,0.0,-7.6454,-7.7198,-7.7536,-7.7266,-7.6014,-7.5202,-7.4965,-7.3713,-7.2868,-7.2394,-7.1887,-7.1026,-6.9822,-6.9822,-6.8601,0.0,0.0,0.0,0.0,-6.3279,-6.3079,-6.3019,-6.26,-6.2421,-6.2331,-6.1672,-6.1433,-6.1313,-6.0655,-6.0416,-6.0296,-5.9638,-5.9428,-5.9368,-5.9159,-5.9099,-5.9099,-5.9099,-5.9099,-5.9099,-5.9099,-5.9099,-5.9099,-5.9099,-5.9099,-5.9099,-5.9099,-5.9099,-5.9039,-5.883,-5.8441,-5.7992,-5.7573,-5.7124,-5.6585,-5.5957,-5.5867,-5.5688,-5.5239,-5.5179,-5.5179,-5.5179,-5.479,-5.461,-5.485,-5.4281,-5.3803,-5.3593,-5.2725,-5.2097,-5.1887,-5.1439,-5.1229,-5.1229,-5.0524,-5.0196,-5.0196,-4.9583,-4.897,-4.8267,-4.7818,-4.7489,0.0,-5.0252,-5.2053,-5.2116,-5.0114,0.0,0.0,0.0,0.0,0.0,0.0,0.0,0.0,-4.0113,-4.0553,0.0,0.0,0.0,0.0,0.0,0.0,0.0,0.0,0.0,0.0,0.0,0.0,0.0,0.0,0.0,-7.6183,-7.6758,-7.6792,-7.6048,-7.51,-7.4356,-7.3781,-7.2868,-7.2259,-7.1988,-7.0993,-7.0043,-6.9217,-6.8699,-6.7215,0.0,0.0,0.0,0.0,-6.245,-6.2331,-6.2301,-6.1882,-6.1732,-6.1642,-6.0984,-6.0715,-6.0625,-5.9967,-5.9727,-5.9638,-5.9249,-5.9099,-5.9099,-5.9099,-5.9099,-5.9099,-5.9099,-5.9099,-5.9099,-5.9099,-5.8919,-5.871,-5.8734,-5.871,-5.874,-5.874,-5.8919,-5.9099,-5.9099,-5.877,-5.8411,-5.8171,-5.7752,-5.7274,-5.6615,-5.6368,-5.6017,-5.5598,-5.5359,-5.5179,-5.5179,-5.482,-5.476,-5.5149,-5.4581,-5.4102,-5.3832,-5.3025,-5.2336,-5.1858,-5.1439,-5.1229,-5.1229,-5.0764,-5.0554,-5.0554,-4.9703,-4.897,-4.8267,-4.7608,-4.7309,0.0,0.0,0.0,0.0,0.0,0.0,0.0,0.0,0.0,0.0,0.0,0.0,0.0,0.0,0.0,0.0,0.0,0.0,0.0,0.0,0.0,0.0,0.0,0.0,0.0,0.0,0.0,0.0,0.0,0.0,-7.6657,-7.6014,-7.527,-7.4492,-7.4458,-7.3781,-7.2428,-7.236,-7.1943,-7.1098,-6.9822,-6.9121,-6.8846,-6.759,-6.6217,0.0,0.0,0.0,0.0,-6.1433,-6.1164,-6.1104,-6.1074,-6.1044,-6.0954,-6.0266,-6.0027,-5.9937,-5.9308,-5.9099,-5.9099,-5.9099,-5.9039,-5.8979,-5.9009,-5.9069,-5.9099,-5.9039,-5.9039,-5.9039,-5.8979,-5.853,-5.8022,-5.8038,-5.8075,-5.8112,-5.8052,-5.856,-5.9039,-5.9039,-5.9039,-5.886,-5.8291,-5.8201,-5.7932,-5.7214,-5.6615,-5.6248,-5.6158,-5.5568,-5.5179,-5.5179,-5.5179,-5.5179,-5.5179,-5.464,-5.4012,-5.3354,-5.3294,-5.2695,-5.1409,-5.1319,-5.1259,-5.1229,-5.1229,-5.1199,-5.1139,-4.9883,-4.897,-4.8267,-4.7608,-4.7309,-3.7173,0.0,-3.9411,-3.9738,-3.9424,-3.8941,0.0,0.0,0.0,0.0,0.0,0.0,0.0,0.0,0.0,0.0,0.0,0.0,0.0,0.0,0.0,0.0,0.0,0.0,0.0,0.0,0.0,0.0,0.0,-7.5473,-7.4356,-7.4661,-7.4255,-7.2969,-7.2935,-7.2766,-7.2394,-7.1853,-7.0959,-6.968,-6.9361,-6.8074,-6.6016,-6.5217,-6.4066,0.0,0.0,0.0,-6.1373,-6.1732,-6.1553,-6.1074,-6.0535,-6.0326,-6.0236,-5.9578,-5.9338,-5.9308,-5.9159,-5.9099,-5.9099,-5.9099,-5.8411,-5.7663,-5.8201,-5.871,-5.9009,-5.8501,-5.8351,-5.8208,-5.769,-5.7467,-5.7356,-5.7363,-5.7738,-5.7992,-5.7453,-5.7872,-5.8351,-5.8351,-5.8351,-5.8471,-5.88,-5.886,-5.8471,-5.7274,-5.6974,-5.6526,-5.5538,-5.5299,-5.5179,-5.5179,-5.5179,-5.5179,-5.5179,-5.5059,-5.488,-5.473,-5.4251,-5.3593,-5.2755,-5.2247,-5.1738,-5.1229,-5.1229,-5.0913,-5.0435,-4.9673,-4.897,-4.8267,-4.7608,-4.7309,-3.5956,-3.617,-3.6312,-3.6637,-3.7202,-3.763,0.0,0.0,0.0,0.0,0.0,0.0,0.0,0.0,0.0,0.0,0.0,0.0,0.0,0.0,0.0,0.0,0.0,0.0,0.0,0.0,0.0,0.0,0.0,-7.4322,-7.3544,-7.3544,-7.2894,-7.1459,-7.1125,-7.0958,-7.0958,-7.0556,-6.9633,-6.8273,-6.7622,-6.6543,-6.5056,-6.3752,-6.2789,0.0,0.0,0.0,-6.0655,-6.0685,-6.0505,-6.0146,-5.9787,-5.9458,-5.9129,-5.877,-5.8471,-5.8171,-5.8171,-5.8171,-5.8171,-5.8171,-5.7693,-5.7154,-5.7543,-5.7902,-5.8112,-5.7752,-5.7663,-5.755,-5.7228,-5.6922,-5.6787,-5.7019,-5.7356,-5.7543,-5.7184,-5.7633,-5.8112,-5.8112,-5.8112,-5.8321,-5.8979,-5.9099,-5.886,-5.8141,-5.7483,-5.6944,-5.6585,-5.5748,-5.5299,-5.5598,-5.5359,-5.5179,-5.5179,-5.5179,-5.494,-5.4311,-5.3922,-5.3443,-5.2755,-5.2097,-5.1588,-5.1229,-5.0883,-5.0451,-4.9793,-4.9134,-4.8476,-4.7818,-4.7489,-4.7309,-3.6558,-3.6514,-3.626,-3.6464,-3.7567,-3.8414,0.0,0.0,0.0,0.0,0.0,0.0,0.0,0.0,0.0,0.0,0.0,0.0,0.0,0.0,0.0,0.0,0.0,0.0,0.0,0.0,0.0,0.0,0.0,-7.3055,-7.3172,-7.2346,-7.1386,-7.0155,-6.932,-6.8732,-6.8405,-6.8732,-6.8256,-6.6887,-6.5674,-6.4978,-6.4727,-6.2807,-6.1942,-6.1882,0.0,0.0,-5.9907,-5.9428,-5.9189,-5.9099,-5.9009,-5.862,-5.8112,-5.8022,-5.7603,-5.7094,-5.7094,-5.7034,-5.6974,-5.7064,-5.6974,-5.6825,-5.6915,-5.6885,-5.6795,-5.6795,-5.6885,-5.6944,-5.6825,-5.6496,-5.6316,-5.6855,-5.7034,-5.7094,-5.7094,-5.7543,-5.7992,-5.8112,-5.8112,-5.8321,-5.8979,-5.9099,-5.9069,-5.8979,-5.7902,-5.7274,-5.7752,-5.6286,-5.5418,-5.5957,-5.5538,-5.5179,-5.5179,-5.5179,-5.467,-5.3414,-5.3443,-5.3144,-5.2366,-5.1708,-5.1319,-5.1229,-5.0524,-4.9912,-4.9299,-4.864,-4.7938,-4.7309,-4.7309,-4.7309,-3.6423,-3.7634,-3.8035,-3.6209,-3.6438,-3.7104,-3.6969,0.0,0.0,0.0,0.0,0.0,0.0,0.0,0.0,0.0,0.0,0.0,0.0,0.0,0.0,0.0,0.0,0.0,0.0,0.0,0.0,0.0,0.0,-7.1056,-7.1639,-7.037,-6.9574,-6.9382,-6.8139,-6.6671,-6.4873,-6.662,-6.6803,-6.5436,-6.5219,-6.4512,-6.3334,-6.1935,-6.1253,-6.1224,0.0,-5.9757,-5.9279,-5.9727,-5.9608,-5.9039,-5.8501,-5.8201,-5.8052,-5.7453,-5.7184,-5.7094,-5.7094,-5.6765,-5.6406,-5.6915,-5.6376,-5.5598,-5.6137,-5.5927,-5.5478,-5.5478,-5.5897,-5.6196,-5.5628,-5.5837,-5.6226,-5.6302,-5.6713,-5.7094,-5.7094,-5.7184,-5.7423,-5.8022,-5.8112,-5.8321,-5.8979,-5.9099,-5.8919,-5.8351,-5.7603,-5.6944,-5.6526,-5.5718,-5.5239,-5.5329,-5.5239,-5.5179,-5.5179,-5.5179,-5.485,-5.4102,-5.4581,-5.4341,-5.3084,-5.2396,-5.1798,-5.1229,-5.0524,-4.9912,-4.9299,-4.864,-4.7938,-4.7309,-4.7309,-4.7309,-3.5859,-3.6941,-3.7652,-3.7009,-3.8024,-3.9073,-3.8691,0.0,0.0,0.0,0.0,0.0,0.0,0.0,0.0,0.0,0.0,0.0,0.0,0.0,0.0,0.0,0.0,0.0,0.0,0.0,0.0,0.0,0.0,0.0,-6.9057,-6.8454,-6.7774,-6.701,-6.6038,-6.472,-6.3036,-6.3602,-6.3571,-6.292,-6.292,-6.2617,-6.2002,-6.1014,-6.0565,-6.0505,0.0,-5.886,-5.856,-5.8501,-5.8291,-5.7992,-5.7693,-5.7363,-5.6974,-5.6316,-5.6077,-5.6077,-5.6077,-5.5867,-5.5688,-5.5987,-5.5658,-5.5239,-5.5538,-5.5418,-5.5179,-5.5179,-5.5418,-5.5568,-5.5269,-5.5418,-5.5837,-5.6549,-5.69,-5.7184,-5.7573,-5.7663,-5.7752,-5.8052,-5.8112,-5.8321,-5.8979,-5.9099,-5.9009,-5.871,-5.8082,-5.7543,-5.7274,-5.6346,-5.5718,-5.5718,-5.5418,-5.5179,-5.5179,-5.5179,-5.476,-5.3713,-5.3952,-5.3503,-5.2187,-5.2187,-5.1887,-5.1229,-5.0524,-4.9912,-4.9299,-4.864,-4.7938,-4.7309,-4.7309,-4.7309,-3.5588,-3.6468,-3.7178,-3.7753,0.0,-4.0527,-4.0798,0.0,0.0,0.0,0.0,0.0,0.0,0.0,0.0,0.0,0.0,0.0,0.0,0.0,0.0,0.0,0.0,0.0,0.0,0.0,0.0,0.0,0.0,0.0,-6.694,-6.6651,-6.5912,-6.47,-6.3826,-6.2811,-6.1613,-6.0984,-6.0805,-6.1104,-6.0954,-6.0954,-6.1074,-6.0086,-5.9697,-5.9787,-5.8471,-5.7872,-5.7842,-5.7304,-5.7094,-5.7094,-5.6944,-5.6496,-5.5867,-5.5388,-5.5179,-5.5179,-5.5179,-5.5179,-5.5179,-5.5179,-5.5179,-5.5179,-5.5179,-5.5179,-5.5179,-5.5179,-5.5179,-5.5179,-5.5179,-5.5319,-5.5649,-5.6631,-5.7012,-5.7274,-5.7992,-5.8112,-5.8171,-5.8321,-5.8351,-5.853,-5.9009,-5.9099,-5.9069,-5.889,-5.8321,-5.7812,-5.7693,-5.6645,-5.6008,-5.6008,-5.5508,-5.5179,-5.5179,-5.5179,-5.461,-5.3264,-5.3174,-5.2725,-5.1708,-5.2007,-5.1887,-5.1229,-5.0524,-4.9912,-4.9299,-4.864,-4.7938,-4.7309,-4.7309,-4.7309,-3.6096,-3.7246,-3.7855,-3.7889,-3.8024,0.0,-4.2395,-4.2625,0.0,0.0,0.0,0.0,0.0,0.0,0.0,0.0,0.0,0.0,0.0,0.0,0.0,0.0,0.0,0.0,0.0,0.0,0.0,0.0,0.0,0.0,-6.6236,-6.502,-6.4,-6.3273,-6.1989,-6.0976,-6.0236,-5.9578,-5.9877,-6.1104,-6.0475,-6.0505,-6.1044,-5.9129,-5.859,-5.9099,-5.7752,-5.7154,-5.7154,-5.7124,-5.7094,-5.7034,-5.6466,-5.5837,-5.5269,-5.5209,-5.5179,-5.5179,-5.5179,-5.5179,-5.5179,-5.5179,-5.5179,-5.5179,-5.5179,-5.5179,-5.5179,-5.5179,-5.5179,-5.5179,-5.5179,-5.5651,-5.6184,-5.6224,-5.6702,-5.7274,-5.7992,-5.8112,-5.8291,-5.8919,-5.9039,-5.9039,-5.9099,-5.9099,-5.889,-5.8291,-5.7603,-5.6944,-5.6376,-5.5688,-5.5269,-5.5269,-5.5209,-5.5179,-5.5179,-5.5179,-5.461,-5.3264,-5.3174,-5.3144,-5.3054,-5.2486,-5.1887,-5.1229,-5.0524,-4.9912,-4.9299,-4.864,-4.7938,-4.7309,-4.7309,-4.7309,-3.569,-3.6975,-3.8024,-3.8464,0.0,0.0,0.0,0.0,0.0,0.0,0.0,0.0,0.0,0.0,0.0,0.0,0.0,0.0,0.0,0.0,0.0,0.0,0.0,0.0,0.0,0.0,0.0,0.0,0.0,0.0,-6.3025,-6.2537,-6.2117,-6.1844,-6.0932,-6.0146,-5.9488,-5.883,-5.853,-5.862,-5.8351,-5.8351,-5.859,-5.7812,-5.7633,-5.7812,-5.6915,-5.6526,-5.6466,-5.5628,-5.5538,-5.5897,-5.5658,-5.5418,-5.5179,-5.5179,-5.5179,-5.5179,-5.5179,-5.5179,-5.5179,-5.5179,-5.5179,-5.5179,-5.5179,-5.5179,-5.5179,-5.5179,-5.5179,-5.5179,-5.5179,-5.54,-5.566,-5.608,-5.6389,-5.6705,-5.7334,-5.7812,-5.8201,-5.8441,-5.883,-5.8979,-5.856,-5.8501,-5.8261,-5.7573,-5.7274,-5.6885,-5.6308,-5.6008,-5.5658,-5.5239,-5.5179,-5.5179,-5.5179,-5.482,-5.4371,-5.3862,-5.3414,-5.2815,-5.2007,-5.1708,-5.1468,-5.1229,-5.0913,-5.0331,-4.9299,-4.906,-4.8356,-4.7309,-4.7309,-4.7309,-3.5047,-3.6028,-3.7009,0.0,0.0,0.0,0.0,0.0,0.0,0.0,0.0,0.0,0.0,0.0,0.0,0.0,0.0,0.0,0.0,0.0,0.0,0.0,0.0,0.0,0.0,0.0,0.0,0.0,0.0,0.0,0.0,-6.0475,-6.0296,-5.9847,-5.9398,-5.8919,-5.8471,-5.7812,-5.7154,-5.6496,-5.6286,-5.6496,-5.7094,-5.6675,-5.6615,-5.6765,-5.5927,-5.5538,-5.5478,-5.4341,-5.4281,-5.488,-5.488,-5.4999,-5.5149,-5.497,-5.488,-5.488,-5.488,-5.488,-5.491,-5.5119,-5.5179,-5.5179,-5.5179,-5.5179,-5.5179,-5.5179,-5.5179,-5.5179,-5.5179,-5.5179,-5.5299,-5.5748,-5.6017,-5.6346,-5.6944,-5.7633,-5.8171,-5.8381,-5.88,-5.889,-5.8231,-5.8112,-5.7812,-5.6944,-5.6795,-5.6585,-5.5957,-5.5867,-5.5688,-5.5239,-5.5179,-5.5179,-5.5179,-5.4581,-5.4132,-5.3892,-5.3264,-5.2456,-5.1558,-5.1319,-5.1109,-5.0853,-5.0853,-5.0272,-4.9,-4.9,-4.8386,-4.7309,-4.7309,-4.7309,-3.4303,-3.4506,0.0,0.0,0.0,0.0,0.0,0.0,0.0,0.0,0.0,0.0,0.0,0.0,0.0,0.0,0.0,0.0,0.0,0.0,0.0,0.0,0.0,0.0,0.0,0.0,0.0,0.0,0.0,0.0,0.0,-5.9069,-5.8471,-5.7124,-5.7094,-5.7094,-5.7064,-5.6466,-5.5837,-5.5179,-5.4521,-5.5209,-5.7004,-5.5748,-5.5538,-5.6128,-5.476,-5.4192,-5.4162,-5.3473,-5.3593,-5.4192,-5.4192,-5.461,-5.5089,-5.4431,-5.4192,-5.4192,-5.4192,-5.4192,-5.4311,-5.497,-5.5179,-5.5179,-5.5179,-5.5179,-5.5179,-5.5179,-5.5179,-5.5179,-5.5179,-5.5179,-5.5179,-5.5179,-5.5688,-5.6316,-5.6944,-5.7633,-5.8291,-5.8949,-5.9069,-5.889,-5.8231,-5.8112,-5.7663,-5.6346,-5.6218,-5.5927,-5.5269,-5.5179,-5.5179,-5.5179,-5.5179,-5.5179,-5.5179,-5.4581,-5.3892,-5.3204,-5.2546,-5.2187,-5.2187,-5.1558,-5.0853,-5.0226,-5.0196,-4.9613,-4.8297,-4.8297,-4.7938,-4.7309,-4.7309,-4.7309,-3.5081,0.0,0.0,0.0,0.0,0.0,0.0,0.0,0.0,0.0,0.0,0.0,0.0,0.0,0.0,0.0,0.0,0.0,0.0,0.0,0.0,0.0,0.0,0.0,0.0,0.0,0.0,0.0,0.0,0.0,0.0,-5.7034,-5.6645,-5.5777,-5.6196,-5.6226,-5.5748,-5.5568,-5.5149,-5.4491,-5.3803,-5.3803,-5.4341,-5.3952,-5.3892,-5.4042,-5.3653,-5.3503,-5.3473,-5.3264,-5.3025,-5.2845,-5.3294,-5.3593,-5.3743,-5.3563,-5.3503,-5.3503,-5.3503,-5.3503,-5.3593,-5.4291,-5.4531,-5.4568,-5.5069,-5.5179,-5.5179,-5.5179,-5.5179,-5.5179,-5.5179,-5.5179,-5.5179,-5.5179,-5.5329,-5.5538,-5.5718,-5.6286,-5.6795,-5.7004,-5.7393,-5.7483,-5.6855,-5.6735,-5.6466,-5.5598,-5.5478,-5.5418,-5.5209,-5.5179,-5.5179,-5.5179,-5.5179,-5.4999,-5.4551,-5.3862,-5.3204,-5.2546,-5.1887,-5.1498,-5.1498,-5.1319,-5.1139,-5.0883,-5.0435,-4.9823,-4.903,-4.8506,-4.7938,-4.7309,-4.7309,-4.7309,-3.4878,0.0,0.0,0.0,0.0,0.0,0.0,0.0,0.0,0.0,0.0,0.0,0.0,0.0,0.0,0.0,0.0,0.0,0.0,0.0,0.0,0.0,0.0,0.0,0.0,0.0,0.0,0.0,0.0,0.0,0.0,-5.5538,-5.5089,-5.4401,-5.479,-5.479,-5.4401,-5.4401,-5.4072,-5.3414,-5.2725,-5.2276,-5.2037,-5.2815,-5.3174,-5.3174,-5.2905,-5.2486,-5.2037,-5.2306,-5.2157,-5.1887,-5.2546,-5.2965,-5.3144,-5.2875,-5.2785,-5.2785,-5.2785,-5.2815,-5.2886,-5.3582,-5.3953,-5.4289,-5.4678,-5.4958,-5.5179,-5.5179,-5.5179,-5.5179,-5.5179,-5.5179,-5.5179,-5.5179,-5.5179,-5.5269,-5.5538,-5.5897,-5.6308,-5.6496,-5.6825,-5.6885,-5.6286,-5.6218,-5.5957,-5.5299,-5.5179,-5.5179,-5.5179,-5.497,-5.479,-5.479,-5.4551,-5.4221,-5.3832,-5.3174,-5.2606,-5.2217,-5.1588,-5.1109,-5.0794,-5.1079,-5.096,-5.0451,-5.0062,-4.9404,-4.8476,-4.8087,-4.7698,-4.7309,-4.7309,-4.7309,0.0,0.0,0.0,0.0,0.0,0.0,0.0,0.0,0.0,0.0,0.0,0.0,0.0,0.0,0.0,0.0,0.0,0.0,0.0,0.0,0.0,0.0,0.0,0.0,0.0,0.0,0.0,0.0,0.0,0.0,0.0,-5.4192,-5.3533,-5.2845,-5.2875,-5.2905,-5.2905,-5.2905,-5.2606,-5.2007,-5.1349,-5.072,-5.0166,-5.2007,-5.2815,-5.2785,-5.2187,-5.1259,-5.0166,-5.078,-5.105,-5.1109,-5.1768,-5.2396,-5.2845,-5.2306,-5.2127,-5.2127,-5.2127,-5.2109,-5.224,-5.2875,-5.3505,-5.4021,-5.411,-5.4499,-5.505,-5.5089,-5.5089,-5.5119,-5.5179,-5.5179,-5.5179,-5.5179,-5.5179,-5.5359,-5.6008,-5.6077,-5.6256,-5.6825,-5.6915,-5.6735,-5.6166,-5.6077,-5.5867,-5.5269,-5.5179,-5.5179,-5.5119,-5.4581,-5.4192,-5.4132,-5.3563,-5.3144,-5.3084,-5.2546,-5.2187,-5.2127,-5.1558,-5.0883,-5.0226,-5.0764,-5.0541,-4.9329,-4.9239,-4.8596,-4.7399,-4.7339,-4.7309,-4.7309,-4.7309,-4.7309,0.0,0.0,0.0,0.0,0.0,0.0,0.0,0.0,0.0,0.0,0.0,0.0,0.0,0.0,0.0,0.0,0.0,0.0,0.0,0.0,0.0,0.0,0.0,0.0,0.0,0.0,0.0,0.0,0.0,0.0,-5.2097,-5.1391,-5.078,-5.0168,-5.0601,-5.0823,-5.0823,-5.0823,-5.0764,0.0,-5.0002,-4.9613,-4.9494,-4.9958,-5.0168,-5.0138,-5.0018,-4.9733,-4.9494,-4.9643,-4.9703,-4.9763,-5.0391,-5.0704,-5.0853,-5.1289,-5.1439,-5.1439,-5.1439,-5.1391,-5.1528,-5.2214,-5.2532,-5.2738,-5.3264,-5.3492,-5.3759,-5.4271,-5.4431,-5.4551,-5.5059,-5.5179,-5.5179,-5.5179,-5.5179,-5.5239,-5.5359,-5.5418,-5.5448,-5.5568,-5.5598,-5.5568,-5.5418,-5.5418,-5.5359,-5.5209,-5.5179,-5.4999,-5.4491,-5.4311,-5.4012,-5.3443,-5.3264,-5.2965,-5.2456,-5.2276,-5.1977,-5.1468,-5.1289,-5.0883,-5.0226,-5.0315,-5.0062,-4.9329,-4.8745,-4.8356,-4.8087,-4.7549,-4.7309,-4.7309,-4.7309,-4.7309,0.0,0.0,0.0,0.0,0.0,0.0,0.0,0.0,0.0,0.0,0.0,0.0,0.0,0.0,0.0,0.0,0.0,0.0,0.0,0.0,0.0,0.0,0.0,0.0,0.0,0.0,0.0,0.0,0.0,-5.1109,-5.0734,-5.0122,-4.9613,-4.9329,-4.9613,-4.9763,-4.9763,-4.9763,-4.9763,-4.9763,-4.9105,-4.8626,-4.8356,-4.903,-4.9299,-4.9299,-4.9299,-4.912,-4.888,-4.9179,-4.912,-4.8865,-4.9523,-4.9972,-5.0226,-5.0584,-5.0913,-5.1229,-5.1229,-5.1229,-5.1259,-5.161,-5.1931,-5.2248,-5.2624,-5.2953,-5.329,-5.3642,-5.3713,-5.3803,-5.4132,-5.4461,-5.464,-5.4311,-5.473,-5.5089,-5.479,-5.497,-5.5089,-5.479,-5.497,-5.5179,-5.5179,-5.494,-5.473,-5.473,-5.4431,-5.4102,-5.3773,-5.3443,-5.3114,-5.2755,-5.2426,-5.2097,-5.1768,-5.1738,-5.1588,-5.1229,-5.1229,-5.078,-4.9823,-4.9763,-4.9464,-4.8805,-4.8446,-4.8117,-4.7818,-4.7489,-4.7309,-4.7309,-4.7309,-4.7309,0.0,0.0,0.0,0.0,0.0,0.0,0.0,0.0,0.0,0.0,0.0,0.0,0.0,0.0,0.0,0.0,0.0,0.0,0.0,0.0,0.0,0.0,0.0,0.0,0.0,0.0,0.0,0.0,0.0,-4.9867,-4.9867,-4.9284,-4.891,-4.882,-4.8865,-4.891,-4.8745,-4.891,-4.897,-4.897,-4.8386,-4.7848,-4.7339,-4.8446,-4.897,-4.897,-4.897,-4.8626,-4.8147,-4.876,-4.864,-4.8177,-4.888,-4.9434,-4.9867,-5.0016,-5.0465,-5.105,-5.1063,-5.1122,-5.1229,-5.1229,-5.158,-5.2051,-5.2019,-5.2408,-5.2875,-5.2965,-5.3025,-5.3025,-5.3144,-5.3593,-5.3892,-5.3324,-5.4042,-5.47,-5.4162,-5.4461,-5.467,-5.4132,-5.4461,-5.485,-5.485,-5.4401,-5.4042,-5.4042,-5.3563,-5.3144,-5.3025,-5.2546,-5.2157,-5.2037,-5.1528,-5.1229,-5.1229,-5.1229,-5.1229,-5.1229,-5.1229,-5.069,-4.9494,-4.9389,-4.9,-4.8297,-4.8177,-4.7848,-4.7309,-4.7309,-4.7309,-4.7309,-4.7309,-4.7309,0.0,0.0,0.0,0.0,0.0,0.0,0.0,0.0,0.0,0.0,0.0,0.0,0.0,0.0,0.0,0.0,0.0,0.0,0.0,0.0,0.0,0.0,0.0,0.0,0.0,0.0,0.0,0.0,-4.8865,-4.8536,-4.8536,-4.7938,-4.7309,-4.6741,-4.7279,-4.7309,-4.6741,-4.7279,-4.7578,-4.7578,-4.7489,-4.7399,-4.7309,-4.7489,-4.7578,-4.7578,-4.7578,-4.7519,-4.7429,-4.7519,-4.7519,-4.7489,-4.8147,-4.8476,-4.8626,-4.9193,-4.9821,-5.0318,-5.0322,-5.0696,-5.1229,-5.1229,-5.1259,-5.1366,-5.1302,-5.1391,-5.1588,-5.2187,-5.2336,-5.2456,-5.3025,-5.3264,-5.3294,-5.3204,-5.3324,-5.3414,-5.3324,-5.3384,-5.3414,-5.3324,-5.3384,-5.3443,-5.3443,-5.3384,-5.3324,-5.3324,-5.3234,-5.2965,-5.2396,-5.2247,-5.1977,-5.1409,-5.1259,-5.1229,-5.1229,-5.1229,-5.1229,-5.1229,-5.1229,-5.087,-5.0106,-4.9583,-4.9,-4.8297,-4.7728,-4.7399,-4.7309,-4.7309,-4.7309,-4.7309,-4.7309,-4.7309,0.0,0.0,0.0,0.0,0.0,0.0,0.0,0.0,0.0,0.0,0.0,0.0,0.0,0.0,0.0,0.0,0.0,0.0,0.0,0.0,0.0,0.0,0.0,0.0,0.0,0.0,0.0,0.0,-4.7369,-4.701,-4.6621,-4.6352,-4.6052,-4.5753,-4.6022,-4.6052,-4.5753,-4.6022,-4.6172,-4.6172,-4.6172,-4.6172,-4.6202,-4.6591,-4.695,-4.7309,-4.7309,-4.7309,-4.7309,-4.7309,-4.7309,-4.7339,-4.7608,-4.7953,-4.8328,-4.8626,-4.9149,-4.9719,-4.9713,-4.9878,-5.0182,-5.0527,-5.0617,-5.0707,-5.1079,-5.1229,-5.1289,-5.1558,-5.1648,-5.1708,-5.2007,-5.2366,-5.2546,-5.2157,-5.2366,-5.2546,-5.2157,-5.2665,-5.3174,-5.3174,-5.3174,-5.3174,-5.3174,-5.2875,-5.2636,-5.2636,-5.2306,-5.1977,-5.1678,-5.1648,-5.1528,-5.1259,-5.1229,-5.1229,-5.1229,-5.1229,-5.1229,-5.1229,-5.1229,-5.0883,-5.0226,-4.9972,-4.9314,-4.8297,-4.7638,-4.7309,-4.7309,-4.7309,-4.7309,-4.7309,-4.7309,-4.7309,0.0,0.0,0.0,0.0,0.0,0.0,0.0,0.0,0.0,0.0,0.0,0.0,0.0,0.0,0.0,0.0,0.0,0.0,0.0,0.0,0.0,0.0,0.0,0.0,0.0,0.0,0.0,0.0,-4.6052,-4.5843,-4.5334,-4.5304,-4.5214,-4.5035,-4.5214,-4.5214,-4.5035,-4.5214,-4.5304,-4.5304,-4.5304,-4.5304,-4.5304,-4.5843,-4.6322,-4.68,-4.716,-4.7309,-4.7309,-4.7309,-4.7309,-4.7309,-4.7309,-4.7625,-4.8059,-4.8057,-4.8461,-4.9044,-4.9059,-4.9164,-4.9374,-4.9824,-4.9974,-5.0064,-5.0541,-5.084,-5.0913,-5.0913,-5.1079,-5.1229,-5.1229,-5.1588,-5.1828,-5.1349,-5.1588,-5.1828,-5.1319,-5.2007,-5.2665,-5.2665,-5.2665,-5.2665,-5.2665,-5.2276,-5.1947,-5.1947,-5.1528,-5.1229,-5.1229,-5.1229,-5.1229,-5.1229,-5.1229,-5.1229,-5.1229,-5.1229,-5.1229,-5.1229,-5.1229,-5.099,-5.0465,-5.0285,-4.9703,-4.8566,-4.7908,-4.7489,-4.7309,-4.7309,-4.7309,-4.7309,-4.7309,-4.7309,0.0,0.0,0.0,0.0,0.0,0.0,0.0,0.0,0.0,0.0,0.0,0.0,0.0,0.0,0.0,0.0,0.0,0.0,0.0,0.0,0.0,0.0,0.0,0.0,0.0,0.0,0.0,0.0,-4.5334,-4.5334,-4.5304,-4.5304,-4.5005,-4.4377,-4.4975,-4.5005,-4.4377,-4.4975,-4.5304,-4.5304,-4.5304,-4.5304,-4.5304,-4.5334,-4.5364,-4.5454,-4.6741,-4.7309,-4.7309,-4.7309,-4.7309,-4.7309,-4.7309,-4.7339,-4.7369,-4.7369,-4.7782,-4.8377,-4.8356,-4.876,-4.9298,-4.9344,-4.9359,-4.9359,-4.9389,-4.9793,-5.0255,-5.0255,-5.0704,-5.1229,-5.1229,-5.1259,-5.1259,-5.1229,-5.1259,-5.1259,-5.1229,-5.1259,-5.1319,-5.1319,-5.1319,-5.1319,-5.1319,-5.1289,-5.1259,-5.1259,-5.1229,-5.1229,-5.1229,-5.1229,-5.1229,-5.1229,-5.1229,-5.1229,-5.1229,-5.1229,-5.1229,-5.1229,-5.1229,-5.1199,-5.1169,-5.0524,-4.9912,-4.9269,-4.8566,-4.7938,-4.7309,-4.7309,-4.7309,-4.7309,-4.7309,-4.7309,0.0,0.0,0.0,0.0,0.0,0.0,0.0,0.0,0.0,0.0,0.0,0.0,0.0,0.0,0.0,0.0,0.0,0.0,0.0,0.0,0.0,0.0,0.0,0.0,0.0,0.0,0.0,0.0,0.0,-4.3459,-4.3459,-4.3,-4.2851,-4.3099,-4.288,-4.2671,-4.2432,-4.2671,-4.2791,-4.2791,-4.2791,-4.301,-4.3438,-4.3838,-4.4248,-4.471,-4.5627,-4.6262,-4.6711,-4.713,-4.7309,-4.7309,-4.7309,-4.7309,-4.7309,-4.7309,-4.7442,-4.7679,-4.7668,-4.7788,-4.8085,-4.852,-4.8626,-4.876,-4.9179,-4.9434,-4.9703,-5.0076,-5.0375,-5.0644,-5.1109,-5.1229,-5.1229,-5.1229,-5.1229,-5.1229,-5.1229,-5.1229,-5.1229,-5.1229,-5.1229,-5.1229,-5.1229,-5.1229,-5.1229,-5.1229,-5.1229,-5.1229,-5.1229,-5.1229,-5.1229,-5.1229,-5.1229,-5.1229,-5.1229,-5.1229,-5.1229,-5.1229,-5.1229,-5.1229,-5.1229,-5.0943,-5.0361,-4.9329,-4.909,-4.8386,-4.7309,-4.7309,-4.7309,-4.7309,-4.7309,-4.7309,0.0,0.0,0.0,0.0,0.0,0.0,0.0,0.0,0.0,0.0,0.0,0.0,0.0,0.0,0.0,0.0,0.0,0.0,0.0,0.0,0.0,0.0,0.0,0.0,0.0,0.0,0.0,0.0,0.0,0.0,-4.2081,-4.1662,-4.1602,-4.2051,-4.1662,-4.1422,-4.1422,-4.1422,-4.1422,-4.1422,-4.1406,-4.1645,-4.2102,-4.2703,-4.326,-4.3718,-4.4588,-4.5357,-4.6022,-4.6711,-4.695,-4.6993,-4.7189,-4.7309,-4.7309,-4.7309,-4.7309,-4.7309,-4.7309,-4.7309,-4.7369,-4.7818,-4.7967,-4.8027,-4.8476,-4.882,-4.9045,-4.9464,-4.9837,-5.0255,-5.0511,-5.072,-5.0913,-5.1169,-5.1229,-5.1229,-5.1229,-5.1229,-5.1229,-5.1229,-5.1229,-5.1229,-5.1229,-5.1229,-5.1229,-5.1229,-5.1229,-5.1229,-5.1229,-5.1229,-5.1229,-5.1229,-5.1229,-5.1229,-5.1229,-5.1229,-5.1229,-5.1229,-5.102,-5.0853,-5.0853,-5.069,-5.0062,-4.9,-4.897,-4.8386,-4.7309,-4.7309,-4.7309,-4.7309,-4.7309,-4.7309,0.0,0.0,0.0,0.0,0.0,0.0,0.0,0.0,0.0,0.0,0.0,0.0,0.0,0.0,0.0,0.0,0.0,0.0,0.0,0.0,0.0,0.0,0.0,0.0,0.0,0.0,0.0,0.0,-4.1324,-4.1332,-4.1324,-4.1324,-4.1294,-4.1265,-4.1294,-4.1362,-4.1294,-4.1362,-4.1324,-4.1324,-4.1313,-4.1356,-4.1385,-4.205,-4.2367,-4.2466,-4.3728,-4.4649,-4.5274,-4.5992,-4.6274,-4.6316,-4.7023,-4.7279,-4.7279,-4.7309,-4.7309,-4.7309,-4.7309,-4.7309,-4.7309,-4.7309,-4.7309,-4.7309,-4.7309,-4.7758,-4.8267,-4.8267,-4.9194,-4.9986,-4.9434,-4.9733,-5.0315,-5.0973,-5.1199,-5.1199,-5.1229,-5.1229,-5.1229,-5.1229,-5.1229,-5.1229,-5.1229,-5.1229,-5.1229,-5.1229,-5.1229,-5.1199,-5.1199,-5.1199,-5.1199,-5.1199,-5.1199,-5.1199,-5.1229,-5.1229,-5.1229,-5.1229,-5.0554,-5.0196,-5.0196,-4.9613,-4.9,-4.8297,-4.8297,-4.7967,-4.7309,-4.7309,-4.7309,-4.7309,-4.7309,-4.7309,-2.8786,0.0,0.0,0.0,0.0,0.0,0.0,0.0,0.0,0.0,0.0,0.0,0.0,0.0,0.0,0.0,0.0,0.0,0.0,0.0,0.0,0.0,0.0,0.0,0.0,0.0,0.0,0.0,-3.9768,-3.9439,-3.9948,-3.9948,-3.9499,-3.8542,-3.9439,-3.9709,-3.923,-3.9709,-3.9948,-3.9948,-3.9934,-4.0187,-4.0708,-4.1378,-4.1918,-4.2445,-4.3238,-4.3668,-4.3958,-4.5098,-4.5585,-4.5645,-4.6339,-4.6591,-4.6651,-4.713,-4.7309,-4.7309,-4.7309,-4.7309,-4.7309,-4.7309,-4.7309,-4.7309,-4.7309,-4.7429,-4.7668,-4.8147,-4.8536,-4.8895,-4.9239,-4.9449,-4.9703,-5.0315,-5.0465,-5.0584,-5.1109,-5.1229,-5.1229,-5.1229,-5.1229,-5.1229,-5.1229,-5.1229,-5.1229,-5.1229,-5.1229,-5.1003,-5.0524,-5.0465,-5.0465,-5.0465,-5.0465,-5.0644,-5.1169,-5.1229,-5.1229,-5.1229,-5.0554,-5.0196,-5.0196,-4.9613,-4.9,-4.8297,-4.8297,-4.7967,-4.7309,-4.7309,-4.7309,-4.7309,-4.7309,-4.7309,-2.8846,-2.8308,0.0,0.0,0.0,0.0,-2.8876,-2.9385,0.0,0.0,0.0,0.0,0.0,0.0,0.0,0.0,0.0,0.0,0.0,0.0,0.0,0.0,0.0,0.0,0.0,-3.902,-3.8751,-3.911,-3.8422,-3.8153,-3.8542,-3.8571,-3.8212,-3.7434,-3.8182,-3.8392,-3.7973,-3.8661,-3.899,-3.8996,-3.926,-3.9601,-4.0016,-4.0972,-4.161,-4.2055,-4.2931,-4.329,-4.3349,-4.4128,-4.4638,-4.4975,-4.5963,-4.6292,-4.6394,-4.704,-4.7309,-4.7309,-4.7309,-4.7309,-4.7309,-4.7309,-4.7309,-4.7309,-4.7309,-4.7309,-4.7399,-4.7758,-4.7878,-4.8087,-4.906,-4.912,-4.9015,-4.9673,-4.9823,-5.0002,-5.0614,-5.0764,-5.09,-5.1169,-5.1229,-5.1229,-5.1229,-5.1229,-5.1229,-5.1229,-5.1229,-5.0943,-5.0285,-5.0435,-5.0375,-4.9883,-5.0331,-5.0644,-5.0764,-5.105,-5.1229,-5.1229,-5.0554,-5.0076,-4.9853,-4.9194,-4.8536,-4.7908,-4.7878,-4.7698,-4.7309,-4.7309,-4.7309,-4.7309,-4.7309,-4.7309,-2.9116,-2.8816,-2.8906,-2.9382,0.0,0.0,-2.9172,-2.9026,-2.8846,0.0,0.0,0.0,0.0,0.0,0.0,0.0,0.0,0.0,0.0,0.0,0.0,0.0,0.0,0.0,-3.7404,-3.7404,-3.7375,-3.7315,-3.7315,-3.7285,-3.7195,-3.7255,-3.7285,-3.7195,-3.7255,-3.7315,-3.7315,-3.8033,-3.8397,-3.8407,-3.9086,-3.9373,-3.9433,-4.0726,-4.1326,-4.1479,-4.2664,-4.326,-4.329,-4.329,-4.3658,-4.4308,-4.5597,-4.6094,-4.6167,-4.689,-4.7189,-4.7219,-4.7279,-4.7309,-4.7309,-4.7309,-4.7309,-4.7309,-4.7309,-4.7309,-4.7309,-4.7309,-4.7309,-4.7578,-4.879,-4.8626,-4.8356,-4.906,-4.9209,-4.9344,-5.0046,-5.0136,-5.0285,-5.0943,-5.1109,-5.1079,-5.102,-5.099,-5.102,-5.1109,-5.1109,-5.087,-5.0166,-5.0631,-5.0541,-4.9329,-5.0212,-5.069,-5.0136,-5.0661,-5.102,-5.1063,-5.0435,-4.9883,-4.9329,-4.867,-4.7967,-4.7309,-4.7309,-4.7309,-4.7309,-4.7309,-4.7309,-4.7309,-4.7309,-4.7309,-3.0073,-3.0133,0.0,0.0,0.0,0.0,-2.8423,-2.8723,-2.9292,0.0,0.0,0.0,0.0,0.0,0.0,0.0,0.0,0.0,0.0,0.0,0.0,0.0,0.0,0.0,-3.7404,-3.7404,-3.7195,-3.6716,-3.6656,-3.6447,-3.5908,-3.6387,-3.6417,-3.5908,-3.6387,-3.6656,-3.6656,-3.7823,-3.8392,-3.8427,-3.908,-3.9373,-3.9403,-4.0233,-4.0888,-4.1448,-4.2228,-4.2823,-4.329,-4.329,-4.3389,-4.3579,-4.4377,-4.4706,-4.4825,-4.6052,-4.6531,-4.6591,-4.713,-4.7309,-4.7309,-4.7309,-4.7309,-4.7309,-4.7309,-4.7309,-4.7309,-4.7309,-4.7309,-4.7369,-4.7608,-4.7578,-4.7668,-4.8327,-4.8476,-4.8805,-4.9927,-4.9823,-4.9643,-5.0255,-5.0375,-5.0272,-4.9733,-4.9689,-4.9823,-5.0315,-5.0375,-5.0182,-4.9523,-4.9583,-4.9389,-4.8566,-4.8716,-4.9015,-4.9434,-4.9629,-4.9883,-5.0345,-4.9823,-4.9449,-4.9299,-4.867,-4.7967,-4.7309,-4.7309,-4.7309,-4.7309,-4.7309,-4.7309,-4.7309,-4.7309,-4.7309,0.0,0.0,0.0,-2.9714,0.0,0.0,0.0,-2.8873,-2.8996,0.0,0.0,0.0,0.0,0.0,0.0,0.0,0.0,0.0,0.0,0.0,0.0,0.0,0.0,0.0,-3.4981,-3.5549,-3.5968,-3.5998,-3.5998,-3.5848,-3.5519,-3.5818,-3.5848,-3.5519,-3.5818,-3.5998,-3.5998,-3.6956,-3.7425,-3.7471,-3.8441,-3.8919,-3.8954,-3.9957,-4.0554,-4.0934,-4.1978,-4.2554,-4.288,-4.317,-4.329,-4.3349,-4.4047,-4.4317,-4.4436,-4.5454,-4.6022,-4.6279,-4.6292,-4.6741,-4.7249,-4.692,-4.704,-4.7309,-4.7309,-4.7309,-4.7309,-4.7309,-4.7309,-4.7309,-4.7309,-4.7309,-4.7399,-4.7728,-4.7788,-4.8057,-4.9045,-4.9015,-4.8865,-4.9194,-4.9254,-4.9254,-4.9299,-4.9299,-4.9419,-4.9703,-4.9763,-4.9523,-4.8865,-4.912,-4.894,-4.7908,-4.8386,-4.882,-4.882,-4.912,-4.9449,-4.9733,-4.9464,-4.9179,-4.885,-4.8446,-4.7967,-4.7309,-4.7309,-4.7309,-4.7309,-4.7309,-4.7309,-4.7309,-4.7309,-4.7309,0.0,0.0,0.0,0.0,0.0,-3.04,0.0,0.0,0.0,0.0,0.0,0.0,0.0,0.0,0.0,0.0,0.0,0.0,0.0,0.0,0.0,0.0,0.0,0.0,0.0,-3.3544,-3.4322,-3.4891,-3.4921,-3.4981,-3.51,-3.525,-3.531,-3.531,-3.5429,-3.5519,-3.5519,-3.6148,-3.6559,-3.6684,-3.7844,-3.8495,-3.8602,-3.9719,-4.0277,-4.0457,-4.1692,-4.2291,-4.244,-4.306,-4.329,-4.3349,-4.3888,-4.4137,-4.4197,-4.4855,-4.5454,-4.5903,-4.5603,-4.6202,-4.704,-4.6651,-4.686,-4.7309,-4.7309,-4.7309,-4.7309,-4.7309,-4.7309,-4.7309,-4.7309,-4.7309,-4.7309,-4.7309,-4.7309,-4.7489,-4.8147,-4.8177,-4.8147,-4.8267,-4.8177,-4.8267,-4.8805,-4.894,-4.897,-4.912,-4.912,-4.894,-4.8356,-4.8745,-4.8626,-4.7429,-4.8267,-4.8686,-4.8147,-4.8566,-4.9,-4.912,-4.912,-4.888,-4.8297,-4.8177,-4.7848,-4.7309,-4.7309,-4.7309,-4.7309,-4.7309,-4.7309,-4.7309,-4.7309,-4.7309,0.0,0.0,0.0,0.0,-3.2677,0.0,0.0,0.0,-3.0673,-2.8966,0.0,0.0,0.0,0.0,0.0,0.0,0.0,0.0,0.0,0.0,0.0,0.0,0.0,0.0,0.0,-3.3006,-3.2766,-3.2856,-3.2856,-3.3095,-3.3694,-3.4294,-3.4623,-3.4623,-3.519,-3.5519,-3.5519,-3.6148,-3.6783,-3.7305,-3.8042,-3.8686,-3.9277,-3.9433,-3.9858,-4.0427,-4.1175,-4.1871,-4.244,-4.306,-4.329,-4.329,-4.3379,-4.3409,-4.3469,-4.4197,-4.4466,-4.4706,-4.5813,-4.6322,-4.6531,-4.704,-4.7249,-4.7309,-4.7309,-4.7309,-4.7309,-4.7309,-4.7309,-4.7309,-4.7309,-4.7309,-4.7309,-4.7309,-4.7309,-4.7489,-4.8147,-4.7818,-4.7578,-4.8177,-4.7818,-4.7429,-4.7519,-4.7519,-4.7728,-4.8297,-4.8386,-4.8386,-4.8297,-4.8356,-4.8117,-4.7369,-4.7429,-4.7489,-4.7429,-4.7489,-4.7788,-4.8356,-4.8386,-4.8356,-4.8297,-4.7728,-4.7369,-4.7309,-4.7309,-4.7309,-4.7309,-4.7309,-4.7309,-4.7309,-4.7309,-4.7309,0.0,0.0,0.0,0.0,0.0,0.0,-3.112,0.0,-3.0612,0.0,0.0,0.0,0.0,0.0,0.0,0.0,-2.8334,0.0,0.0,0.0,0.0,0.0,0.0,0.0,0.0,0.0,0.0,0.0,-3.1929,-3.2198,-3.2886,-3.3544,-3.4114,-3.4503,-3.516,-3.5519,-3.5519,-3.5789,-3.6061,-3.6307,-3.6952,-3.7645,-3.825,-3.8638,-3.9169,-3.9858,-4.0516,-4.1175,-4.1871,-4.2491,-4.3,-4.329,-4.329,-4.329,-4.3319,-4.3618,-4.3988,-4.4347,-4.4485,-4.5323,-4.6399,-4.71,-4.7309,-4.7309,-4.7309,-4.7309,-4.7309,-4.7309,-4.7309,-4.7309,-4.7309,-4.7309,-4.7309,-4.7309,-4.7309,-4.7369,-4.7668,-4.7489,-4.7399,-4.7668,-4.7489,-4.7309,-4.7309,-4.7309,-4.7399,-4.7668,-4.7728,-4.7728,-4.7728,-4.7728,-4.7608,-4.7339,-4.7309,-4.7309,-4.7309,-4.7309,-4.7429,-4.7698,-4.7728,-4.7728,-4.7728,-4.7459,-4.7309,-4.7309,-4.7309,-4.7309,-4.7309,-4.7309,-4.7309,-4.7309,-4.7309,-4.7309,-3.3903,0.0,0.0,0.0,0.0,0.0,0.0,0.0,0.0,0.0,0.0,0.0,0.0,0.0,0.0,0.0,0.0,-2.7525,0.0,0.0,0.0,0.0,0.0,0.0,0.0,0.0,0.0,-3.0673,-3.0703,-3.1002,-3.1689,-3.2497,-3.3275,-3.3903,-3.4771,-3.531,-3.5519,-3.5519,-3.5582,-3.5767,-3.6261,-3.6935,-3.7693,-3.818,-3.8763,-3.9439,-4.0111,-4.077,-4.1482,-4.2141,-4.2761,-4.329,-4.329,-4.329,-4.329,-4.329,-4.3589,-4.3977,-4.3678,-4.4635,-4.6142,-4.683,-4.692,-4.68,-4.698,-4.704,-4.707,-4.7249,-4.7309,-4.7309,-4.7309,-4.7309,-4.7309,-4.7309,-4.7309,-4.7309,-4.7309,-4.7309,-4.7309,-4.7309,-4.7309,-4.7309,-4.7309,-4.7309,-4.7309,-4.7309,-4.7309,-4.7309,-4.7309,-4.7309,-4.7309,-4.7309,-4.7309,-4.7309,-4.7309,-4.7309,-4.7309,-4.7309,-4.7309,-4.7309,-4.7309,-4.7309,-4.7309,-4.7309,-4.7309,-4.7309,-4.7309,-4.7309,-4.7309,-4.7309,-4.7309,-4.7309,0.0,0.0,0.0,-3.3814,0.0,0.0,0.0,0.0,-3.2078,0.0,0.0,0.0,0.0,-2.8996,-2.8577,-2.8607,-2.8034,0.0,0.0,0.0,0.0,0.0,0.0,0.0,0.0,0.0,-2.8667,-2.8697,-2.8697,-2.8996,-2.9681,-3.0881,-3.1869,-3.2557,-3.3844,-3.4831,-3.5489,-3.5519,-3.5829,-3.6481,-3.648,-3.7168,-3.8385,-3.8367,-3.8763,-3.9439,-4.0112,-4.0805,-4.1482,-4.2141,-4.2761,-4.329,-4.329,-4.329,-4.329,-4.329,-4.329,-4.3409,-4.4077,-4.4736,-4.5454,-4.6142,-4.5903,-4.5484,-4.6142,-4.6309,-4.6501,-4.713,-4.7309,-4.7309,-4.7309,-4.7309,-4.7309,-4.7309,-4.7309,-4.7309,-4.7309,-4.7309,-4.7309,-4.7309,-4.7309,-4.7309,-4.7309,-4.7309,-4.7309,-4.7309,-4.7309,-4.7309,-4.7309,-4.7309,-4.7309,-4.7309,-4.7309,-4.7309,-4.7309,-4.7309,-4.7309,-4.7309,-4.7309,-4.7309,-4.7309,-4.7309,-4.7309,-4.7309,-4.7309,-4.7309,-4.7309,-4.7309,-4.7309,-4.7309,-4.7309,-4.7309,0.0,0.0,-3.528,-3.4382,0.0,0.0,0.0,0.0,0.0,0.0,0.0,0.0,0.0,-2.8757,-2.8457,-2.8034,-2.7735,-2.7375,0.0,0.0,0.0,0.0,0.0,0.0,0.0,0.0,0.0,-2.7944,-2.7944,-2.8244,-2.8906,-3.0163,-3.136,-3.2437,-3.3784,-3.4801,-3.5489,-3.5519,-3.5612,-3.5829,-3.5818,-3.6274,-3.7168,-3.7554,-3.8112,-3.8792,-3.9457,-4.013,-4.0805,-4.1466,-4.2106,-4.2731,-4.311,-4.329,-4.329,-4.329,-4.329,-4.3379,-4.4077,-4.4466,-4.4766,-4.5424,-4.5484,-4.5424,-4.6112,-4.6279,-4.6471,-4.713,-4.7309,-4.7309,-4.7309,-4.7309,-4.7309,-4.7309,-4.7309,-4.7309,-4.7309,-4.7309,-4.7309,-4.7309,-4.7309,-4.7309,-4.7309,-4.7309,-4.7309,-4.7309,-4.7309,-4.7309,-4.7309,-4.7309,-4.7309,-4.7309,-4.7309,-4.7309,-4.7309,-4.7309,-4.7309,-4.7309,-4.7309,-4.7309,-4.7309,-4.7309,-4.7309,-4.7309,-4.7309,-4.7309,-4.7309,-4.7309,-4.7309,-4.7309,-4.7309,-4.7309,-3.3784,-3.4262,0.0,-3.4233,-3.3814,0.0,-3.2647,0.0,-3.2497,0.0,0.0,0.0,0.0,-2.9265,-2.8816,-2.8393,-2.7914,-2.7375,0.0,-2.6602,0.0,0.0,0.0,0.0,0.0,0.0,-2.7585,-2.7585,-2.7585,-2.7794,0.0,-2.9475,-3.0672,-3.1779,-3.3305,-3.4474,-3.513,-3.537,-3.5519,-3.5519,-3.5519,-3.5848,-3.6514,-3.7128,-3.7751,-3.8441,-3.9104,-3.9793,-4.0432,-4.086,-4.1594,-4.244,-4.2821,-4.312,-4.329,-4.329,-4.329,-4.3379,-4.4077,-4.4127,-4.4077,-4.4736,-4.4796,-4.4736,-4.5394,-4.5783,-4.6082,-4.677,-4.713,-4.7309,-4.7309,-4.7309,-4.7309,-4.7309,-4.7309,-4.7309,-4.7309,-4.7309,-4.7309,-4.7309,-4.7309,-4.7309,-4.7309,-4.7309,-4.7309,-4.7309,-4.7309,-4.7309,-4.7309,-4.7309,-4.7309,-4.7309,-4.7309,-4.7309,-4.7309,-4.7309,-4.7309,-4.7309,-4.7309,-4.7309,-4.7309,-4.7309,-4.7519,-4.7997,-4.7549,-4.7549,-4.7997,-4.7549,-4.7309,-4.7309,-4.7309,-4.7309]}]]